<?xml version="1.0" encoding="UTF-8" standalone="no" ?>
<gpx xmlns="http://www.topografix.com/GPX/1/1" xmlns:xsi="http://www.w3.org/2001/XMLSchema-instance" xsi:schemaLocation="http://www.topografix.com/GPX/1/1 http://www.topografix.com/GPX/1/1/gpx.xsd" version="1.1" creator="VisuGPX - https://www.visugpx.com">
  <metadata>
    <name>Tracé actuel: 16 JUIN 2019 08:48 Tour des 4 lacs</name>
    <desc><![CDATA[Evidemment le parcours sur les crêtes offre un vaste panorama sur une partie du Jura, pour finir la journée un tour vers les cascades du Hérisson change l'ambiance. ]]></desc>
  </metadata>
  <trk>
    <name><![CDATA[Tracé actuel: 16 JUIN 2019 08:48]]></name>
    <trkseg>
      <trkpt lat="46.61802" lon="5.88194">
        <ele>771.11</ele>
        <time>2019-06-16T06:48:02Z</time>
      </trkpt>
      <trkpt lat="46.61802" lon="5.88194">
        <ele>774.96</ele>
        <time>2019-06-16T06:48:03Z</time>
      </trkpt>
      <trkpt lat="46.61802" lon="5.88194">
        <ele>777.36</ele>
        <time>2019-06-16T06:48:23Z</time>
      </trkpt>
      <trkpt lat="46.61801" lon="5.88194">
        <ele>775.92</ele>
        <time>2019-06-16T06:48:24Z</time>
      </trkpt>
      <trkpt lat="46.61801" lon="5.88193">
        <ele>775.92</ele>
        <time>2019-06-16T06:48:35Z</time>
      </trkpt>
      <trkpt lat="46.61806" lon="5.88188">
        <ele>775.92</ele>
        <time>2019-06-16T06:48:48Z</time>
      </trkpt>
      <trkpt lat="46.61808" lon="5.88183">
        <ele>776.4</ele>
        <time>2019-06-16T06:48:59Z</time>
      </trkpt>
      <trkpt lat="46.61811" lon="5.8817">
        <ele>776.4</ele>
        <time>2019-06-16T06:49:11Z</time>
      </trkpt>
      <trkpt lat="46.61816" lon="5.88158">
        <ele>776.88</ele>
        <time>2019-06-16T06:49:23Z</time>
      </trkpt>
      <trkpt lat="46.61818" lon="5.88142">
        <ele>776.4</ele>
        <time>2019-06-16T06:49:35Z</time>
      </trkpt>
      <trkpt lat="46.61818" lon="5.88135">
        <ele>776.88</ele>
        <time>2019-06-16T06:49:41Z</time>
      </trkpt>
      <trkpt lat="46.61823" lon="5.88122">
        <ele>777.36</ele>
        <time>2019-06-16T06:49:54Z</time>
      </trkpt>
      <trkpt lat="46.61833" lon="5.88119">
        <ele>778.81</ele>
        <time>2019-06-16T06:50:06Z</time>
      </trkpt>
      <trkpt lat="46.6184" lon="5.88119">
        <ele>779.77</ele>
        <time>2019-06-16T06:50:15Z</time>
      </trkpt>
      <trkpt lat="46.61843" lon="5.88119">
        <ele>779.77</ele>
        <time>2019-06-16T06:50:22Z</time>
      </trkpt>
      <trkpt lat="46.61853" lon="5.88113">
        <ele>780.73</ele>
        <time>2019-06-16T06:50:34Z</time>
      </trkpt>
      <trkpt lat="46.61862" lon="5.88109">
        <ele>781.69</ele>
        <time>2019-06-16T06:50:47Z</time>
      </trkpt>
      <trkpt lat="46.61871" lon="5.88111">
        <ele>781.69</ele>
        <time>2019-06-16T06:50:58Z</time>
      </trkpt>
      <trkpt lat="46.61889" lon="5.88112">
        <ele>782.17</ele>
        <time>2019-06-16T06:51:11Z</time>
      </trkpt>
      <trkpt lat="46.61897" lon="5.88115">
        <ele>782.65</ele>
        <time>2019-06-16T06:51:17Z</time>
      </trkpt>
      <trkpt lat="46.61912" lon="5.88117">
        <ele>782.65</ele>
        <time>2019-06-16T06:51:33Z</time>
      </trkpt>
      <trkpt lat="46.61922" lon="5.88114">
        <ele>782.65</ele>
        <time>2019-06-16T06:51:45Z</time>
      </trkpt>
      <trkpt lat="46.61922" lon="5.88113">
        <ele>783.13</ele>
        <time>2019-06-16T06:52:01Z</time>
      </trkpt>
      <trkpt lat="46.61924" lon="5.88115">
        <ele>783.61</ele>
        <time>2019-06-16T06:52:31Z</time>
      </trkpt>
      <trkpt lat="46.61923" lon="5.88115">
        <ele>783.13</ele>
        <time>2019-06-16T06:52:53Z</time>
      </trkpt>
      <trkpt lat="46.61924" lon="5.88115">
        <ele>783.61</ele>
        <time>2019-06-16T06:53:04Z</time>
      </trkpt>
      <trkpt lat="46.61943" lon="5.88121">
        <ele>784.09</ele>
        <time>2019-06-16T06:53:20Z</time>
      </trkpt>
      <trkpt lat="46.61959" lon="5.88119">
        <ele>784.57</ele>
        <time>2019-06-16T06:53:34Z</time>
      </trkpt>
      <trkpt lat="46.6197" lon="5.88123">
        <ele>785.53</ele>
        <time>2019-06-16T06:53:47Z</time>
      </trkpt>
      <trkpt lat="46.61973" lon="5.88122">
        <ele>786.02</ele>
        <time>2019-06-16T06:53:51Z</time>
      </trkpt>
      <trkpt lat="46.61977" lon="5.88125">
        <ele>785.53</ele>
        <time>2019-06-16T06:53:54Z</time>
      </trkpt>
      <trkpt lat="46.61987" lon="5.88134">
        <ele>786.5</ele>
        <time>2019-06-16T06:54:05Z</time>
      </trkpt>
      <trkpt lat="46.62004" lon="5.88141">
        <ele>786.98</ele>
        <time>2019-06-16T06:54:19Z</time>
      </trkpt>
      <trkpt lat="46.62019" lon="5.88146">
        <ele>787.46</ele>
        <time>2019-06-16T06:54:34Z</time>
      </trkpt>
      <trkpt lat="46.62029" lon="5.88149">
        <ele>788.42</ele>
        <time>2019-06-16T06:54:46Z</time>
      </trkpt>
      <trkpt lat="46.62035" lon="5.88152">
        <ele>789.38</ele>
        <time>2019-06-16T06:54:57Z</time>
      </trkpt>
      <trkpt lat="46.6204" lon="5.88155">
        <ele>789.38</ele>
        <time>2019-06-16T06:55:03Z</time>
      </trkpt>
      <trkpt lat="46.62051" lon="5.88159">
        <ele>789.38</ele>
        <time>2019-06-16T06:55:12Z</time>
      </trkpt>
      <trkpt lat="46.62057" lon="5.8816">
        <ele>789.86</ele>
        <time>2019-06-16T06:55:17Z</time>
      </trkpt>
      <trkpt lat="46.6206" lon="5.88161">
        <ele>789.86</ele>
        <time>2019-06-16T06:55:19Z</time>
      </trkpt>
      <trkpt lat="46.62067" lon="5.88159">
        <ele>790.82</ele>
        <time>2019-06-16T06:55:31Z</time>
      </trkpt>
      <trkpt lat="46.62084" lon="5.88159">
        <ele>791.78</ele>
        <time>2019-06-16T06:55:44Z</time>
      </trkpt>
      <trkpt lat="46.62093" lon="5.88161">
        <ele>792.74</ele>
        <time>2019-06-16T06:55:55Z</time>
      </trkpt>
      <trkpt lat="46.62103" lon="5.88167">
        <ele>794.19</ele>
        <time>2019-06-16T06:56:07Z</time>
      </trkpt>
      <trkpt lat="46.62114" lon="5.88174">
        <ele>794.67</ele>
        <time>2019-06-16T06:56:19Z</time>
      </trkpt>
      <trkpt lat="46.62123" lon="5.88175">
        <ele>795.15</ele>
        <time>2019-06-16T06:56:30Z</time>
      </trkpt>
      <trkpt lat="46.62134" lon="5.88174">
        <ele>796.11</ele>
        <time>2019-06-16T06:56:43Z</time>
      </trkpt>
      <trkpt lat="46.62147" lon="5.8817">
        <ele>796.59</ele>
        <time>2019-06-16T06:56:56Z</time>
      </trkpt>
      <trkpt lat="46.62163" lon="5.88165">
        <ele>797.07</ele>
        <time>2019-06-16T06:57:09Z</time>
      </trkpt>
      <trkpt lat="46.62173" lon="5.88165">
        <ele>798.03</ele>
        <time>2019-06-16T06:57:21Z</time>
      </trkpt>
      <trkpt lat="46.62195" lon="5.8816">
        <ele>798.99</ele>
        <time>2019-06-16T06:57:35Z</time>
      </trkpt>
      <trkpt lat="46.62212" lon="5.88159">
        <ele>799.95</ele>
        <time>2019-06-16T06:57:49Z</time>
      </trkpt>
      <trkpt lat="46.62227" lon="5.88156">
        <ele>800.92</ele>
        <time>2019-06-16T06:58:03Z</time>
      </trkpt>
      <trkpt lat="46.62243" lon="5.88156">
        <ele>801.4</ele>
        <time>2019-06-16T06:58:15Z</time>
      </trkpt>
      <trkpt lat="46.62265" lon="5.88153">
        <ele>802.84</ele>
        <time>2019-06-16T06:58:29Z</time>
      </trkpt>
      <trkpt lat="46.62279" lon="5.88147">
        <ele>803.8</ele>
        <time>2019-06-16T06:58:43Z</time>
      </trkpt>
      <trkpt lat="46.62296" lon="5.88143">
        <ele>805.24</ele>
        <time>2019-06-16T06:58:55Z</time>
      </trkpt>
      <trkpt lat="46.62312" lon="5.8815">
        <ele>806.2</ele>
        <time>2019-06-16T06:59:08Z</time>
      </trkpt>
      <trkpt lat="46.62322" lon="5.88152">
        <ele>806.2</ele>
        <time>2019-06-16T06:59:19Z</time>
      </trkpt>
      <trkpt lat="46.62324" lon="5.88152">
        <ele>806.2</ele>
        <time>2019-06-16T06:59:21Z</time>
      </trkpt>
      <trkpt lat="46.6234" lon="5.88151">
        <ele>807.16</ele>
        <time>2019-06-16T06:59:34Z</time>
      </trkpt>
      <trkpt lat="46.62349" lon="5.88157">
        <ele>807.16</ele>
        <time>2019-06-16T06:59:42Z</time>
      </trkpt>
      <trkpt lat="46.62363" lon="5.88159">
        <ele>807.64</ele>
        <time>2019-06-16T06:59:56Z</time>
      </trkpt>
      <trkpt lat="46.62368" lon="5.88161">
        <ele>807.64</ele>
        <time>2019-06-16T06:59:59Z</time>
      </trkpt>
      <trkpt lat="46.62377" lon="5.88167">
        <ele>807.64</ele>
        <time>2019-06-16T07:00:10Z</time>
      </trkpt>
      <trkpt lat="46.62386" lon="5.88172">
        <ele>807.64</ele>
        <time>2019-06-16T07:00:22Z</time>
      </trkpt>
      <trkpt lat="46.62392" lon="5.88175">
        <ele>807.64</ele>
        <time>2019-06-16T07:00:26Z</time>
      </trkpt>
      <trkpt lat="46.62406" lon="5.88191">
        <ele>806.68</ele>
        <time>2019-06-16T07:00:40Z</time>
      </trkpt>
      <trkpt lat="46.62419" lon="5.88201">
        <ele>806.2</ele>
        <time>2019-06-16T07:00:55Z</time>
      </trkpt>
      <trkpt lat="46.62422" lon="5.88205">
        <ele>806.68</ele>
        <time>2019-06-16T07:00:59Z</time>
      </trkpt>
      <trkpt lat="46.62423" lon="5.8821">
        <ele>806.2</ele>
        <time>2019-06-16T07:01:02Z</time>
      </trkpt>
      <trkpt lat="46.62426" lon="5.88213">
        <ele>806.2</ele>
        <time>2019-06-16T07:01:05Z</time>
      </trkpt>
      <trkpt lat="46.62434" lon="5.88231">
        <ele>806.2</ele>
        <time>2019-06-16T07:01:17Z</time>
      </trkpt>
      <trkpt lat="46.62453" lon="5.88246">
        <ele>805.24</ele>
        <time>2019-06-16T07:01:31Z</time>
      </trkpt>
      <trkpt lat="46.62458" lon="5.88252">
        <ele>804.76</ele>
        <time>2019-06-16T07:01:37Z</time>
      </trkpt>
      <trkpt lat="46.62457" lon="5.8826">
        <ele>804.28</ele>
        <time>2019-06-16T07:01:41Z</time>
      </trkpt>
      <trkpt lat="46.6246" lon="5.88264">
        <ele>803.8</ele>
        <time>2019-06-16T07:01:44Z</time>
      </trkpt>
      <trkpt lat="46.62464" lon="5.88268">
        <ele>803.8</ele>
        <time>2019-06-16T07:01:48Z</time>
      </trkpt>
      <trkpt lat="46.62468" lon="5.88271">
        <ele>803.8</ele>
        <time>2019-06-16T07:01:51Z</time>
      </trkpt>
      <trkpt lat="46.62473" lon="5.88279">
        <ele>802.84</ele>
        <time>2019-06-16T07:01:57Z</time>
      </trkpt>
      <trkpt lat="46.62483" lon="5.88285">
        <ele>802.84</ele>
        <time>2019-06-16T07:02:07Z</time>
      </trkpt>
      <trkpt lat="46.62496" lon="5.88301">
        <ele>801.88</ele>
        <time>2019-06-16T07:02:20Z</time>
      </trkpt>
      <trkpt lat="46.62505" lon="5.88306">
        <ele>801.88</ele>
        <time>2019-06-16T07:02:26Z</time>
      </trkpt>
      <trkpt lat="46.62517" lon="5.88312">
        <ele>801.4</ele>
        <time>2019-06-16T07:02:37Z</time>
      </trkpt>
      <trkpt lat="46.62518" lon="5.88314">
        <ele>801.4</ele>
        <time>2019-06-16T07:02:38Z</time>
      </trkpt>
      <trkpt lat="46.62527" lon="5.8833">
        <ele>800.44</ele>
        <time>2019-06-16T07:02:49Z</time>
      </trkpt>
      <trkpt lat="46.62537" lon="5.88345">
        <ele>799.95</ele>
        <time>2019-06-16T07:03:01Z</time>
      </trkpt>
      <trkpt lat="46.62551" lon="5.88352">
        <ele>799.47</ele>
        <time>2019-06-16T07:03:16Z</time>
      </trkpt>
      <trkpt lat="46.62562" lon="5.88363">
        <ele>799.95</ele>
        <time>2019-06-16T07:03:29Z</time>
      </trkpt>
      <trkpt lat="46.62569" lon="5.88374">
        <ele>799.47</ele>
        <time>2019-06-16T07:03:40Z</time>
      </trkpt>
      <trkpt lat="46.62578" lon="5.88384">
        <ele>799.47</ele>
        <time>2019-06-16T07:03:51Z</time>
      </trkpt>
      <trkpt lat="46.62584" lon="5.88389">
        <ele>799.47</ele>
        <time>2019-06-16T07:03:57Z</time>
      </trkpt>
      <trkpt lat="46.62585" lon="5.88391">
        <ele>799.95</ele>
        <time>2019-06-16T07:03:59Z</time>
      </trkpt>
      <trkpt lat="46.62588" lon="5.884">
        <ele>799.47</ele>
        <time>2019-06-16T07:04:04Z</time>
      </trkpt>
      <trkpt lat="46.6259" lon="5.88405">
        <ele>799.47</ele>
        <time>2019-06-16T07:04:07Z</time>
      </trkpt>
      <trkpt lat="46.62592" lon="5.88411">
        <ele>799.47</ele>
        <time>2019-06-16T07:04:11Z</time>
      </trkpt>
      <trkpt lat="46.62594" lon="5.88414">
        <ele>798.99</ele>
        <time>2019-06-16T07:04:13Z</time>
      </trkpt>
      <trkpt lat="46.62604" lon="5.88424">
        <ele>799.47</ele>
        <time>2019-06-16T07:04:25Z</time>
      </trkpt>
      <trkpt lat="46.62614" lon="5.88434">
        <ele>798.99</ele>
        <time>2019-06-16T07:04:35Z</time>
      </trkpt>
      <trkpt lat="46.6262" lon="5.8844">
        <ele>798.51</ele>
        <time>2019-06-16T07:04:43Z</time>
      </trkpt>
      <trkpt lat="46.62629" lon="5.88448">
        <ele>798.99</ele>
        <time>2019-06-16T07:04:55Z</time>
      </trkpt>
      <trkpt lat="46.62639" lon="5.88459">
        <ele>798.51</ele>
        <time>2019-06-16T07:05:04Z</time>
      </trkpt>
      <trkpt lat="46.62651" lon="5.88474">
        <ele>798.03</ele>
        <time>2019-06-16T07:05:18Z</time>
      </trkpt>
      <trkpt lat="46.62658" lon="5.88484">
        <ele>798.03</ele>
        <time>2019-06-16T07:05:30Z</time>
      </trkpt>
      <trkpt lat="46.62664" lon="5.88495">
        <ele>798.03</ele>
        <time>2019-06-16T07:05:42Z</time>
      </trkpt>
      <trkpt lat="46.62673" lon="5.88508">
        <ele>797.07</ele>
        <time>2019-06-16T07:05:53Z</time>
      </trkpt>
      <trkpt lat="46.62689" lon="5.8852">
        <ele>797.07</ele>
        <time>2019-06-16T07:06:06Z</time>
      </trkpt>
      <trkpt lat="46.627" lon="5.8853">
        <ele>797.07</ele>
        <time>2019-06-16T07:06:17Z</time>
      </trkpt>
      <trkpt lat="46.6271" lon="5.88541">
        <ele>796.59</ele>
        <time>2019-06-16T07:06:28Z</time>
      </trkpt>
      <trkpt lat="46.62719" lon="5.88553">
        <ele>796.59</ele>
        <time>2019-06-16T07:06:41Z</time>
      </trkpt>
      <trkpt lat="46.62725" lon="5.88557">
        <ele>796.11</ele>
        <time>2019-06-16T07:06:51Z</time>
      </trkpt>
      <trkpt lat="46.6273" lon="5.88563">
        <ele>795.63</ele>
        <time>2019-06-16T07:06:57Z</time>
      </trkpt>
      <trkpt lat="46.62731" lon="5.88566">
        <ele>795.63</ele>
        <time>2019-06-16T07:06:59Z</time>
      </trkpt>
      <trkpt lat="46.62737" lon="5.88568">
        <ele>795.63</ele>
        <time>2019-06-16T07:07:02Z</time>
      </trkpt>
      <trkpt lat="46.62745" lon="5.88582">
        <ele>795.63</ele>
        <time>2019-06-16T07:07:14Z</time>
      </trkpt>
      <trkpt lat="46.62747" lon="5.88587">
        <ele>795.63</ele>
        <time>2019-06-16T07:07:16Z</time>
      </trkpt>
      <trkpt lat="46.62752" lon="5.88591">
        <ele>796.11</ele>
        <time>2019-06-16T07:07:21Z</time>
      </trkpt>
      <trkpt lat="46.6276" lon="5.88602">
        <ele>795.63</ele>
        <time>2019-06-16T07:07:31Z</time>
      </trkpt>
      <trkpt lat="46.62763" lon="5.88607">
        <ele>795.63</ele>
        <time>2019-06-16T07:07:34Z</time>
      </trkpt>
      <trkpt lat="46.62767" lon="5.8861">
        <ele>795.15</ele>
        <time>2019-06-16T07:07:39Z</time>
      </trkpt>
      <trkpt lat="46.62772" lon="5.88616">
        <ele>794.67</ele>
        <time>2019-06-16T07:07:45Z</time>
      </trkpt>
      <trkpt lat="46.62776" lon="5.88617">
        <ele>794.19</ele>
        <time>2019-06-16T07:07:49Z</time>
      </trkpt>
      <trkpt lat="46.62782" lon="5.88621">
        <ele>794.67</ele>
        <time>2019-06-16T07:08:01Z</time>
      </trkpt>
      <trkpt lat="46.62793" lon="5.8862">
        <ele>795.15</ele>
        <time>2019-06-16T07:08:15Z</time>
      </trkpt>
      <trkpt lat="46.62806" lon="5.88628">
        <ele>795.15</ele>
        <time>2019-06-16T07:08:27Z</time>
      </trkpt>
      <trkpt lat="46.62819" lon="5.88639">
        <ele>794.67</ele>
        <time>2019-06-16T07:08:40Z</time>
      </trkpt>
      <trkpt lat="46.62826" lon="5.88643">
        <ele>795.15</ele>
        <time>2019-06-16T07:08:53Z</time>
      </trkpt>
      <trkpt lat="46.62827" lon="5.88646">
        <ele>793.71</ele>
        <time>2019-06-16T07:09:03Z</time>
      </trkpt>
      <trkpt lat="46.62831" lon="5.8866">
        <ele>792.26</ele>
        <time>2019-06-16T07:09:12Z</time>
      </trkpt>
      <trkpt lat="46.62836" lon="5.88663">
        <ele>792.74</ele>
        <time>2019-06-16T07:09:19Z</time>
      </trkpt>
      <trkpt lat="46.6284" lon="5.88667">
        <ele>792.26</ele>
        <time>2019-06-16T07:09:24Z</time>
      </trkpt>
      <trkpt lat="46.62849" lon="5.88682">
        <ele>792.26</ele>
        <time>2019-06-16T07:09:36Z</time>
      </trkpt>
      <trkpt lat="46.62857" lon="5.88691">
        <ele>790.82</ele>
        <time>2019-06-16T07:09:48Z</time>
      </trkpt>
      <trkpt lat="46.6286" lon="5.887">
        <ele>790.82</ele>
        <time>2019-06-16T07:09:53Z</time>
      </trkpt>
      <trkpt lat="46.62869" lon="5.88719">
        <ele>790.34</ele>
        <time>2019-06-16T07:10:03Z</time>
      </trkpt>
      <trkpt lat="46.6288" lon="5.88726">
        <ele>789.86</ele>
        <time>2019-06-16T07:10:15Z</time>
      </trkpt>
      <trkpt lat="46.62887" lon="5.8873">
        <ele>789.38</ele>
        <time>2019-06-16T07:10:27Z</time>
      </trkpt>
      <trkpt lat="46.62898" lon="5.8874">
        <ele>789.38</ele>
        <time>2019-06-16T07:10:38Z</time>
      </trkpt>
      <trkpt lat="46.62902" lon="5.88748">
        <ele>789.38</ele>
        <time>2019-06-16T07:10:51Z</time>
      </trkpt>
      <trkpt lat="46.62915" lon="5.88766">
        <ele>788.9</ele>
        <time>2019-06-16T07:11:04Z</time>
      </trkpt>
      <trkpt lat="46.62921" lon="5.88778">
        <ele>787.46</ele>
        <time>2019-06-16T07:11:15Z</time>
      </trkpt>
      <trkpt lat="46.6293" lon="5.8878">
        <ele>786.98</ele>
        <time>2019-06-16T07:11:25Z</time>
      </trkpt>
      <trkpt lat="46.62942" lon="5.88791">
        <ele>786.5</ele>
        <time>2019-06-16T07:11:36Z</time>
      </trkpt>
      <trkpt lat="46.62953" lon="5.888">
        <ele>786.02</ele>
        <time>2019-06-16T07:11:46Z</time>
      </trkpt>
      <trkpt lat="46.62959" lon="5.88811">
        <ele>785.53</ele>
        <time>2019-06-16T07:11:57Z</time>
      </trkpt>
      <trkpt lat="46.62968" lon="5.88818">
        <ele>785.05</ele>
        <time>2019-06-16T07:12:08Z</time>
      </trkpt>
      <trkpt lat="46.62976" lon="5.88822">
        <ele>784.57</ele>
        <time>2019-06-16T07:12:18Z</time>
      </trkpt>
      <trkpt lat="46.62983" lon="5.88829">
        <ele>784.09</ele>
        <time>2019-06-16T07:12:27Z</time>
      </trkpt>
      <trkpt lat="46.62984" lon="5.88831">
        <ele>785.05</ele>
        <time>2019-06-16T07:12:39Z</time>
      </trkpt>
      <trkpt lat="46.62993" lon="5.88836">
        <ele>784.57</ele>
        <time>2019-06-16T07:12:50Z</time>
      </trkpt>
      <trkpt lat="46.63002" lon="5.88846">
        <ele>784.09</ele>
        <time>2019-06-16T07:13:00Z</time>
      </trkpt>
      <trkpt lat="46.63013" lon="5.8886">
        <ele>783.13</ele>
        <time>2019-06-16T07:13:12Z</time>
      </trkpt>
      <trkpt lat="46.6302" lon="5.88868">
        <ele>783.13</ele>
        <time>2019-06-16T07:13:19Z</time>
      </trkpt>
      <trkpt lat="46.63032" lon="5.8888">
        <ele>782.17</ele>
        <time>2019-06-16T07:13:31Z</time>
      </trkpt>
      <trkpt lat="46.6304" lon="5.8889">
        <ele>782.17</ele>
        <time>2019-06-16T07:13:41Z</time>
      </trkpt>
      <trkpt lat="46.63043" lon="5.88894">
        <ele>781.69</ele>
        <time>2019-06-16T07:13:50Z</time>
      </trkpt>
      <trkpt lat="46.63044" lon="5.889">
        <ele>781.69</ele>
        <time>2019-06-16T07:13:53Z</time>
      </trkpt>
      <trkpt lat="46.63046" lon="5.88905">
        <ele>781.69</ele>
        <time>2019-06-16T07:13:56Z</time>
      </trkpt>
      <trkpt lat="46.6305" lon="5.88909">
        <ele>781.69</ele>
        <time>2019-06-16T07:13:59Z</time>
      </trkpt>
      <trkpt lat="46.63053" lon="5.88913">
        <ele>781.69</ele>
        <time>2019-06-16T07:14:03Z</time>
      </trkpt>
      <trkpt lat="46.63058" lon="5.88919">
        <ele>780.73</ele>
        <time>2019-06-16T07:14:09Z</time>
      </trkpt>
      <trkpt lat="46.63075" lon="5.88937">
        <ele>780.73</ele>
        <time>2019-06-16T07:14:23Z</time>
      </trkpt>
      <trkpt lat="46.63086" lon="5.88949">
        <ele>780.25</ele>
        <time>2019-06-16T07:14:34Z</time>
      </trkpt>
      <trkpt lat="46.63088" lon="5.88951">
        <ele>780.73</ele>
        <time>2019-06-16T07:14:36Z</time>
      </trkpt>
      <trkpt lat="46.63092" lon="5.88956">
        <ele>780.73</ele>
        <time>2019-06-16T07:14:39Z</time>
      </trkpt>
      <trkpt lat="46.63099" lon="5.88965">
        <ele>780.25</ele>
        <time>2019-06-16T07:14:46Z</time>
      </trkpt>
      <trkpt lat="46.63105" lon="5.88971">
        <ele>780.25</ele>
        <time>2019-06-16T07:14:51Z</time>
      </trkpt>
      <trkpt lat="46.63114" lon="5.8898">
        <ele>780.25</ele>
        <time>2019-06-16T07:15:02Z</time>
      </trkpt>
      <trkpt lat="46.63115" lon="5.88981">
        <ele>780.25</ele>
        <time>2019-06-16T07:15:03Z</time>
      </trkpt>
      <trkpt lat="46.63121" lon="5.88994">
        <ele>780.25</ele>
        <time>2019-06-16T07:15:11Z</time>
      </trkpt>
      <trkpt lat="46.63128" lon="5.89007">
        <ele>779.29</ele>
        <time>2019-06-16T07:15:19Z</time>
      </trkpt>
      <trkpt lat="46.63131" lon="5.89017">
        <ele>779.29</ele>
        <time>2019-06-16T07:15:24Z</time>
      </trkpt>
      <trkpt lat="46.63135" lon="5.89026">
        <ele>778.81</ele>
        <time>2019-06-16T07:15:29Z</time>
      </trkpt>
      <trkpt lat="46.63144" lon="5.89042">
        <ele>778.32</ele>
        <time>2019-06-16T07:15:40Z</time>
      </trkpt>
      <trkpt lat="46.63153" lon="5.89057">
        <ele>778.32</ele>
        <time>2019-06-16T07:15:51Z</time>
      </trkpt>
      <trkpt lat="46.6316" lon="5.89075">
        <ele>777.84</ele>
        <time>2019-06-16T07:16:02Z</time>
      </trkpt>
      <trkpt lat="46.63172" lon="5.89096">
        <ele>777.36</ele>
        <time>2019-06-16T07:16:17Z</time>
      </trkpt>
      <trkpt lat="46.63177" lon="5.89105">
        <ele>777.36</ele>
        <time>2019-06-16T07:16:23Z</time>
      </trkpt>
      <trkpt lat="46.6318" lon="5.89111">
        <ele>777.84</ele>
        <time>2019-06-16T07:16:27Z</time>
      </trkpt>
      <trkpt lat="46.63193" lon="5.8913">
        <ele>777.36</ele>
        <time>2019-06-16T07:16:41Z</time>
      </trkpt>
      <trkpt lat="46.63204" lon="5.89143">
        <ele>776.88</ele>
        <time>2019-06-16T07:16:54Z</time>
      </trkpt>
      <trkpt lat="46.63217" lon="5.89155">
        <ele>776.4</ele>
        <time>2019-06-16T07:17:06Z</time>
      </trkpt>
      <trkpt lat="46.63218" lon="5.89156">
        <ele>776.4</ele>
        <time>2019-06-16T07:17:07Z</time>
      </trkpt>
      <trkpt lat="46.63233" lon="5.89167">
        <ele>776.88</ele>
        <time>2019-06-16T07:17:22Z</time>
      </trkpt>
      <trkpt lat="46.63234" lon="5.89168">
        <ele>776.88</ele>
        <time>2019-06-16T07:17:42Z</time>
      </trkpt>
      <trkpt lat="46.63241" lon="5.89172">
        <ele>777.36</ele>
        <time>2019-06-16T07:17:53Z</time>
      </trkpt>
      <trkpt lat="46.63242" lon="5.89173">
        <ele>777.36</ele>
        <time>2019-06-16T07:17:54Z</time>
      </trkpt>
      <trkpt lat="46.63249" lon="5.89184">
        <ele>777.36</ele>
        <time>2019-06-16T07:18:03Z</time>
      </trkpt>
      <trkpt lat="46.63253" lon="5.8921">
        <ele>776.88</ele>
        <time>2019-06-16T07:18:18Z</time>
      </trkpt>
      <trkpt lat="46.63254" lon="5.89216">
        <ele>776.88</ele>
        <time>2019-06-16T07:18:22Z</time>
      </trkpt>
      <trkpt lat="46.63256" lon="5.89223">
        <ele>776.4</ele>
        <time>2019-06-16T07:18:26Z</time>
      </trkpt>
      <trkpt lat="46.63258" lon="5.89234">
        <ele>776.88</ele>
        <time>2019-06-16T07:18:32Z</time>
      </trkpt>
      <trkpt lat="46.63267" lon="5.89257">
        <ele>776.4</ele>
        <time>2019-06-16T07:18:46Z</time>
      </trkpt>
      <trkpt lat="46.6328" lon="5.89277">
        <ele>775.92</ele>
        <time>2019-06-16T07:19:00Z</time>
      </trkpt>
      <trkpt lat="46.63292" lon="5.89292">
        <ele>775.92</ele>
        <time>2019-06-16T07:19:14Z</time>
      </trkpt>
      <trkpt lat="46.63296" lon="5.89297">
        <ele>775.92</ele>
        <time>2019-06-16T07:19:19Z</time>
      </trkpt>
      <trkpt lat="46.63315" lon="5.89307">
        <ele>774.96</ele>
        <time>2019-06-16T07:19:36Z</time>
      </trkpt>
      <trkpt lat="46.63335" lon="5.89313">
        <ele>774.48</ele>
        <time>2019-06-16T07:19:53Z</time>
      </trkpt>
      <trkpt lat="46.63346" lon="5.89324">
        <ele>774.96</ele>
        <time>2019-06-16T07:20:08Z</time>
      </trkpt>
      <trkpt lat="46.63353" lon="5.89336">
        <ele>774.48</ele>
        <time>2019-06-16T07:20:23Z</time>
      </trkpt>
      <trkpt lat="46.63353" lon="5.89337">
        <ele>774.48</ele>
        <time>2019-06-16T07:20:24Z</time>
      </trkpt>
      <trkpt lat="46.63358" lon="5.8935">
        <ele>774</ele>
        <time>2019-06-16T07:20:32Z</time>
      </trkpt>
      <trkpt lat="46.6337" lon="5.89376">
        <ele>773.52</ele>
        <time>2019-06-16T07:20:48Z</time>
      </trkpt>
      <trkpt lat="46.63377" lon="5.894">
        <ele>773.52</ele>
        <time>2019-06-16T07:21:02Z</time>
      </trkpt>
      <trkpt lat="46.63386" lon="5.89424">
        <ele>773.52</ele>
        <time>2019-06-16T07:21:16Z</time>
      </trkpt>
      <trkpt lat="46.63386" lon="5.89425">
        <ele>773.04</ele>
        <time>2019-06-16T07:21:17Z</time>
      </trkpt>
      <trkpt lat="46.63388" lon="5.89431">
        <ele>773.52</ele>
        <time>2019-06-16T07:21:20Z</time>
      </trkpt>
      <trkpt lat="46.63395" lon="5.89454">
        <ele>773.04</ele>
        <time>2019-06-16T07:21:34Z</time>
      </trkpt>
      <trkpt lat="46.63404" lon="5.89481">
        <ele>774.48</ele>
        <time>2019-06-16T07:21:51Z</time>
      </trkpt>
      <trkpt lat="46.63406" lon="5.89486">
        <ele>774.48</ele>
        <time>2019-06-16T07:21:54Z</time>
      </trkpt>
      <trkpt lat="46.63408" lon="5.89496">
        <ele>774.48</ele>
        <time>2019-06-16T07:22:00Z</time>
      </trkpt>
      <trkpt lat="46.63407" lon="5.89514">
        <ele>774.96</ele>
        <time>2019-06-16T07:22:10Z</time>
      </trkpt>
      <trkpt lat="46.63406" lon="5.89525">
        <ele>775.92</ele>
        <time>2019-06-16T07:22:16Z</time>
      </trkpt>
      <trkpt lat="46.63405" lon="5.89533">
        <ele>775.92</ele>
        <time>2019-06-16T07:22:21Z</time>
      </trkpt>
      <trkpt lat="46.63402" lon="5.89545">
        <ele>776.4</ele>
        <time>2019-06-16T07:22:35Z</time>
      </trkpt>
      <trkpt lat="46.63402" lon="5.89547">
        <ele>776.4</ele>
        <time>2019-06-16T07:22:53Z</time>
      </trkpt>
      <trkpt lat="46.63401" lon="5.89548">
        <ele>777.36</ele>
        <time>2019-06-16T07:23:14Z</time>
      </trkpt>
      <trkpt lat="46.63402" lon="5.89548">
        <ele>776.88</ele>
        <time>2019-06-16T07:23:37Z</time>
      </trkpt>
      <trkpt lat="46.63398" lon="5.89572">
        <ele>777.84</ele>
        <time>2019-06-16T07:23:53Z</time>
      </trkpt>
      <trkpt lat="46.63395" lon="5.89589">
        <ele>778.32</ele>
        <time>2019-06-16T07:24:06Z</time>
      </trkpt>
      <trkpt lat="46.63397" lon="5.89615">
        <ele>779.29</ele>
        <time>2019-06-16T07:24:20Z</time>
      </trkpt>
      <trkpt lat="46.63397" lon="5.8962">
        <ele>779.29</ele>
        <time>2019-06-16T07:24:23Z</time>
      </trkpt>
      <trkpt lat="46.63397" lon="5.89625">
        <ele>779.77</ele>
        <time>2019-06-16T07:24:26Z</time>
      </trkpt>
      <trkpt lat="46.634" lon="5.89636">
        <ele>780.25</ele>
        <time>2019-06-16T07:24:34Z</time>
      </trkpt>
      <trkpt lat="46.63412" lon="5.89659">
        <ele>781.21</ele>
        <time>2019-06-16T07:24:49Z</time>
      </trkpt>
      <trkpt lat="46.63422" lon="5.89679">
        <ele>782.17</ele>
        <time>2019-06-16T07:25:03Z</time>
      </trkpt>
      <trkpt lat="46.63428" lon="5.89687">
        <ele>782.65</ele>
        <time>2019-06-16T07:25:09Z</time>
      </trkpt>
      <trkpt lat="46.6344" lon="5.89706">
        <ele>782.17</ele>
        <time>2019-06-16T07:25:21Z</time>
      </trkpt>
      <trkpt lat="46.63452" lon="5.89717">
        <ele>782.65</ele>
        <time>2019-06-16T07:25:35Z</time>
      </trkpt>
      <trkpt lat="46.63454" lon="5.89718">
        <ele>782.65</ele>
        <time>2019-06-16T07:25:47Z</time>
      </trkpt>
      <trkpt lat="46.63455" lon="5.8972">
        <ele>782.65</ele>
        <time>2019-06-16T07:26:06Z</time>
      </trkpt>
      <trkpt lat="46.63456" lon="5.8972">
        <ele>782.65</ele>
        <time>2019-06-16T07:26:24Z</time>
      </trkpt>
      <trkpt lat="46.63457" lon="5.8972">
        <ele>782.65</ele>
        <time>2019-06-16T07:26:41Z</time>
      </trkpt>
      <trkpt lat="46.6346" lon="5.89719">
        <ele>783.13</ele>
        <time>2019-06-16T07:26:46Z</time>
      </trkpt>
      <trkpt lat="46.63461" lon="5.89717">
        <ele>783.13</ele>
        <time>2019-06-16T07:26:49Z</time>
      </trkpt>
      <trkpt lat="46.63471" lon="5.89715">
        <ele>784.09</ele>
        <time>2019-06-16T07:27:02Z</time>
      </trkpt>
      <trkpt lat="46.63483" lon="5.8971">
        <ele>785.05</ele>
        <time>2019-06-16T07:27:16Z</time>
      </trkpt>
      <trkpt lat="46.63498" lon="5.89703">
        <ele>786.5</ele>
        <time>2019-06-16T07:27:27Z</time>
      </trkpt>
      <trkpt lat="46.63511" lon="5.897">
        <ele>787.94</ele>
        <time>2019-06-16T07:27:39Z</time>
      </trkpt>
      <trkpt lat="46.63532" lon="5.89697">
        <ele>787.94</ele>
        <time>2019-06-16T07:27:55Z</time>
      </trkpt>
      <trkpt lat="46.63549" lon="5.89694">
        <ele>789.38</ele>
        <time>2019-06-16T07:28:09Z</time>
      </trkpt>
      <trkpt lat="46.63568" lon="5.89698">
        <ele>790.82</ele>
        <time>2019-06-16T07:28:25Z</time>
      </trkpt>
      <trkpt lat="46.63582" lon="5.89698">
        <ele>790.82</ele>
        <time>2019-06-16T07:28:37Z</time>
      </trkpt>
      <trkpt lat="46.63593" lon="5.89697">
        <ele>791.78</ele>
        <time>2019-06-16T07:28:50Z</time>
      </trkpt>
      <trkpt lat="46.63605" lon="5.89697">
        <ele>792.26</ele>
        <time>2019-06-16T07:29:06Z</time>
      </trkpt>
      <trkpt lat="46.63619" lon="5.897">
        <ele>793.22</ele>
        <time>2019-06-16T07:29:17Z</time>
      </trkpt>
      <trkpt lat="46.63644" lon="5.8971">
        <ele>793.22</ele>
        <time>2019-06-16T07:29:32Z</time>
      </trkpt>
      <trkpt lat="46.63653" lon="5.89716">
        <ele>792.74</ele>
        <time>2019-06-16T07:29:39Z</time>
      </trkpt>
      <trkpt lat="46.63668" lon="5.89726">
        <ele>793.22</ele>
        <time>2019-06-16T07:29:53Z</time>
      </trkpt>
      <trkpt lat="46.63679" lon="5.89733">
        <ele>792.74</ele>
        <time>2019-06-16T07:30:08Z</time>
      </trkpt>
      <trkpt lat="46.63683" lon="5.89735">
        <ele>792.26</ele>
        <time>2019-06-16T07:30:23Z</time>
      </trkpt>
      <trkpt lat="46.63691" lon="5.89738">
        <ele>791.78</ele>
        <time>2019-06-16T07:30:29Z</time>
      </trkpt>
      <trkpt lat="46.63694" lon="5.89742">
        <ele>791.78</ele>
        <time>2019-06-16T07:30:32Z</time>
      </trkpt>
      <trkpt lat="46.63696" lon="5.89746">
        <ele>791.3</ele>
        <time>2019-06-16T07:30:36Z</time>
      </trkpt>
      <trkpt lat="46.63706" lon="5.89755">
        <ele>791.3</ele>
        <time>2019-06-16T07:30:48Z</time>
      </trkpt>
      <trkpt lat="46.63708" lon="5.89762">
        <ele>791.3</ele>
        <time>2019-06-16T07:30:53Z</time>
      </trkpt>
      <trkpt lat="46.63722" lon="5.89777">
        <ele>791.3</ele>
        <time>2019-06-16T07:31:07Z</time>
      </trkpt>
      <trkpt lat="46.63736" lon="5.89785">
        <ele>792.74</ele>
        <time>2019-06-16T07:31:21Z</time>
      </trkpt>
      <trkpt lat="46.63742" lon="5.89791">
        <ele>793.22</ele>
        <time>2019-06-16T07:31:25Z</time>
      </trkpt>
      <trkpt lat="46.63746" lon="5.89793">
        <ele>793.22</ele>
        <time>2019-06-16T07:31:28Z</time>
      </trkpt>
      <trkpt lat="46.63749" lon="5.89794">
        <ele>793.22</ele>
        <time>2019-06-16T07:31:30Z</time>
      </trkpt>
      <trkpt lat="46.63757" lon="5.89806">
        <ele>793.71</ele>
        <time>2019-06-16T07:31:38Z</time>
      </trkpt>
      <trkpt lat="46.63759" lon="5.89812">
        <ele>793.22</ele>
        <time>2019-06-16T07:31:41Z</time>
      </trkpt>
      <trkpt lat="46.63762" lon="5.89826">
        <ele>793.22</ele>
        <time>2019-06-16T07:31:55Z</time>
      </trkpt>
      <trkpt lat="46.63765" lon="5.89824">
        <ele>793.22</ele>
        <time>2019-06-16T07:32:07Z</time>
      </trkpt>
      <trkpt lat="46.63766" lon="5.89824">
        <ele>792.74</ele>
        <time>2019-06-16T07:32:25Z</time>
      </trkpt>
      <trkpt lat="46.63766" lon="5.89824">
        <ele>793.22</ele>
        <time>2019-06-16T07:32:46Z</time>
      </trkpt>
      <trkpt lat="46.63766" lon="5.89825">
        <ele>792.26</ele>
        <time>2019-06-16T07:33:11Z</time>
      </trkpt>
      <trkpt lat="46.63763" lon="5.89838">
        <ele>791.78</ele>
        <time>2019-06-16T07:33:23Z</time>
      </trkpt>
      <trkpt lat="46.63762" lon="5.89842">
        <ele>791.3</ele>
        <time>2019-06-16T07:33:26Z</time>
      </trkpt>
      <trkpt lat="46.63759" lon="5.89869">
        <ele>789.86</ele>
        <time>2019-06-16T07:33:41Z</time>
      </trkpt>
      <trkpt lat="46.63755" lon="5.89888">
        <ele>789.38</ele>
        <time>2019-06-16T07:33:53Z</time>
      </trkpt>
      <trkpt lat="46.63751" lon="5.8991">
        <ele>789.86</ele>
        <time>2019-06-16T07:34:06Z</time>
      </trkpt>
      <trkpt lat="46.63747" lon="5.89933">
        <ele>790.34</ele>
        <time>2019-06-16T07:34:18Z</time>
      </trkpt>
      <trkpt lat="46.63747" lon="5.89956">
        <ele>791.3</ele>
        <time>2019-06-16T07:34:30Z</time>
      </trkpt>
      <trkpt lat="46.63748" lon="5.89957">
        <ele>791.3</ele>
        <time>2019-06-16T07:34:32Z</time>
      </trkpt>
      <trkpt lat="46.63754" lon="5.89957">
        <ele>791.78</ele>
        <time>2019-06-16T07:34:38Z</time>
      </trkpt>
      <trkpt lat="46.63768" lon="5.89961">
        <ele>792.74</ele>
        <time>2019-06-16T07:34:53Z</time>
      </trkpt>
      <trkpt lat="46.63782" lon="5.89966">
        <ele>793.71</ele>
        <time>2019-06-16T07:35:06Z</time>
      </trkpt>
      <trkpt lat="46.63798" lon="5.89967">
        <ele>794.67</ele>
        <time>2019-06-16T07:35:18Z</time>
      </trkpt>
      <trkpt lat="46.63809" lon="5.89969">
        <ele>795.15</ele>
        <time>2019-06-16T07:35:30Z</time>
      </trkpt>
      <trkpt lat="46.63818" lon="5.89971">
        <ele>795.63</ele>
        <time>2019-06-16T07:35:42Z</time>
      </trkpt>
      <trkpt lat="46.63829" lon="5.89977">
        <ele>795.63</ele>
        <time>2019-06-16T07:35:53Z</time>
      </trkpt>
      <trkpt lat="46.63836" lon="5.89985">
        <ele>795.63</ele>
        <time>2019-06-16T07:36:00Z</time>
      </trkpt>
      <trkpt lat="46.63852" lon="5.89997">
        <ele>796.11</ele>
        <time>2019-06-16T07:36:14Z</time>
      </trkpt>
      <trkpt lat="46.63867" lon="5.90009">
        <ele>796.59</ele>
        <time>2019-06-16T07:36:28Z</time>
      </trkpt>
      <trkpt lat="46.63882" lon="5.90016">
        <ele>797.55</ele>
        <time>2019-06-16T07:36:41Z</time>
      </trkpt>
      <trkpt lat="46.63887" lon="5.90017">
        <ele>798.03</ele>
        <time>2019-06-16T07:36:46Z</time>
      </trkpt>
      <trkpt lat="46.63908" lon="5.90019">
        <ele>798.99</ele>
        <time>2019-06-16T07:37:02Z</time>
      </trkpt>
      <trkpt lat="46.63925" lon="5.90023">
        <ele>799.95</ele>
        <time>2019-06-16T07:37:16Z</time>
      </trkpt>
      <trkpt lat="46.63932" lon="5.90028">
        <ele>799.95</ele>
        <time>2019-06-16T07:37:24Z</time>
      </trkpt>
      <trkpt lat="46.63938" lon="5.90031">
        <ele>799.95</ele>
        <time>2019-06-16T07:37:30Z</time>
      </trkpt>
      <trkpt lat="46.63953" lon="5.9004">
        <ele>799.95</ele>
        <time>2019-06-16T07:37:43Z</time>
      </trkpt>
      <trkpt lat="46.63968" lon="5.9005">
        <ele>799.47</ele>
        <time>2019-06-16T07:37:57Z</time>
      </trkpt>
      <trkpt lat="46.63983" lon="5.90063">
        <ele>798.03</ele>
        <time>2019-06-16T07:38:10Z</time>
      </trkpt>
      <trkpt lat="46.63986" lon="5.90067">
        <ele>798.03</ele>
        <time>2019-06-16T07:38:13Z</time>
      </trkpt>
      <trkpt lat="46.63999" lon="5.9008">
        <ele>797.07</ele>
        <time>2019-06-16T07:38:24Z</time>
      </trkpt>
      <trkpt lat="46.64012" lon="5.90091">
        <ele>795.63</ele>
        <time>2019-06-16T07:38:36Z</time>
      </trkpt>
      <trkpt lat="46.64015" lon="5.90093">
        <ele>795.63</ele>
        <time>2019-06-16T07:38:39Z</time>
      </trkpt>
      <trkpt lat="46.64024" lon="5.90105">
        <ele>795.63</ele>
        <time>2019-06-16T07:38:48Z</time>
      </trkpt>
      <trkpt lat="46.64034" lon="5.90125">
        <ele>795.15</ele>
        <time>2019-06-16T07:39:01Z</time>
      </trkpt>
      <trkpt lat="46.64041" lon="5.90142">
        <ele>795.15</ele>
        <time>2019-06-16T07:39:13Z</time>
      </trkpt>
      <trkpt lat="46.64047" lon="5.90158">
        <ele>794.67</ele>
        <time>2019-06-16T07:39:24Z</time>
      </trkpt>
      <trkpt lat="46.64054" lon="5.90174">
        <ele>792.74</ele>
        <time>2019-06-16T07:39:36Z</time>
      </trkpt>
      <trkpt lat="46.64061" lon="5.90189">
        <ele>791.78</ele>
        <time>2019-06-16T07:39:49Z</time>
      </trkpt>
      <trkpt lat="46.64066" lon="5.902">
        <ele>791.3</ele>
        <time>2019-06-16T07:40:03Z</time>
      </trkpt>
      <trkpt lat="46.64067" lon="5.90202">
        <ele>791.3</ele>
        <time>2019-06-16T07:40:05Z</time>
      </trkpt>
      <trkpt lat="46.64076" lon="5.90212">
        <ele>789.86</ele>
        <time>2019-06-16T07:40:19Z</time>
      </trkpt>
      <trkpt lat="46.64078" lon="5.9021">
        <ele>789.86</ele>
        <time>2019-06-16T07:40:33Z</time>
      </trkpt>
      <trkpt lat="46.64079" lon="5.90209">
        <ele>789.86</ele>
        <time>2019-06-16T07:41:04Z</time>
      </trkpt>
      <trkpt lat="46.64082" lon="5.90217">
        <ele>788.9</ele>
        <time>2019-06-16T07:41:17Z</time>
      </trkpt>
      <trkpt lat="46.64089" lon="5.90225">
        <ele>785.53</ele>
        <time>2019-06-16T07:41:31Z</time>
      </trkpt>
      <trkpt lat="46.64092" lon="5.90228">
        <ele>784.57</ele>
        <time>2019-06-16T07:41:36Z</time>
      </trkpt>
      <trkpt lat="46.64099" lon="5.90243">
        <ele>781.69</ele>
        <time>2019-06-16T07:41:46Z</time>
      </trkpt>
      <trkpt lat="46.64102" lon="5.90251">
        <ele>781.69</ele>
        <time>2019-06-16T07:41:49Z</time>
      </trkpt>
      <trkpt lat="46.64119" lon="5.90275">
        <ele>778.32</ele>
        <time>2019-06-16T07:42:03Z</time>
      </trkpt>
      <trkpt lat="46.64131" lon="5.90288">
        <ele>775.44</ele>
        <time>2019-06-16T07:42:16Z</time>
      </trkpt>
      <trkpt lat="46.64141" lon="5.90296">
        <ele>773.04</ele>
        <time>2019-06-16T07:42:25Z</time>
      </trkpt>
      <trkpt lat="46.64153" lon="5.90307">
        <ele>770.15</ele>
        <time>2019-06-16T07:42:39Z</time>
      </trkpt>
      <trkpt lat="46.64163" lon="5.90312">
        <ele>768.71</ele>
        <time>2019-06-16T07:42:47Z</time>
      </trkpt>
      <trkpt lat="46.64176" lon="5.90317">
        <ele>767.75</ele>
        <time>2019-06-16T07:42:56Z</time>
      </trkpt>
      <trkpt lat="46.64193" lon="5.90324">
        <ele>765.83</ele>
        <time>2019-06-16T07:43:10Z</time>
      </trkpt>
      <trkpt lat="46.64201" lon="5.9033">
        <ele>765.83</ele>
        <time>2019-06-16T07:43:16Z</time>
      </trkpt>
      <trkpt lat="46.64215" lon="5.90346">
        <ele>765.35</ele>
        <time>2019-06-16T07:43:30Z</time>
      </trkpt>
      <trkpt lat="46.64224" lon="5.90352">
        <ele>764.87</ele>
        <time>2019-06-16T07:43:39Z</time>
      </trkpt>
      <trkpt lat="46.6423" lon="5.90376">
        <ele>763.42</ele>
        <time>2019-06-16T07:43:53Z</time>
      </trkpt>
      <trkpt lat="46.64232" lon="5.90401">
        <ele>761.5</ele>
        <time>2019-06-16T07:44:06Z</time>
      </trkpt>
      <trkpt lat="46.64234" lon="5.90404">
        <ele>761.5</ele>
        <time>2019-06-16T07:44:08Z</time>
      </trkpt>
      <trkpt lat="46.64236" lon="5.90411">
        <ele>760.54</ele>
        <time>2019-06-16T07:44:12Z</time>
      </trkpt>
      <trkpt lat="46.64239" lon="5.90419">
        <ele>759.58</ele>
        <time>2019-06-16T07:44:20Z</time>
      </trkpt>
      <trkpt lat="46.64243" lon="5.90422">
        <ele>759.1</ele>
        <time>2019-06-16T07:44:24Z</time>
      </trkpt>
      <trkpt lat="46.64248" lon="5.90431">
        <ele>758.62</ele>
        <time>2019-06-16T07:44:35Z</time>
      </trkpt>
      <trkpt lat="46.6425" lon="5.90431">
        <ele>758.62</ele>
        <time>2019-06-16T07:44:37Z</time>
      </trkpt>
      <trkpt lat="46.64259" lon="5.90424">
        <ele>758.14</ele>
        <time>2019-06-16T07:44:50Z</time>
      </trkpt>
      <trkpt lat="46.64258" lon="5.90427">
        <ele>758.62</ele>
        <time>2019-06-16T07:45:08Z</time>
      </trkpt>
      <trkpt lat="46.64259" lon="5.90427">
        <ele>758.62</ele>
        <time>2019-06-16T07:45:25Z</time>
      </trkpt>
      <trkpt lat="46.6426" lon="5.90427">
        <ele>758.62</ele>
        <time>2019-06-16T07:45:48Z</time>
      </trkpt>
      <trkpt lat="46.64259" lon="5.90427">
        <ele>758.14</ele>
        <time>2019-06-16T07:45:52Z</time>
      </trkpt>
      <trkpt lat="46.6425" lon="5.90435">
        <ele>758.14</ele>
        <time>2019-06-16T07:46:02Z</time>
      </trkpt>
      <trkpt lat="46.64242" lon="5.9045">
        <ele>757.66</ele>
        <time>2019-06-16T07:46:13Z</time>
      </trkpt>
      <trkpt lat="46.64227" lon="5.90469">
        <ele>757.18</ele>
        <time>2019-06-16T07:46:28Z</time>
      </trkpt>
      <trkpt lat="46.64226" lon="5.90474">
        <ele>757.18</ele>
        <time>2019-06-16T07:46:31Z</time>
      </trkpt>
      <trkpt lat="46.64225" lon="5.90479">
        <ele>756.69</ele>
        <time>2019-06-16T07:46:35Z</time>
      </trkpt>
      <trkpt lat="46.64219" lon="5.90492">
        <ele>755.73</ele>
        <time>2019-06-16T07:46:45Z</time>
      </trkpt>
      <trkpt lat="46.64216" lon="5.90498">
        <ele>755.25</ele>
        <time>2019-06-16T07:47:01Z</time>
      </trkpt>
      <trkpt lat="46.64218" lon="5.90494">
        <ele>755.73</ele>
        <time>2019-06-16T07:47:06Z</time>
      </trkpt>
      <trkpt lat="46.64223" lon="5.90482">
        <ele>757.18</ele>
        <time>2019-06-16T07:47:18Z</time>
      </trkpt>
      <trkpt lat="46.64224" lon="5.90482">
        <ele>757.18</ele>
        <time>2019-06-16T07:47:25Z</time>
      </trkpt>
      <trkpt lat="46.64224" lon="5.90473">
        <ele>757.66</ele>
        <time>2019-06-16T07:47:32Z</time>
      </trkpt>
      <trkpt lat="46.64225" lon="5.9047">
        <ele>757.66</ele>
        <time>2019-06-16T07:47:34Z</time>
      </trkpt>
      <trkpt lat="46.64231" lon="5.90456">
        <ele>757.66</ele>
        <time>2019-06-16T07:47:46Z</time>
      </trkpt>
      <trkpt lat="46.64234" lon="5.90451">
        <ele>757.66</ele>
        <time>2019-06-16T07:47:50Z</time>
      </trkpt>
      <trkpt lat="46.64236" lon="5.90447">
        <ele>758.14</ele>
        <time>2019-06-16T07:47:53Z</time>
      </trkpt>
      <trkpt lat="46.64244" lon="5.90431">
        <ele>758.62</ele>
        <time>2019-06-16T07:48:05Z</time>
      </trkpt>
      <trkpt lat="46.64251" lon="5.90426">
        <ele>757.18</ele>
        <time>2019-06-16T07:48:13Z</time>
      </trkpt>
      <trkpt lat="46.64263" lon="5.90412">
        <ele>756.69</ele>
        <time>2019-06-16T07:48:24Z</time>
      </trkpt>
      <trkpt lat="46.64266" lon="5.90408">
        <ele>757.18</ele>
        <time>2019-06-16T07:48:27Z</time>
      </trkpt>
      <trkpt lat="46.64278" lon="5.90396">
        <ele>755.73</ele>
        <time>2019-06-16T07:48:38Z</time>
      </trkpt>
      <trkpt lat="46.64301" lon="5.90387">
        <ele>753.81</ele>
        <time>2019-06-16T07:48:53Z</time>
      </trkpt>
      <trkpt lat="46.64304" lon="5.90386">
        <ele>753.81</ele>
        <time>2019-06-16T07:48:56Z</time>
      </trkpt>
      <trkpt lat="46.64323" lon="5.90384">
        <ele>752.37</ele>
        <time>2019-06-16T07:49:10Z</time>
      </trkpt>
      <trkpt lat="46.64339" lon="5.90387">
        <ele>752.37</ele>
        <time>2019-06-16T07:49:23Z</time>
      </trkpt>
      <trkpt lat="46.64352" lon="5.9039">
        <ele>752.37</ele>
        <time>2019-06-16T07:49:35Z</time>
      </trkpt>
      <trkpt lat="46.64364" lon="5.9039">
        <ele>752.37</ele>
        <time>2019-06-16T07:49:46Z</time>
      </trkpt>
      <trkpt lat="46.64375" lon="5.90398">
        <ele>752.37</ele>
        <time>2019-06-16T07:49:54Z</time>
      </trkpt>
      <trkpt lat="46.64383" lon="5.90419">
        <ele>751.89</ele>
        <time>2019-06-16T07:50:07Z</time>
      </trkpt>
      <trkpt lat="46.64388" lon="5.90433">
        <ele>750.93</ele>
        <time>2019-06-16T07:50:16Z</time>
      </trkpt>
      <trkpt lat="46.64389" lon="5.90442">
        <ele>750.93</ele>
        <time>2019-06-16T07:50:20Z</time>
      </trkpt>
      <trkpt lat="46.6439" lon="5.90445">
        <ele>750.93</ele>
        <time>2019-06-16T07:50:22Z</time>
      </trkpt>
      <trkpt lat="46.64393" lon="5.90463">
        <ele>750.45</ele>
        <time>2019-06-16T07:50:32Z</time>
      </trkpt>
      <trkpt lat="46.64394" lon="5.90469">
        <ele>749.97</ele>
        <time>2019-06-16T07:50:35Z</time>
      </trkpt>
      <trkpt lat="46.64396" lon="5.9049">
        <ele>749.97</ele>
        <time>2019-06-16T07:50:46Z</time>
      </trkpt>
      <trkpt lat="46.64397" lon="5.90512">
        <ele>749.49</ele>
        <time>2019-06-16T07:50:59Z</time>
      </trkpt>
      <trkpt lat="46.64397" lon="5.90523">
        <ele>749.49</ele>
        <time>2019-06-16T07:51:05Z</time>
      </trkpt>
      <trkpt lat="46.64398" lon="5.90527">
        <ele>749</ele>
        <time>2019-06-16T07:51:08Z</time>
      </trkpt>
      <trkpt lat="46.64396" lon="5.90536">
        <ele>749</ele>
        <time>2019-06-16T07:51:13Z</time>
      </trkpt>
      <trkpt lat="46.6439" lon="5.90558">
        <ele>748.52</ele>
        <time>2019-06-16T07:51:26Z</time>
      </trkpt>
      <trkpt lat="46.64389" lon="5.90565">
        <ele>749</ele>
        <time>2019-06-16T07:51:29Z</time>
      </trkpt>
      <trkpt lat="46.64391" lon="5.90576">
        <ele>749</ele>
        <time>2019-06-16T07:51:37Z</time>
      </trkpt>
      <trkpt lat="46.64393" lon="5.90592">
        <ele>748.52</ele>
        <time>2019-06-16T07:51:45Z</time>
      </trkpt>
      <trkpt lat="46.64393" lon="5.90599">
        <ele>748.04</ele>
        <time>2019-06-16T07:51:48Z</time>
      </trkpt>
      <trkpt lat="46.64394" lon="5.90603">
        <ele>748.52</ele>
        <time>2019-06-16T07:51:52Z</time>
      </trkpt>
      <trkpt lat="46.64398" lon="5.90608">
        <ele>748.52</ele>
        <time>2019-06-16T07:51:56Z</time>
      </trkpt>
      <trkpt lat="46.64402" lon="5.90623">
        <ele>748.52</ele>
        <time>2019-06-16T07:52:04Z</time>
      </trkpt>
      <trkpt lat="46.64403" lon="5.9063">
        <ele>748.04</ele>
        <time>2019-06-16T07:52:08Z</time>
      </trkpt>
      <trkpt lat="46.6441" lon="5.90646">
        <ele>748.04</ele>
        <time>2019-06-16T07:52:19Z</time>
      </trkpt>
      <trkpt lat="46.6441" lon="5.90647">
        <ele>748.04</ele>
        <time>2019-06-16T07:52:20Z</time>
      </trkpt>
      <trkpt lat="46.64411" lon="5.90651">
        <ele>748.04</ele>
        <time>2019-06-16T07:52:23Z</time>
      </trkpt>
      <trkpt lat="46.64416" lon="5.90671">
        <ele>748.04</ele>
        <time>2019-06-16T07:52:36Z</time>
      </trkpt>
      <trkpt lat="46.64419" lon="5.90691">
        <ele>748.04</ele>
        <time>2019-06-16T07:52:48Z</time>
      </trkpt>
      <trkpt lat="46.64417" lon="5.907">
        <ele>748.52</ele>
        <time>2019-06-16T07:53:03Z</time>
      </trkpt>
      <trkpt lat="46.64418" lon="5.90701">
        <ele>748.52</ele>
        <time>2019-06-16T07:53:20Z</time>
      </trkpt>
      <trkpt lat="46.64416" lon="5.90701">
        <ele>748.04</ele>
        <time>2019-06-16T07:53:34Z</time>
      </trkpt>
      <trkpt lat="46.64416" lon="5.90703">
        <ele>748.52</ele>
        <time>2019-06-16T07:54:04Z</time>
      </trkpt>
      <trkpt lat="46.64416" lon="5.90703">
        <ele>748.52</ele>
        <time>2019-06-16T07:54:29Z</time>
      </trkpt>
      <trkpt lat="46.64416" lon="5.90704">
        <ele>748.52</ele>
        <time>2019-06-16T07:54:56Z</time>
      </trkpt>
      <trkpt lat="46.64417" lon="5.90703">
        <ele>749</ele>
        <time>2019-06-16T07:55:20Z</time>
      </trkpt>
      <trkpt lat="46.64417" lon="5.90703">
        <ele>748.52</ele>
        <time>2019-06-16T07:55:49Z</time>
      </trkpt>
      <trkpt lat="46.64416" lon="5.90704">
        <ele>748.52</ele>
        <time>2019-06-16T07:56:18Z</time>
      </trkpt>
      <trkpt lat="46.64416" lon="5.90714">
        <ele>749</ele>
        <time>2019-06-16T07:56:32Z</time>
      </trkpt>
      <trkpt lat="46.6442" lon="5.90721">
        <ele>748.52</ele>
        <time>2019-06-16T07:56:38Z</time>
      </trkpt>
      <trkpt lat="46.64422" lon="5.90735">
        <ele>748.52</ele>
        <time>2019-06-16T07:56:45Z</time>
      </trkpt>
      <trkpt lat="46.64419" lon="5.90748">
        <ele>748.52</ele>
        <time>2019-06-16T07:56:52Z</time>
      </trkpt>
      <trkpt lat="46.64419" lon="5.90761">
        <ele>749</ele>
        <time>2019-06-16T07:56:58Z</time>
      </trkpt>
      <trkpt lat="46.64423" lon="5.90785">
        <ele>748.52</ele>
        <time>2019-06-16T07:57:11Z</time>
      </trkpt>
      <trkpt lat="46.64424" lon="5.90786">
        <ele>749</ele>
        <time>2019-06-16T07:57:12Z</time>
      </trkpt>
      <trkpt lat="46.64423" lon="5.90804">
        <ele>748.52</ele>
        <time>2019-06-16T07:57:20Z</time>
      </trkpt>
      <trkpt lat="46.64425" lon="5.90813">
        <ele>748.52</ele>
        <time>2019-06-16T07:57:31Z</time>
      </trkpt>
      <trkpt lat="46.64428" lon="5.90835">
        <ele>748.52</ele>
        <time>2019-06-16T07:57:42Z</time>
      </trkpt>
      <trkpt lat="46.64429" lon="5.90846">
        <ele>748.52</ele>
        <time>2019-06-16T07:57:48Z</time>
      </trkpt>
      <trkpt lat="46.64432" lon="5.9086">
        <ele>749.49</ele>
        <time>2019-06-16T07:57:56Z</time>
      </trkpt>
      <trkpt lat="46.64435" lon="5.90876">
        <ele>749.49</ele>
        <time>2019-06-16T07:58:09Z</time>
      </trkpt>
      <trkpt lat="46.64436" lon="5.90879">
        <ele>749.97</ele>
        <time>2019-06-16T07:58:11Z</time>
      </trkpt>
      <trkpt lat="46.64439" lon="5.90896">
        <ele>749.49</ele>
        <time>2019-06-16T07:58:24Z</time>
      </trkpt>
      <trkpt lat="46.6444" lon="5.90898">
        <ele>749</ele>
        <time>2019-06-16T07:58:27Z</time>
      </trkpt>
      <trkpt lat="46.64441" lon="5.90906">
        <ele>749.49</ele>
        <time>2019-06-16T07:58:31Z</time>
      </trkpt>
      <trkpt lat="46.64445" lon="5.9092">
        <ele>749</ele>
        <time>2019-06-16T07:58:40Z</time>
      </trkpt>
      <trkpt lat="46.64449" lon="5.90935">
        <ele>749.49</ele>
        <time>2019-06-16T07:58:48Z</time>
      </trkpt>
      <trkpt lat="46.6445" lon="5.9094">
        <ele>749.97</ele>
        <time>2019-06-16T07:58:51Z</time>
      </trkpt>
      <trkpt lat="46.64456" lon="5.90955">
        <ele>749.97</ele>
        <time>2019-06-16T07:59:00Z</time>
      </trkpt>
      <trkpt lat="46.6446" lon="5.90979">
        <ele>749.49</ele>
        <time>2019-06-16T07:59:13Z</time>
      </trkpt>
      <trkpt lat="46.64461" lon="5.90983">
        <ele>749.49</ele>
        <time>2019-06-16T07:59:15Z</time>
      </trkpt>
      <trkpt lat="46.64465" lon="5.90994">
        <ele>749.97</ele>
        <time>2019-06-16T07:59:21Z</time>
      </trkpt>
      <trkpt lat="46.6447" lon="5.91012">
        <ele>749.97</ele>
        <time>2019-06-16T07:59:32Z</time>
      </trkpt>
      <trkpt lat="46.64472" lon="5.91016">
        <ele>749.97</ele>
        <time>2019-06-16T07:59:35Z</time>
      </trkpt>
      <trkpt lat="46.64477" lon="5.91036">
        <ele>749.97</ele>
        <time>2019-06-16T07:59:48Z</time>
      </trkpt>
      <trkpt lat="46.6448" lon="5.91044">
        <ele>749.97</ele>
        <time>2019-06-16T07:59:53Z</time>
      </trkpt>
      <trkpt lat="46.64485" lon="5.91066">
        <ele>750.45</ele>
        <time>2019-06-16T08:00:06Z</time>
      </trkpt>
      <trkpt lat="46.64488" lon="5.91085">
        <ele>749.97</ele>
        <time>2019-06-16T08:00:16Z</time>
      </trkpt>
      <trkpt lat="46.64494" lon="5.91108">
        <ele>749.97</ele>
        <time>2019-06-16T08:00:29Z</time>
      </trkpt>
      <trkpt lat="46.64497" lon="5.91123">
        <ele>749.97</ele>
        <time>2019-06-16T08:00:38Z</time>
      </trkpt>
      <trkpt lat="46.64502" lon="5.9114">
        <ele>749.97</ele>
        <time>2019-06-16T08:00:48Z</time>
      </trkpt>
      <trkpt lat="46.64504" lon="5.91153">
        <ele>750.45</ele>
        <time>2019-06-16T08:00:55Z</time>
      </trkpt>
      <trkpt lat="46.64507" lon="5.91179">
        <ele>750.45</ele>
        <time>2019-06-16T08:01:10Z</time>
      </trkpt>
      <trkpt lat="46.64508" lon="5.91209">
        <ele>750.45</ele>
        <time>2019-06-16T08:01:25Z</time>
      </trkpt>
      <trkpt lat="46.64508" lon="5.91211">
        <ele>750.45</ele>
        <time>2019-06-16T08:01:26Z</time>
      </trkpt>
      <trkpt lat="46.64506" lon="5.91224">
        <ele>750.45</ele>
        <time>2019-06-16T08:01:34Z</time>
      </trkpt>
      <trkpt lat="46.64504" lon="5.91242">
        <ele>750.45</ele>
        <time>2019-06-16T08:01:44Z</time>
      </trkpt>
      <trkpt lat="46.64503" lon="5.91254">
        <ele>750.45</ele>
        <time>2019-06-16T08:01:50Z</time>
      </trkpt>
      <trkpt lat="46.645" lon="5.91276">
        <ele>750.93</ele>
        <time>2019-06-16T08:02:02Z</time>
      </trkpt>
      <trkpt lat="46.645" lon="5.91278">
        <ele>750.93</ele>
        <time>2019-06-16T08:02:03Z</time>
      </trkpt>
      <trkpt lat="46.64499" lon="5.91295">
        <ele>751.89</ele>
        <time>2019-06-16T08:02:13Z</time>
      </trkpt>
      <trkpt lat="46.64497" lon="5.91309">
        <ele>750.93</ele>
        <time>2019-06-16T08:02:20Z</time>
      </trkpt>
      <trkpt lat="46.64501" lon="5.91331">
        <ele>750.45</ele>
        <time>2019-06-16T08:02:33Z</time>
      </trkpt>
      <trkpt lat="46.64502" lon="5.9134">
        <ele>750.45</ele>
        <time>2019-06-16T08:02:40Z</time>
      </trkpt>
      <trkpt lat="46.64519" lon="5.9136">
        <ele>750.45</ele>
        <time>2019-06-16T08:02:57Z</time>
      </trkpt>
      <trkpt lat="46.64533" lon="5.91377">
        <ele>750.45</ele>
        <time>2019-06-16T08:03:10Z</time>
      </trkpt>
      <trkpt lat="46.64541" lon="5.91386">
        <ele>750.45</ele>
        <time>2019-06-16T08:03:17Z</time>
      </trkpt>
      <trkpt lat="46.64553" lon="5.91402">
        <ele>750.93</ele>
        <time>2019-06-16T08:03:31Z</time>
      </trkpt>
      <trkpt lat="46.64569" lon="5.91417">
        <ele>750.93</ele>
        <time>2019-06-16T08:03:45Z</time>
      </trkpt>
      <trkpt lat="46.64583" lon="5.91427">
        <ele>751.41</ele>
        <time>2019-06-16T08:03:57Z</time>
      </trkpt>
      <trkpt lat="46.64598" lon="5.91438">
        <ele>751.41</ele>
        <time>2019-06-16T08:04:10Z</time>
      </trkpt>
      <trkpt lat="46.64612" lon="5.91449">
        <ele>751.41</ele>
        <time>2019-06-16T08:04:23Z</time>
      </trkpt>
      <trkpt lat="46.64628" lon="5.91463">
        <ele>751.89</ele>
        <time>2019-06-16T08:04:37Z</time>
      </trkpt>
      <trkpt lat="46.6464" lon="5.91481">
        <ele>752.37</ele>
        <time>2019-06-16T08:04:50Z</time>
      </trkpt>
      <trkpt lat="46.64644" lon="5.91501">
        <ele>752.85</ele>
        <time>2019-06-16T08:05:04Z</time>
      </trkpt>
      <trkpt lat="46.64646" lon="5.91527">
        <ele>752.85</ele>
        <time>2019-06-16T08:05:18Z</time>
      </trkpt>
      <trkpt lat="46.64645" lon="5.91541">
        <ele>752.37</ele>
        <time>2019-06-16T08:05:25Z</time>
      </trkpt>
      <trkpt lat="46.64644" lon="5.9155">
        <ele>752.85</ele>
        <time>2019-06-16T08:05:31Z</time>
      </trkpt>
      <trkpt lat="46.64645" lon="5.91571">
        <ele>752.85</ele>
        <time>2019-06-16T08:05:43Z</time>
      </trkpt>
      <trkpt lat="46.64646" lon="5.91584">
        <ele>753.33</ele>
        <time>2019-06-16T08:05:50Z</time>
      </trkpt>
      <trkpt lat="46.64647" lon="5.91599">
        <ele>753.81</ele>
        <time>2019-06-16T08:06:04Z</time>
      </trkpt>
      <trkpt lat="46.64641" lon="5.91621">
        <ele>753.81</ele>
        <time>2019-06-16T08:06:17Z</time>
      </trkpt>
      <trkpt lat="46.64639" lon="5.91629">
        <ele>753.81</ele>
        <time>2019-06-16T08:06:21Z</time>
      </trkpt>
      <trkpt lat="46.64632" lon="5.91651">
        <ele>752.85</ele>
        <time>2019-06-16T08:06:35Z</time>
      </trkpt>
      <trkpt lat="46.64622" lon="5.91669">
        <ele>752.85</ele>
        <time>2019-06-16T08:06:48Z</time>
      </trkpt>
      <trkpt lat="46.6462" lon="5.91672">
        <ele>753.33</ele>
        <time>2019-06-16T08:06:50Z</time>
      </trkpt>
      <trkpt lat="46.64618" lon="5.91675">
        <ele>753.33</ele>
        <time>2019-06-16T08:06:52Z</time>
      </trkpt>
      <trkpt lat="46.64611" lon="5.91688">
        <ele>752.37</ele>
        <time>2019-06-16T08:07:00Z</time>
      </trkpt>
      <trkpt lat="46.64609" lon="5.91692">
        <ele>752.37</ele>
        <time>2019-06-16T08:07:02Z</time>
      </trkpt>
      <trkpt lat="46.64603" lon="5.91701">
        <ele>752.85</ele>
        <time>2019-06-16T08:07:09Z</time>
      </trkpt>
      <trkpt lat="46.64591" lon="5.9172">
        <ele>753.33</ele>
        <time>2019-06-16T08:07:21Z</time>
      </trkpt>
      <trkpt lat="46.64587" lon="5.91726">
        <ele>753.81</ele>
        <time>2019-06-16T08:07:26Z</time>
      </trkpt>
      <trkpt lat="46.64578" lon="5.91741">
        <ele>753.81</ele>
        <time>2019-06-16T08:07:38Z</time>
      </trkpt>
      <trkpt lat="46.64571" lon="5.9175">
        <ele>754.29</ele>
        <time>2019-06-16T08:07:50Z</time>
      </trkpt>
      <trkpt lat="46.6456" lon="5.91762">
        <ele>754.29</ele>
        <time>2019-06-16T08:08:00Z</time>
      </trkpt>
      <trkpt lat="46.64555" lon="5.91767">
        <ele>754.77</ele>
        <time>2019-06-16T08:08:04Z</time>
      </trkpt>
      <trkpt lat="46.6455" lon="5.91778">
        <ele>755.73</ele>
        <time>2019-06-16T08:08:12Z</time>
      </trkpt>
      <trkpt lat="46.64543" lon="5.91795">
        <ele>757.66</ele>
        <time>2019-06-16T08:08:24Z</time>
      </trkpt>
      <trkpt lat="46.64534" lon="5.91808">
        <ele>758.62</ele>
        <time>2019-06-16T08:08:36Z</time>
      </trkpt>
      <trkpt lat="46.64532" lon="5.91808">
        <ele>759.1</ele>
        <time>2019-06-16T08:08:47Z</time>
      </trkpt>
      <trkpt lat="46.64532" lon="5.91808">
        <ele>759.1</ele>
        <time>2019-06-16T08:09:09Z</time>
      </trkpt>
      <trkpt lat="46.64527" lon="5.91813">
        <ele>759.58</ele>
        <time>2019-06-16T08:09:21Z</time>
      </trkpt>
      <trkpt lat="46.64526" lon="5.91814">
        <ele>759.58</ele>
        <time>2019-06-16T08:09:23Z</time>
      </trkpt>
      <trkpt lat="46.64522" lon="5.91815">
        <ele>759.1</ele>
        <time>2019-06-16T08:09:27Z</time>
      </trkpt>
      <trkpt lat="46.64518" lon="5.91818">
        <ele>759.58</ele>
        <time>2019-06-16T08:09:40Z</time>
      </trkpt>
      <trkpt lat="46.64518" lon="5.91819">
        <ele>759.58</ele>
        <time>2019-06-16T08:10:00Z</time>
      </trkpt>
      <trkpt lat="46.64519" lon="5.91817">
        <ele>759.58</ele>
        <time>2019-06-16T08:10:10Z</time>
      </trkpt>
      <trkpt lat="46.64527" lon="5.91812">
        <ele>759.1</ele>
        <time>2019-06-16T08:10:21Z</time>
      </trkpt>
      <trkpt lat="46.64528" lon="5.9181">
        <ele>759.58</ele>
        <time>2019-06-16T08:10:47Z</time>
      </trkpt>
      <trkpt lat="46.64527" lon="5.91808">
        <ele>759.58</ele>
        <time>2019-06-16T08:11:15Z</time>
      </trkpt>
      <trkpt lat="46.64526" lon="5.91807">
        <ele>759.1</ele>
        <time>2019-06-16T08:11:39Z</time>
      </trkpt>
      <trkpt lat="46.64525" lon="5.91809">
        <ele>759.1</ele>
        <time>2019-06-16T08:12:05Z</time>
      </trkpt>
      <trkpt lat="46.64524" lon="5.91809">
        <ele>759.1</ele>
        <time>2019-06-16T08:12:34Z</time>
      </trkpt>
      <trkpt lat="46.64525" lon="5.91807">
        <ele>759.1</ele>
        <time>2019-06-16T08:13:06Z</time>
      </trkpt>
      <trkpt lat="46.64526" lon="5.91807">
        <ele>759.58</ele>
        <time>2019-06-16T08:13:34Z</time>
      </trkpt>
      <trkpt lat="46.64527" lon="5.91807">
        <ele>759.58</ele>
        <time>2019-06-16T08:13:59Z</time>
      </trkpt>
      <trkpt lat="46.64525" lon="5.91817">
        <ele>759.58</ele>
        <time>2019-06-16T08:14:12Z</time>
      </trkpt>
      <trkpt lat="46.64525" lon="5.91826">
        <ele>760.06</ele>
        <time>2019-06-16T08:14:27Z</time>
      </trkpt>
      <trkpt lat="46.64525" lon="5.91826">
        <ele>759.58</ele>
        <time>2019-06-16T08:14:58Z</time>
      </trkpt>
      <trkpt lat="46.64524" lon="5.91827">
        <ele>759.1</ele>
        <time>2019-06-16T08:15:05Z</time>
      </trkpt>
      <trkpt lat="46.64524" lon="5.91832">
        <ele>759.1</ele>
        <time>2019-06-16T08:15:08Z</time>
      </trkpt>
      <trkpt lat="46.64522" lon="5.91836">
        <ele>759.1</ele>
        <time>2019-06-16T08:15:12Z</time>
      </trkpt>
      <trkpt lat="46.64517" lon="5.91859">
        <ele>759.58</ele>
        <time>2019-06-16T08:15:24Z</time>
      </trkpt>
      <trkpt lat="46.64517" lon="5.91872">
        <ele>760.06</ele>
        <time>2019-06-16T08:15:29Z</time>
      </trkpt>
      <trkpt lat="46.64508" lon="5.9189">
        <ele>759.1</ele>
        <time>2019-06-16T08:15:39Z</time>
      </trkpt>
      <trkpt lat="46.645" lon="5.91903">
        <ele>759.1</ele>
        <time>2019-06-16T08:15:47Z</time>
      </trkpt>
      <trkpt lat="46.64494" lon="5.91915">
        <ele>759.58</ele>
        <time>2019-06-16T08:15:54Z</time>
      </trkpt>
      <trkpt lat="46.64484" lon="5.91934">
        <ele>759.58</ele>
        <time>2019-06-16T08:16:06Z</time>
      </trkpt>
      <trkpt lat="46.64483" lon="5.91936">
        <ele>759.58</ele>
        <time>2019-06-16T08:16:07Z</time>
      </trkpt>
      <trkpt lat="46.6448" lon="5.91941">
        <ele>759.58</ele>
        <time>2019-06-16T08:16:10Z</time>
      </trkpt>
      <trkpt lat="46.64473" lon="5.91956">
        <ele>760.54</ele>
        <time>2019-06-16T08:16:19Z</time>
      </trkpt>
      <trkpt lat="46.64465" lon="5.91968">
        <ele>760.54</ele>
        <time>2019-06-16T08:16:27Z</time>
      </trkpt>
      <trkpt lat="46.6445" lon="5.91964">
        <ele>759.58</ele>
        <time>2019-06-16T08:16:39Z</time>
      </trkpt>
      <trkpt lat="46.64439" lon="5.9196">
        <ele>759.1</ele>
        <time>2019-06-16T08:16:50Z</time>
      </trkpt>
      <trkpt lat="46.64427" lon="5.91946">
        <ele>759.1</ele>
        <time>2019-06-16T08:17:02Z</time>
      </trkpt>
      <trkpt lat="46.64414" lon="5.91928">
        <ele>759.1</ele>
        <time>2019-06-16T08:17:14Z</time>
      </trkpt>
      <trkpt lat="46.64405" lon="5.91923">
        <ele>758.62</ele>
        <time>2019-06-16T08:17:22Z</time>
      </trkpt>
      <trkpt lat="46.64394" lon="5.91912">
        <ele>759.1</ele>
        <time>2019-06-16T08:17:34Z</time>
      </trkpt>
      <trkpt lat="46.64382" lon="5.91891">
        <ele>759.58</ele>
        <time>2019-06-16T08:17:48Z</time>
      </trkpt>
      <trkpt lat="46.64373" lon="5.91883">
        <ele>759.58</ele>
        <time>2019-06-16T08:17:59Z</time>
      </trkpt>
      <trkpt lat="46.64372" lon="5.91883">
        <ele>760.06</ele>
        <time>2019-06-16T08:18:02Z</time>
      </trkpt>
      <trkpt lat="46.64358" lon="5.91875">
        <ele>760.06</ele>
        <time>2019-06-16T08:18:13Z</time>
      </trkpt>
      <trkpt lat="46.6435" lon="5.91869">
        <ele>760.06</ele>
        <time>2019-06-16T08:18:28Z</time>
      </trkpt>
      <trkpt lat="46.64346" lon="5.91865">
        <ele>760.06</ele>
        <time>2019-06-16T08:18:32Z</time>
      </trkpt>
      <trkpt lat="46.64339" lon="5.91858">
        <ele>759.58</ele>
        <time>2019-06-16T08:18:39Z</time>
      </trkpt>
      <trkpt lat="46.64333" lon="5.91864">
        <ele>759.1</ele>
        <time>2019-06-16T08:18:48Z</time>
      </trkpt>
      <trkpt lat="46.64321" lon="5.91858">
        <ele>759.58</ele>
        <time>2019-06-16T08:18:57Z</time>
      </trkpt>
      <trkpt lat="46.64302" lon="5.91846">
        <ele>759.1</ele>
        <time>2019-06-16T08:19:09Z</time>
      </trkpt>
      <trkpt lat="46.64299" lon="5.91844">
        <ele>759.1</ele>
        <time>2019-06-16T08:19:12Z</time>
      </trkpt>
      <trkpt lat="46.64297" lon="5.91842">
        <ele>759.1</ele>
        <time>2019-06-16T08:19:14Z</time>
      </trkpt>
      <trkpt lat="46.64287" lon="5.91832">
        <ele>759.58</ele>
        <time>2019-06-16T08:19:25Z</time>
      </trkpt>
      <trkpt lat="46.6428" lon="5.91821">
        <ele>758.62</ele>
        <time>2019-06-16T08:19:37Z</time>
      </trkpt>
      <trkpt lat="46.64273" lon="5.91806">
        <ele>757.66</ele>
        <time>2019-06-16T08:19:48Z</time>
      </trkpt>
      <trkpt lat="46.64265" lon="5.91794">
        <ele>758.14</ele>
        <time>2019-06-16T08:19:57Z</time>
      </trkpt>
      <trkpt lat="46.64256" lon="5.91779">
        <ele>757.18</ele>
        <time>2019-06-16T08:20:07Z</time>
      </trkpt>
      <trkpt lat="46.64253" lon="5.91772">
        <ele>756.21</ele>
        <time>2019-06-16T08:20:13Z</time>
      </trkpt>
      <trkpt lat="46.6425" lon="5.91768">
        <ele>756.21</ele>
        <time>2019-06-16T08:20:16Z</time>
      </trkpt>
      <trkpt lat="46.64237" lon="5.91755">
        <ele>755.73</ele>
        <time>2019-06-16T08:20:28Z</time>
      </trkpt>
      <trkpt lat="46.64235" lon="5.91752">
        <ele>755.73</ele>
        <time>2019-06-16T08:20:31Z</time>
      </trkpt>
      <trkpt lat="46.64228" lon="5.91741">
        <ele>754.29</ele>
        <time>2019-06-16T08:20:40Z</time>
      </trkpt>
      <trkpt lat="46.64226" lon="5.9174">
        <ele>754.29</ele>
        <time>2019-06-16T08:20:42Z</time>
      </trkpt>
      <trkpt lat="46.64217" lon="5.91727">
        <ele>753.81</ele>
        <time>2019-06-16T08:20:52Z</time>
      </trkpt>
      <trkpt lat="46.64213" lon="5.9172">
        <ele>753.33</ele>
        <time>2019-06-16T08:20:59Z</time>
      </trkpt>
      <trkpt lat="46.64207" lon="5.91707">
        <ele>752.85</ele>
        <time>2019-06-16T08:21:09Z</time>
      </trkpt>
      <trkpt lat="46.64198" lon="5.91699">
        <ele>753.33</ele>
        <time>2019-06-16T08:21:20Z</time>
      </trkpt>
      <trkpt lat="46.64192" lon="5.91698">
        <ele>754.29</ele>
        <time>2019-06-16T08:21:29Z</time>
      </trkpt>
      <trkpt lat="46.64188" lon="5.91694">
        <ele>754.29</ele>
        <time>2019-06-16T08:21:33Z</time>
      </trkpt>
      <trkpt lat="46.64176" lon="5.91679">
        <ele>755.73</ele>
        <time>2019-06-16T08:21:45Z</time>
      </trkpt>
      <trkpt lat="46.64175" lon="5.91677">
        <ele>756.69</ele>
        <time>2019-06-16T08:21:48Z</time>
      </trkpt>
      <trkpt lat="46.64163" lon="5.91659">
        <ele>758.62</ele>
        <time>2019-06-16T08:22:00Z</time>
      </trkpt>
      <trkpt lat="46.64154" lon="5.91649">
        <ele>759.58</ele>
        <time>2019-06-16T08:22:11Z</time>
      </trkpt>
      <trkpt lat="46.64148" lon="5.91642">
        <ele>760.06</ele>
        <time>2019-06-16T08:22:18Z</time>
      </trkpt>
      <trkpt lat="46.64142" lon="5.91637">
        <ele>760.54</ele>
        <time>2019-06-16T08:22:24Z</time>
      </trkpt>
      <trkpt lat="46.6414" lon="5.91637">
        <ele>760.54</ele>
        <time>2019-06-16T08:22:26Z</time>
      </trkpt>
      <trkpt lat="46.64138" lon="5.91637">
        <ele>760.54</ele>
        <time>2019-06-16T08:22:28Z</time>
      </trkpt>
      <trkpt lat="46.64126" lon="5.91623">
        <ele>761.02</ele>
        <time>2019-06-16T08:22:40Z</time>
      </trkpt>
      <trkpt lat="46.64121" lon="5.9162">
        <ele>761.98</ele>
        <time>2019-06-16T08:22:45Z</time>
      </trkpt>
      <trkpt lat="46.64111" lon="5.91605">
        <ele>761.98</ele>
        <time>2019-06-16T08:22:56Z</time>
      </trkpt>
      <trkpt lat="46.64108" lon="5.91599">
        <ele>761.98</ele>
        <time>2019-06-16T08:23:02Z</time>
      </trkpt>
      <trkpt lat="46.64099" lon="5.91588">
        <ele>762.46</ele>
        <time>2019-06-16T08:23:12Z</time>
      </trkpt>
      <trkpt lat="46.64091" lon="5.91578">
        <ele>762.46</ele>
        <time>2019-06-16T08:23:18Z</time>
      </trkpt>
      <trkpt lat="46.6408" lon="5.91567">
        <ele>762.46</ele>
        <time>2019-06-16T08:23:29Z</time>
      </trkpt>
      <trkpt lat="46.64067" lon="5.91557">
        <ele>761.98</ele>
        <time>2019-06-16T08:23:42Z</time>
      </trkpt>
      <trkpt lat="46.6406" lon="5.91553">
        <ele>761.98</ele>
        <time>2019-06-16T08:23:50Z</time>
      </trkpt>
      <trkpt lat="46.6405" lon="5.91548">
        <ele>761.5</ele>
        <time>2019-06-16T08:24:00Z</time>
      </trkpt>
      <trkpt lat="46.6404" lon="5.91538">
        <ele>761.02</ele>
        <time>2019-06-16T08:24:11Z</time>
      </trkpt>
      <trkpt lat="46.64028" lon="5.91524">
        <ele>760.54</ele>
        <time>2019-06-16T08:24:23Z</time>
      </trkpt>
      <trkpt lat="46.64024" lon="5.91516">
        <ele>760.06</ele>
        <time>2019-06-16T08:24:27Z</time>
      </trkpt>
      <trkpt lat="46.64013" lon="5.91502">
        <ele>759.58</ele>
        <time>2019-06-16T08:24:38Z</time>
      </trkpt>
      <trkpt lat="46.64007" lon="5.91496">
        <ele>759.58</ele>
        <time>2019-06-16T08:24:48Z</time>
      </trkpt>
      <trkpt lat="46.64004" lon="5.91491">
        <ele>759.58</ele>
        <time>2019-06-16T08:25:05Z</time>
      </trkpt>
      <trkpt lat="46.64001" lon="5.9149">
        <ele>759.58</ele>
        <time>2019-06-16T08:25:20Z</time>
      </trkpt>
      <trkpt lat="46.64001" lon="5.91491">
        <ele>760.06</ele>
        <time>2019-06-16T08:25:47Z</time>
      </trkpt>
      <trkpt lat="46.64002" lon="5.91492">
        <ele>759.58</ele>
        <time>2019-06-16T08:26:07Z</time>
      </trkpt>
      <trkpt lat="46.64001" lon="5.91491">
        <ele>760.06</ele>
        <time>2019-06-16T08:26:30Z</time>
      </trkpt>
      <trkpt lat="46.64" lon="5.91493">
        <ele>760.06</ele>
        <time>2019-06-16T08:26:57Z</time>
      </trkpt>
      <trkpt lat="46.64002" lon="5.91493">
        <ele>760.54</ele>
        <time>2019-06-16T08:27:24Z</time>
      </trkpt>
      <trkpt lat="46.64001" lon="5.91492">
        <ele>760.06</ele>
        <time>2019-06-16T08:27:26Z</time>
      </trkpt>
      <trkpt lat="46.63994" lon="5.91481">
        <ele>760.54</ele>
        <time>2019-06-16T08:27:35Z</time>
      </trkpt>
      <trkpt lat="46.63993" lon="5.9148">
        <ele>761.02</ele>
        <time>2019-06-16T08:27:38Z</time>
      </trkpt>
      <trkpt lat="46.63981" lon="5.91463">
        <ele>761.98</ele>
        <time>2019-06-16T08:27:48Z</time>
      </trkpt>
      <trkpt lat="46.63974" lon="5.91456">
        <ele>762.94</ele>
        <time>2019-06-16T08:27:56Z</time>
      </trkpt>
      <trkpt lat="46.63971" lon="5.91451">
        <ele>763.42</ele>
        <time>2019-06-16T08:27:59Z</time>
      </trkpt>
      <trkpt lat="46.63965" lon="5.91443">
        <ele>763.42</ele>
        <time>2019-06-16T08:28:04Z</time>
      </trkpt>
      <trkpt lat="46.63958" lon="5.91427">
        <ele>763.9</ele>
        <time>2019-06-16T08:28:11Z</time>
      </trkpt>
      <trkpt lat="46.63948" lon="5.91409">
        <ele>764.87</ele>
        <time>2019-06-16T08:28:21Z</time>
      </trkpt>
      <trkpt lat="46.63946" lon="5.91406">
        <ele>765.35</ele>
        <time>2019-06-16T08:28:24Z</time>
      </trkpt>
      <trkpt lat="46.6394" lon="5.91397">
        <ele>766.31</ele>
        <time>2019-06-16T08:28:35Z</time>
      </trkpt>
      <trkpt lat="46.63938" lon="5.91397">
        <ele>765.83</ele>
        <time>2019-06-16T08:28:37Z</time>
      </trkpt>
      <trkpt lat="46.63929" lon="5.91394">
        <ele>767.75</ele>
        <time>2019-06-16T08:28:48Z</time>
      </trkpt>
      <trkpt lat="46.63925" lon="5.91391">
        <ele>767.75</ele>
        <time>2019-06-16T08:28:52Z</time>
      </trkpt>
      <trkpt lat="46.63907" lon="5.91368">
        <ele>768.71</ele>
        <time>2019-06-16T08:29:04Z</time>
      </trkpt>
      <trkpt lat="46.63897" lon="5.91357">
        <ele>769.67</ele>
        <time>2019-06-16T08:29:14Z</time>
      </trkpt>
      <trkpt lat="46.63886" lon="5.91342">
        <ele>771.11</ele>
        <time>2019-06-16T08:29:26Z</time>
      </trkpt>
      <trkpt lat="46.63878" lon="5.91328">
        <ele>772.08</ele>
        <time>2019-06-16T08:29:38Z</time>
      </trkpt>
      <trkpt lat="46.63864" lon="5.91312">
        <ele>773.52</ele>
        <time>2019-06-16T08:29:49Z</time>
      </trkpt>
      <trkpt lat="46.63855" lon="5.91308">
        <ele>774.48</ele>
        <time>2019-06-16T08:29:58Z</time>
      </trkpt>
      <trkpt lat="46.63844" lon="5.91298">
        <ele>775.44</ele>
        <time>2019-06-16T08:30:06Z</time>
      </trkpt>
      <trkpt lat="46.6383" lon="5.91293">
        <ele>776.4</ele>
        <time>2019-06-16T08:30:16Z</time>
      </trkpt>
      <trkpt lat="46.6382" lon="5.91291">
        <ele>776.88</ele>
        <time>2019-06-16T08:30:25Z</time>
      </trkpt>
      <trkpt lat="46.63815" lon="5.9129">
        <ele>777.36</ele>
        <time>2019-06-16T08:30:30Z</time>
      </trkpt>
      <trkpt lat="46.63808" lon="5.9129">
        <ele>778.32</ele>
        <time>2019-06-16T08:30:36Z</time>
      </trkpt>
      <trkpt lat="46.63791" lon="5.91284">
        <ele>779.77</ele>
        <time>2019-06-16T08:30:49Z</time>
      </trkpt>
      <trkpt lat="46.63789" lon="5.91283">
        <ele>780.25</ele>
        <time>2019-06-16T08:30:52Z</time>
      </trkpt>
      <trkpt lat="46.63777" lon="5.91282">
        <ele>778.32</ele>
        <time>2019-06-16T08:31:04Z</time>
      </trkpt>
      <trkpt lat="46.63766" lon="5.91298">
        <ele>780.25</ele>
        <time>2019-06-16T08:31:16Z</time>
      </trkpt>
      <trkpt lat="46.63755" lon="5.91315">
        <ele>781.21</ele>
        <time>2019-06-16T08:31:28Z</time>
      </trkpt>
      <trkpt lat="46.63742" lon="5.91329">
        <ele>783.61</ele>
        <time>2019-06-16T08:31:40Z</time>
      </trkpt>
      <trkpt lat="46.63734" lon="5.91338">
        <ele>784.09</ele>
        <time>2019-06-16T08:31:48Z</time>
      </trkpt>
      <trkpt lat="46.63728" lon="5.91354">
        <ele>784.57</ele>
        <time>2019-06-16T08:32:00Z</time>
      </trkpt>
      <trkpt lat="46.63723" lon="5.91371">
        <ele>786.5</ele>
        <time>2019-06-16T08:32:15Z</time>
      </trkpt>
      <trkpt lat="46.63716" lon="5.91391">
        <ele>788.42</ele>
        <time>2019-06-16T08:32:27Z</time>
      </trkpt>
      <trkpt lat="46.63706" lon="5.91405">
        <ele>789.38</ele>
        <time>2019-06-16T08:32:36Z</time>
      </trkpt>
      <trkpt lat="46.6369" lon="5.91412">
        <ele>790.34</ele>
        <time>2019-06-16T08:32:49Z</time>
      </trkpt>
      <trkpt lat="46.63675" lon="5.91421">
        <ele>790.34</ele>
        <time>2019-06-16T08:33:03Z</time>
      </trkpt>
      <trkpt lat="46.63668" lon="5.9143">
        <ele>789.86</ele>
        <time>2019-06-16T08:33:11Z</time>
      </trkpt>
      <trkpt lat="46.63655" lon="5.91441">
        <ele>788.9</ele>
        <time>2019-06-16T08:33:24Z</time>
      </trkpt>
      <trkpt lat="46.63653" lon="5.91449">
        <ele>788.9</ele>
        <time>2019-06-16T08:33:36Z</time>
      </trkpt>
      <trkpt lat="46.63652" lon="5.91449">
        <ele>788.42</ele>
        <time>2019-06-16T08:33:52Z</time>
      </trkpt>
      <trkpt lat="46.63653" lon="5.91447">
        <ele>788.9</ele>
        <time>2019-06-16T08:34:06Z</time>
      </trkpt>
      <trkpt lat="46.63653" lon="5.91446">
        <ele>788.42</ele>
        <time>2019-06-16T08:34:07Z</time>
      </trkpt>
      <trkpt lat="46.63657" lon="5.9144">
        <ele>788.42</ele>
        <time>2019-06-16T08:34:17Z</time>
      </trkpt>
      <trkpt lat="46.6366" lon="5.91439">
        <ele>788.9</ele>
        <time>2019-06-16T08:34:24Z</time>
      </trkpt>
      <trkpt lat="46.63651" lon="5.91448">
        <ele>787.94</ele>
        <time>2019-06-16T08:34:38Z</time>
      </trkpt>
      <trkpt lat="46.63649" lon="5.91448">
        <ele>788.42</ele>
        <time>2019-06-16T08:34:53Z</time>
      </trkpt>
      <trkpt lat="46.63649" lon="5.91447">
        <ele>788.42</ele>
        <time>2019-06-16T08:35:19Z</time>
      </trkpt>
      <trkpt lat="46.63648" lon="5.91447">
        <ele>788.42</ele>
        <time>2019-06-16T08:35:32Z</time>
      </trkpt>
      <trkpt lat="46.63646" lon="5.91448">
        <ele>788.42</ele>
        <time>2019-06-16T08:35:35Z</time>
      </trkpt>
      <trkpt lat="46.63634" lon="5.91448">
        <ele>787.94</ele>
        <time>2019-06-16T08:35:45Z</time>
      </trkpt>
      <trkpt lat="46.63624" lon="5.91443">
        <ele>788.42</ele>
        <time>2019-06-16T08:35:58Z</time>
      </trkpt>
      <trkpt lat="46.63613" lon="5.91438">
        <ele>787.46</ele>
        <time>2019-06-16T08:36:09Z</time>
      </trkpt>
      <trkpt lat="46.63603" lon="5.91435">
        <ele>787.94</ele>
        <time>2019-06-16T08:36:20Z</time>
      </trkpt>
      <trkpt lat="46.63596" lon="5.91438">
        <ele>787.46</ele>
        <time>2019-06-16T08:36:28Z</time>
      </trkpt>
      <trkpt lat="46.63591" lon="5.91443">
        <ele>787.46</ele>
        <time>2019-06-16T08:36:33Z</time>
      </trkpt>
      <trkpt lat="46.63581" lon="5.91453">
        <ele>785.53</ele>
        <time>2019-06-16T08:36:43Z</time>
      </trkpt>
      <trkpt lat="46.6357" lon="5.91466">
        <ele>783.13</ele>
        <time>2019-06-16T08:36:53Z</time>
      </trkpt>
      <trkpt lat="46.63567" lon="5.9147">
        <ele>783.13</ele>
        <time>2019-06-16T08:36:56Z</time>
      </trkpt>
      <trkpt lat="46.63554" lon="5.91479">
        <ele>783.13</ele>
        <time>2019-06-16T08:37:09Z</time>
      </trkpt>
      <trkpt lat="46.63549" lon="5.91485">
        <ele>783.13</ele>
        <time>2019-06-16T08:37:15Z</time>
      </trkpt>
      <trkpt lat="46.63543" lon="5.91492">
        <ele>782.17</ele>
        <time>2019-06-16T08:37:22Z</time>
      </trkpt>
      <trkpt lat="46.63532" lon="5.91501">
        <ele>781.69</ele>
        <time>2019-06-16T08:37:31Z</time>
      </trkpt>
      <trkpt lat="46.63524" lon="5.91508">
        <ele>782.17</ele>
        <time>2019-06-16T08:37:37Z</time>
      </trkpt>
      <trkpt lat="46.63522" lon="5.91509">
        <ele>782.17</ele>
        <time>2019-06-16T08:37:39Z</time>
      </trkpt>
      <trkpt lat="46.63517" lon="5.91518">
        <ele>783.61</ele>
        <time>2019-06-16T08:37:47Z</time>
      </trkpt>
      <trkpt lat="46.63518" lon="5.91525">
        <ele>785.05</ele>
        <time>2019-06-16T08:37:52Z</time>
      </trkpt>
      <trkpt lat="46.63514" lon="5.91543">
        <ele>786.02</ele>
        <time>2019-06-16T08:38:03Z</time>
      </trkpt>
      <trkpt lat="46.63505" lon="5.91556">
        <ele>785.53</ele>
        <time>2019-06-16T08:38:11Z</time>
      </trkpt>
      <trkpt lat="46.63494" lon="5.91575">
        <ele>784.57</ele>
        <time>2019-06-16T08:38:23Z</time>
      </trkpt>
      <trkpt lat="46.63491" lon="5.9158">
        <ele>784.09</ele>
        <time>2019-06-16T08:38:26Z</time>
      </trkpt>
      <trkpt lat="46.63484" lon="5.9159">
        <ele>784.09</ele>
        <time>2019-06-16T08:38:34Z</time>
      </trkpt>
      <trkpt lat="46.63481" lon="5.91597">
        <ele>784.09</ele>
        <time>2019-06-16T08:38:38Z</time>
      </trkpt>
      <trkpt lat="46.63472" lon="5.91609">
        <ele>783.13</ele>
        <time>2019-06-16T08:38:47Z</time>
      </trkpt>
      <trkpt lat="46.63471" lon="5.91613">
        <ele>783.61</ele>
        <time>2019-06-16T08:38:49Z</time>
      </trkpt>
      <trkpt lat="46.63463" lon="5.91623">
        <ele>783.13</ele>
        <time>2019-06-16T08:38:56Z</time>
      </trkpt>
      <trkpt lat="46.63462" lon="5.91626">
        <ele>783.13</ele>
        <time>2019-06-16T08:38:58Z</time>
      </trkpt>
      <trkpt lat="46.63451" lon="5.91642">
        <ele>783.13</ele>
        <time>2019-06-16T08:39:10Z</time>
      </trkpt>
      <trkpt lat="46.6344" lon="5.91659">
        <ele>782.65</ele>
        <time>2019-06-16T08:39:22Z</time>
      </trkpt>
      <trkpt lat="46.63439" lon="5.91661">
        <ele>782.17</ele>
        <time>2019-06-16T08:39:24Z</time>
      </trkpt>
      <trkpt lat="46.63434" lon="5.91671">
        <ele>782.17</ele>
        <time>2019-06-16T08:39:30Z</time>
      </trkpt>
      <trkpt lat="46.63424" lon="5.9169">
        <ele>782.17</ele>
        <time>2019-06-16T08:39:43Z</time>
      </trkpt>
      <trkpt lat="46.6342" lon="5.91703">
        <ele>781.69</ele>
        <time>2019-06-16T08:39:52Z</time>
      </trkpt>
      <trkpt lat="46.63417" lon="5.9171">
        <ele>782.17</ele>
        <time>2019-06-16T08:39:56Z</time>
      </trkpt>
      <trkpt lat="46.63413" lon="5.91719">
        <ele>781.69</ele>
        <time>2019-06-16T08:40:09Z</time>
      </trkpt>
      <trkpt lat="46.63411" lon="5.91714">
        <ele>780.25</ele>
        <time>2019-06-16T08:40:23Z</time>
      </trkpt>
      <trkpt lat="46.63411" lon="5.91715">
        <ele>780.73</ele>
        <time>2019-06-16T08:40:25Z</time>
      </trkpt>
      <trkpt lat="46.63403" lon="5.91734">
        <ele>778.32</ele>
        <time>2019-06-16T08:40:37Z</time>
      </trkpt>
      <trkpt lat="46.63394" lon="5.91754">
        <ele>777.84</ele>
        <time>2019-06-16T08:40:50Z</time>
      </trkpt>
      <trkpt lat="46.63393" lon="5.91756">
        <ele>777.84</ele>
        <time>2019-06-16T08:40:51Z</time>
      </trkpt>
      <trkpt lat="46.63388" lon="5.9177">
        <ele>778.32</ele>
        <time>2019-06-16T08:40:59Z</time>
      </trkpt>
      <trkpt lat="46.63381" lon="5.91785">
        <ele>778.32</ele>
        <time>2019-06-16T08:41:07Z</time>
      </trkpt>
      <trkpt lat="46.6337" lon="5.91799">
        <ele>779.29</ele>
        <time>2019-06-16T08:41:18Z</time>
      </trkpt>
      <trkpt lat="46.63352" lon="5.91798">
        <ele>777.84</ele>
        <time>2019-06-16T08:41:32Z</time>
      </trkpt>
      <trkpt lat="46.63342" lon="5.918">
        <ele>777.84</ele>
        <time>2019-06-16T08:41:43Z</time>
      </trkpt>
      <trkpt lat="46.6333" lon="5.9181">
        <ele>777.36</ele>
        <time>2019-06-16T08:41:55Z</time>
      </trkpt>
      <trkpt lat="46.63328" lon="5.91811">
        <ele>776.88</ele>
        <time>2019-06-16T08:41:56Z</time>
      </trkpt>
      <trkpt lat="46.63321" lon="5.91822">
        <ele>776.88</ele>
        <time>2019-06-16T08:42:04Z</time>
      </trkpt>
      <trkpt lat="46.63313" lon="5.91829">
        <ele>776.4</ele>
        <time>2019-06-16T08:42:12Z</time>
      </trkpt>
      <trkpt lat="46.63312" lon="5.91833">
        <ele>776.4</ele>
        <time>2019-06-16T08:42:14Z</time>
      </trkpt>
      <trkpt lat="46.63308" lon="5.91849">
        <ele>776.88</ele>
        <time>2019-06-16T08:42:24Z</time>
      </trkpt>
      <trkpt lat="46.63309" lon="5.91866">
        <ele>776.88</ele>
        <time>2019-06-16T08:42:32Z</time>
      </trkpt>
      <trkpt lat="46.63307" lon="5.91877">
        <ele>777.36</ele>
        <time>2019-06-16T08:42:37Z</time>
      </trkpt>
      <trkpt lat="46.63304" lon="5.91898">
        <ele>777.36</ele>
        <time>2019-06-16T08:42:51Z</time>
      </trkpt>
      <trkpt lat="46.63302" lon="5.91897">
        <ele>777.84</ele>
        <time>2019-06-16T08:43:07Z</time>
      </trkpt>
      <trkpt lat="46.63302" lon="5.91897">
        <ele>777.84</ele>
        <time>2019-06-16T08:43:23Z</time>
      </trkpt>
      <trkpt lat="46.63302" lon="5.91897">
        <ele>777.84</ele>
        <time>2019-06-16T08:43:47Z</time>
      </trkpt>
      <trkpt lat="46.63303" lon="5.91898">
        <ele>777.84</ele>
        <time>2019-06-16T08:44:10Z</time>
      </trkpt>
      <trkpt lat="46.63304" lon="5.91899">
        <ele>777.84</ele>
        <time>2019-06-16T08:44:12Z</time>
      </trkpt>
      <trkpt lat="46.63314" lon="5.91914">
        <ele>777.84</ele>
        <time>2019-06-16T08:44:23Z</time>
      </trkpt>
      <trkpt lat="46.63326" lon="5.91927">
        <ele>778.32</ele>
        <time>2019-06-16T08:44:35Z</time>
      </trkpt>
      <trkpt lat="46.63327" lon="5.91929">
        <ele>778.81</ele>
        <time>2019-06-16T08:44:36Z</time>
      </trkpt>
      <trkpt lat="46.63342" lon="5.91938">
        <ele>778.81</ele>
        <time>2019-06-16T08:44:47Z</time>
      </trkpt>
      <trkpt lat="46.63357" lon="5.91944">
        <ele>779.77</ele>
        <time>2019-06-16T08:44:59Z</time>
      </trkpt>
      <trkpt lat="46.63373" lon="5.91944">
        <ele>779.77</ele>
        <time>2019-06-16T08:45:11Z</time>
      </trkpt>
      <trkpt lat="46.63385" lon="5.91941">
        <ele>780.25</ele>
        <time>2019-06-16T08:45:24Z</time>
      </trkpt>
      <trkpt lat="46.63386" lon="5.91944">
        <ele>779.77</ele>
        <time>2019-06-16T08:45:27Z</time>
      </trkpt>
      <trkpt lat="46.63389" lon="5.91947">
        <ele>780.73</ele>
        <time>2019-06-16T08:45:30Z</time>
      </trkpt>
      <trkpt lat="46.63392" lon="5.91966">
        <ele>780.25</ele>
        <time>2019-06-16T08:45:42Z</time>
      </trkpt>
      <trkpt lat="46.63393" lon="5.91968">
        <ele>780.25</ele>
        <time>2019-06-16T08:45:43Z</time>
      </trkpt>
      <trkpt lat="46.63395" lon="5.91973">
        <ele>780.25</ele>
        <time>2019-06-16T08:45:46Z</time>
      </trkpt>
      <trkpt lat="46.63397" lon="5.91981">
        <ele>780.25</ele>
        <time>2019-06-16T08:45:51Z</time>
      </trkpt>
      <trkpt lat="46.63399" lon="5.91989">
        <ele>779.77</ele>
        <time>2019-06-16T08:45:56Z</time>
      </trkpt>
      <trkpt lat="46.63401" lon="5.92001">
        <ele>779.77</ele>
        <time>2019-06-16T08:46:03Z</time>
      </trkpt>
      <trkpt lat="46.63401" lon="5.92013">
        <ele>779.29</ele>
        <time>2019-06-16T08:46:08Z</time>
      </trkpt>
      <trkpt lat="46.63403" lon="5.92022">
        <ele>779.29</ele>
        <time>2019-06-16T08:46:13Z</time>
      </trkpt>
      <trkpt lat="46.63405" lon="5.9204">
        <ele>778.32</ele>
        <time>2019-06-16T08:46:23Z</time>
      </trkpt>
      <trkpt lat="46.63411" lon="5.92055">
        <ele>778.32</ele>
        <time>2019-06-16T08:46:33Z</time>
      </trkpt>
      <trkpt lat="46.63412" lon="5.92057">
        <ele>777.84</ele>
        <time>2019-06-16T08:46:34Z</time>
      </trkpt>
      <trkpt lat="46.63414" lon="5.92059">
        <ele>777.84</ele>
        <time>2019-06-16T08:46:36Z</time>
      </trkpt>
      <trkpt lat="46.63423" lon="5.92078">
        <ele>777.36</ele>
        <time>2019-06-16T08:46:47Z</time>
      </trkpt>
      <trkpt lat="46.63427" lon="5.9209">
        <ele>776.88</ele>
        <time>2019-06-16T08:46:54Z</time>
      </trkpt>
      <trkpt lat="46.63433" lon="5.92105">
        <ele>776.4</ele>
        <time>2019-06-16T08:47:02Z</time>
      </trkpt>
      <trkpt lat="46.63436" lon="5.92117">
        <ele>776.4</ele>
        <time>2019-06-16T08:47:07Z</time>
      </trkpt>
      <trkpt lat="46.63436" lon="5.92123">
        <ele>776.4</ele>
        <time>2019-06-16T08:47:10Z</time>
      </trkpt>
      <trkpt lat="46.63441" lon="5.9213">
        <ele>775.92</ele>
        <time>2019-06-16T08:47:14Z</time>
      </trkpt>
      <trkpt lat="46.63443" lon="5.92132">
        <ele>775.92</ele>
        <time>2019-06-16T08:47:16Z</time>
      </trkpt>
      <trkpt lat="46.63446" lon="5.92142">
        <ele>774.96</ele>
        <time>2019-06-16T08:47:22Z</time>
      </trkpt>
      <trkpt lat="46.63453" lon="5.92147">
        <ele>774.96</ele>
        <time>2019-06-16T08:47:27Z</time>
      </trkpt>
      <trkpt lat="46.63457" lon="5.92152">
        <ele>774.96</ele>
        <time>2019-06-16T08:47:30Z</time>
      </trkpt>
      <trkpt lat="46.63462" lon="5.9216">
        <ele>775.44</ele>
        <time>2019-06-16T08:47:36Z</time>
      </trkpt>
      <trkpt lat="46.63465" lon="5.92162">
        <ele>774.96</ele>
        <time>2019-06-16T08:47:38Z</time>
      </trkpt>
      <trkpt lat="46.6347" lon="5.92175">
        <ele>774.48</ele>
        <time>2019-06-16T08:47:47Z</time>
      </trkpt>
      <trkpt lat="46.63478" lon="5.92193">
        <ele>774.48</ele>
        <time>2019-06-16T08:47:59Z</time>
      </trkpt>
      <trkpt lat="46.63481" lon="5.92198">
        <ele>774.48</ele>
        <time>2019-06-16T08:48:03Z</time>
      </trkpt>
      <trkpt lat="46.63483" lon="5.92207">
        <ele>774</ele>
        <time>2019-06-16T08:48:09Z</time>
      </trkpt>
      <trkpt lat="46.63484" lon="5.92214">
        <ele>773.52</ele>
        <time>2019-06-16T08:48:13Z</time>
      </trkpt>
      <trkpt lat="46.63489" lon="5.92232">
        <ele>774</ele>
        <time>2019-06-16T08:48:23Z</time>
      </trkpt>
      <trkpt lat="46.63489" lon="5.92234">
        <ele>774</ele>
        <time>2019-06-16T08:48:25Z</time>
      </trkpt>
      <trkpt lat="46.63492" lon="5.9224">
        <ele>773.52</ele>
        <time>2019-06-16T08:48:29Z</time>
      </trkpt>
      <trkpt lat="46.6349" lon="5.92258">
        <ele>774.48</ele>
        <time>2019-06-16T08:48:44Z</time>
      </trkpt>
      <trkpt lat="46.63487" lon="5.92258">
        <ele>774.48</ele>
        <time>2019-06-16T08:49:00Z</time>
      </trkpt>
      <trkpt lat="46.63486" lon="5.92257">
        <ele>774.96</ele>
        <time>2019-06-16T08:49:17Z</time>
      </trkpt>
      <trkpt lat="46.63482" lon="5.9226">
        <ele>776.4</ele>
        <time>2019-06-16T08:49:28Z</time>
      </trkpt>
      <trkpt lat="46.63479" lon="5.92263">
        <ele>778.81</ele>
        <time>2019-06-16T08:49:39Z</time>
      </trkpt>
      <trkpt lat="46.63475" lon="5.92271">
        <ele>781.69</ele>
        <time>2019-06-16T08:49:51Z</time>
      </trkpt>
      <trkpt lat="46.63474" lon="5.92272">
        <ele>782.17</ele>
        <time>2019-06-16T08:49:54Z</time>
      </trkpt>
      <trkpt lat="46.63458" lon="5.92273">
        <ele>784.57</ele>
        <time>2019-06-16T08:50:07Z</time>
      </trkpt>
      <trkpt lat="46.63449" lon="5.92273">
        <ele>785.53</ele>
        <time>2019-06-16T08:50:18Z</time>
      </trkpt>
      <trkpt lat="46.6344" lon="5.92274">
        <ele>787.46</ele>
        <time>2019-06-16T08:50:29Z</time>
      </trkpt>
      <trkpt lat="46.63431" lon="5.92273">
        <ele>789.86</ele>
        <time>2019-06-16T08:50:39Z</time>
      </trkpt>
      <trkpt lat="46.6342" lon="5.92271">
        <ele>793.22</ele>
        <time>2019-06-16T08:50:52Z</time>
      </trkpt>
      <trkpt lat="46.63416" lon="5.92274">
        <ele>794.67</ele>
        <time>2019-06-16T08:51:05Z</time>
      </trkpt>
      <trkpt lat="46.63418" lon="5.92288">
        <ele>794.67</ele>
        <time>2019-06-16T08:51:15Z</time>
      </trkpt>
      <trkpt lat="46.63417" lon="5.92291">
        <ele>795.15</ele>
        <time>2019-06-16T08:51:18Z</time>
      </trkpt>
      <trkpt lat="46.63426" lon="5.92311">
        <ele>797.07</ele>
        <time>2019-06-16T08:51:31Z</time>
      </trkpt>
      <trkpt lat="46.63427" lon="5.92316">
        <ele>797.55</ele>
        <time>2019-06-16T08:51:35Z</time>
      </trkpt>
      <trkpt lat="46.63428" lon="5.92316">
        <ele>799.47</ele>
        <time>2019-06-16T08:51:47Z</time>
      </trkpt>
      <trkpt lat="46.63424" lon="5.92317">
        <ele>801.88</ele>
        <time>2019-06-16T08:51:59Z</time>
      </trkpt>
      <trkpt lat="46.63423" lon="5.92319">
        <ele>804.76</ele>
        <time>2019-06-16T08:52:11Z</time>
      </trkpt>
      <trkpt lat="46.63421" lon="5.92326">
        <ele>807.16</ele>
        <time>2019-06-16T08:52:24Z</time>
      </trkpt>
      <trkpt lat="46.63418" lon="5.92328">
        <ele>808.61</ele>
        <time>2019-06-16T08:52:37Z</time>
      </trkpt>
      <trkpt lat="46.63416" lon="5.9233">
        <ele>811.01</ele>
        <time>2019-06-16T08:52:51Z</time>
      </trkpt>
      <trkpt lat="46.63414" lon="5.92331">
        <ele>812.93</ele>
        <time>2019-06-16T08:53:04Z</time>
      </trkpt>
      <trkpt lat="46.63412" lon="5.92333">
        <ele>814.85</ele>
        <time>2019-06-16T08:53:16Z</time>
      </trkpt>
      <trkpt lat="46.63409" lon="5.92336">
        <ele>816.78</ele>
        <time>2019-06-16T08:53:30Z</time>
      </trkpt>
      <trkpt lat="46.63406" lon="5.92339">
        <ele>818.7</ele>
        <time>2019-06-16T08:53:39Z</time>
      </trkpt>
      <trkpt lat="46.63402" lon="5.9234">
        <ele>821.1</ele>
        <time>2019-06-16T08:53:51Z</time>
      </trkpt>
      <trkpt lat="46.63395" lon="5.92345">
        <ele>822.55</ele>
        <time>2019-06-16T08:54:02Z</time>
      </trkpt>
      <trkpt lat="46.63388" lon="5.92346">
        <ele>823.99</ele>
        <time>2019-06-16T08:54:12Z</time>
      </trkpt>
      <trkpt lat="46.63383" lon="5.9235">
        <ele>826.39</ele>
        <time>2019-06-16T08:54:24Z</time>
      </trkpt>
      <trkpt lat="46.63375" lon="5.92355">
        <ele>827.83</ele>
        <time>2019-06-16T08:54:35Z</time>
      </trkpt>
      <trkpt lat="46.63371" lon="5.92354">
        <ele>828.79</ele>
        <time>2019-06-16T08:54:44Z</time>
      </trkpt>
      <trkpt lat="46.63366" lon="5.92351">
        <ele>831.2</ele>
        <time>2019-06-16T08:54:56Z</time>
      </trkpt>
      <trkpt lat="46.63365" lon="5.92339">
        <ele>833.12</ele>
        <time>2019-06-16T08:55:07Z</time>
      </trkpt>
      <trkpt lat="46.63363" lon="5.92339">
        <ele>833.6</ele>
        <time>2019-06-16T08:55:12Z</time>
      </trkpt>
      <trkpt lat="46.63362" lon="5.92338">
        <ele>835.04</ele>
        <time>2019-06-16T08:55:19Z</time>
      </trkpt>
      <trkpt lat="46.63359" lon="5.92336">
        <ele>836</ele>
        <time>2019-06-16T08:55:24Z</time>
      </trkpt>
      <trkpt lat="46.63354" lon="5.92323">
        <ele>837.45</ele>
        <time>2019-06-16T08:55:37Z</time>
      </trkpt>
      <trkpt lat="46.63352" lon="5.92318">
        <ele>839.37</ele>
        <time>2019-06-16T08:55:50Z</time>
      </trkpt>
      <trkpt lat="46.63349" lon="5.92314">
        <ele>840.81</ele>
        <time>2019-06-16T08:56:01Z</time>
      </trkpt>
      <trkpt lat="46.63341" lon="5.92313">
        <ele>842.73</ele>
        <time>2019-06-16T08:56:13Z</time>
      </trkpt>
      <trkpt lat="46.63337" lon="5.92317">
        <ele>844.66</ele>
        <time>2019-06-16T08:56:26Z</time>
      </trkpt>
      <trkpt lat="46.63333" lon="5.92319">
        <ele>846.58</ele>
        <time>2019-06-16T08:56:38Z</time>
      </trkpt>
      <trkpt lat="46.6333" lon="5.92319">
        <ele>848.98</ele>
        <time>2019-06-16T08:56:53Z</time>
      </trkpt>
      <trkpt lat="46.63323" lon="5.9232">
        <ele>851.38</ele>
        <time>2019-06-16T08:57:05Z</time>
      </trkpt>
      <trkpt lat="46.63323" lon="5.9232">
        <ele>851.87</ele>
        <time>2019-06-16T08:57:06Z</time>
      </trkpt>
      <trkpt lat="46.63318" lon="5.92319">
        <ele>853.79</ele>
        <time>2019-06-16T08:57:17Z</time>
      </trkpt>
      <trkpt lat="46.63316" lon="5.92309">
        <ele>855.23</ele>
        <time>2019-06-16T08:57:27Z</time>
      </trkpt>
      <trkpt lat="46.63316" lon="5.92307">
        <ele>857.15</ele>
        <time>2019-06-16T08:57:39Z</time>
      </trkpt>
      <trkpt lat="46.63316" lon="5.92313">
        <ele>859.56</ele>
        <time>2019-06-16T08:57:52Z</time>
      </trkpt>
      <trkpt lat="46.63312" lon="5.92318">
        <ele>861.48</ele>
        <time>2019-06-16T08:58:05Z</time>
      </trkpt>
      <trkpt lat="46.63308" lon="5.92316">
        <ele>862.92</ele>
        <time>2019-06-16T08:58:17Z</time>
      </trkpt>
      <trkpt lat="46.63305" lon="5.92323">
        <ele>863.88</ele>
        <time>2019-06-16T08:58:29Z</time>
      </trkpt>
      <trkpt lat="46.63308" lon="5.92326">
        <ele>866.29</ele>
        <time>2019-06-16T08:58:42Z</time>
      </trkpt>
      <trkpt lat="46.63308" lon="5.92326">
        <ele>866.29</ele>
        <time>2019-06-16T08:58:43Z</time>
      </trkpt>
      <trkpt lat="46.6331" lon="5.92333">
        <ele>868.69</ele>
        <time>2019-06-16T08:58:55Z</time>
      </trkpt>
      <trkpt lat="46.63306" lon="5.92333">
        <ele>868.21</ele>
        <time>2019-06-16T08:59:08Z</time>
      </trkpt>
      <trkpt lat="46.63299" lon="5.9232">
        <ele>869.65</ele>
        <time>2019-06-16T08:59:21Z</time>
      </trkpt>
      <trkpt lat="46.63297" lon="5.92312">
        <ele>870.13</ele>
        <time>2019-06-16T08:59:34Z</time>
      </trkpt>
      <trkpt lat="46.63293" lon="5.92293">
        <ele>870.13</ele>
        <time>2019-06-16T08:59:44Z</time>
      </trkpt>
      <trkpt lat="46.63287" lon="5.92287">
        <ele>870.61</ele>
        <time>2019-06-16T08:59:54Z</time>
      </trkpt>
      <trkpt lat="46.63281" lon="5.92279">
        <ele>872.53</ele>
        <time>2019-06-16T09:00:04Z</time>
      </trkpt>
      <trkpt lat="46.63276" lon="5.92272">
        <ele>873.5</ele>
        <time>2019-06-16T09:00:15Z</time>
      </trkpt>
      <trkpt lat="46.63271" lon="5.92266">
        <ele>875.42</ele>
        <time>2019-06-16T09:00:28Z</time>
      </trkpt>
      <trkpt lat="46.63268" lon="5.92263">
        <ele>877.34</ele>
        <time>2019-06-16T09:00:41Z</time>
      </trkpt>
      <trkpt lat="46.63265" lon="5.92262">
        <ele>880.22</ele>
        <time>2019-06-16T09:00:54Z</time>
      </trkpt>
      <trkpt lat="46.63259" lon="5.92253">
        <ele>882.63</ele>
        <time>2019-06-16T09:01:05Z</time>
      </trkpt>
      <trkpt lat="46.63255" lon="5.92246">
        <ele>884.55</ele>
        <time>2019-06-16T09:01:17Z</time>
      </trkpt>
      <trkpt lat="46.63253" lon="5.92242">
        <ele>886.47</ele>
        <time>2019-06-16T09:01:31Z</time>
      </trkpt>
      <trkpt lat="46.6325" lon="5.92239">
        <ele>887.43</ele>
        <time>2019-06-16T09:01:43Z</time>
      </trkpt>
      <trkpt lat="46.63244" lon="5.92232">
        <ele>887.43</ele>
        <time>2019-06-16T09:01:53Z</time>
      </trkpt>
      <trkpt lat="46.63237" lon="5.92228">
        <ele>888.4</ele>
        <time>2019-06-16T09:02:06Z</time>
      </trkpt>
      <trkpt lat="46.63237" lon="5.92227">
        <ele>888.4</ele>
        <time>2019-06-16T09:02:07Z</time>
      </trkpt>
      <trkpt lat="46.63232" lon="5.92221">
        <ele>889.36</ele>
        <time>2019-06-16T09:02:17Z</time>
      </trkpt>
      <trkpt lat="46.63229" lon="5.92215">
        <ele>887.91</ele>
        <time>2019-06-16T09:02:26Z</time>
      </trkpt>
      <trkpt lat="46.63225" lon="5.92212">
        <ele>885.51</ele>
        <time>2019-06-16T09:02:38Z</time>
      </trkpt>
      <trkpt lat="46.63221" lon="5.92209">
        <ele>884.07</ele>
        <time>2019-06-16T09:02:50Z</time>
      </trkpt>
      <trkpt lat="46.63218" lon="5.92206">
        <ele>881.67</ele>
        <time>2019-06-16T09:03:03Z</time>
      </trkpt>
      <trkpt lat="46.63214" lon="5.92201">
        <ele>882.15</ele>
        <time>2019-06-16T09:03:15Z</time>
      </trkpt>
      <trkpt lat="46.6321" lon="5.92195">
        <ele>884.07</ele>
        <time>2019-06-16T09:03:27Z</time>
      </trkpt>
      <trkpt lat="46.63207" lon="5.92188">
        <ele>885.99</ele>
        <time>2019-06-16T09:03:40Z</time>
      </trkpt>
      <trkpt lat="46.63204" lon="5.92181">
        <ele>887.43</ele>
        <time>2019-06-16T09:03:51Z</time>
      </trkpt>
      <trkpt lat="46.63201" lon="5.92177">
        <ele>888.4</ele>
        <time>2019-06-16T09:04:03Z</time>
      </trkpt>
      <trkpt lat="46.63199" lon="5.92172">
        <ele>888.88</ele>
        <time>2019-06-16T09:04:13Z</time>
      </trkpt>
      <trkpt lat="46.63195" lon="5.92166">
        <ele>891.28</ele>
        <time>2019-06-16T09:04:25Z</time>
      </trkpt>
      <trkpt lat="46.63192" lon="5.92161">
        <ele>891.28</ele>
        <time>2019-06-16T09:04:36Z</time>
      </trkpt>
      <trkpt lat="46.63188" lon="5.92152">
        <ele>891.76</ele>
        <time>2019-06-16T09:04:50Z</time>
      </trkpt>
      <trkpt lat="46.63185" lon="5.92143">
        <ele>891.28</ele>
        <time>2019-06-16T09:05:02Z</time>
      </trkpt>
      <trkpt lat="46.6318" lon="5.92132">
        <ele>890.32</ele>
        <time>2019-06-16T09:05:13Z</time>
      </trkpt>
      <trkpt lat="46.63176" lon="5.92124">
        <ele>890.8</ele>
        <time>2019-06-16T09:05:24Z</time>
      </trkpt>
      <trkpt lat="46.63172" lon="5.92118">
        <ele>890.8</ele>
        <time>2019-06-16T09:05:35Z</time>
      </trkpt>
      <trkpt lat="46.63168" lon="5.92112">
        <ele>890.32</ele>
        <time>2019-06-16T09:05:56Z</time>
      </trkpt>
      <trkpt lat="46.63166" lon="5.92109">
        <ele>889.84</ele>
        <time>2019-06-16T09:06:12Z</time>
      </trkpt>
      <trkpt lat="46.63163" lon="5.92104">
        <ele>889.84</ele>
        <time>2019-06-16T09:06:34Z</time>
      </trkpt>
      <trkpt lat="46.63161" lon="5.92098">
        <ele>889.36</ele>
        <time>2019-06-16T09:06:47Z</time>
      </trkpt>
      <trkpt lat="46.6316" lon="5.92096">
        <ele>894.64</ele>
        <time>2019-06-16T09:06:52Z</time>
      </trkpt>
      <trkpt lat="46.6316" lon="5.92095">
        <ele>889.36</ele>
        <time>2019-06-16T09:06:53Z</time>
      </trkpt>
      <trkpt lat="46.6316" lon="5.92095">
        <ele>889.36</ele>
        <time>2019-06-16T09:06:54Z</time>
      </trkpt>
      <trkpt lat="46.63158" lon="5.92082">
        <ele>889.84</ele>
        <time>2019-06-16T09:07:15Z</time>
      </trkpt>
      <trkpt lat="46.63156" lon="5.92076">
        <ele>888.88</ele>
        <time>2019-06-16T09:07:48Z</time>
      </trkpt>
      <trkpt lat="46.63155" lon="5.92075">
        <ele>888.4</ele>
        <time>2019-06-16T09:08:04Z</time>
      </trkpt>
      <trkpt lat="46.63154" lon="5.92074">
        <ele>888.88</ele>
        <time>2019-06-16T09:08:14Z</time>
      </trkpt>
      <trkpt lat="46.63154" lon="5.92074">
        <ele>888.4</ele>
        <time>2019-06-16T09:08:36Z</time>
      </trkpt>
      <trkpt lat="46.63153" lon="5.92075">
        <ele>888.88</ele>
        <time>2019-06-16T09:09:01Z</time>
      </trkpt>
      <trkpt lat="46.63153" lon="5.92075">
        <ele>888.88</ele>
        <time>2019-06-16T09:09:22Z</time>
      </trkpt>
      <trkpt lat="46.63152" lon="5.92074">
        <ele>888.88</ele>
        <time>2019-06-16T09:09:38Z</time>
      </trkpt>
      <trkpt lat="46.6315" lon="5.92075">
        <ele>888.88</ele>
        <time>2019-06-16T09:09:57Z</time>
      </trkpt>
      <trkpt lat="46.63151" lon="5.92074">
        <ele>888.88</ele>
        <time>2019-06-16T09:10:19Z</time>
      </trkpt>
      <trkpt lat="46.63151" lon="5.92074">
        <ele>888.88</ele>
        <time>2019-06-16T09:10:40Z</time>
      </trkpt>
      <trkpt lat="46.63152" lon="5.92073">
        <ele>888.88</ele>
        <time>2019-06-16T09:11:04Z</time>
      </trkpt>
      <trkpt lat="46.63151" lon="5.92074">
        <ele>888.88</ele>
        <time>2019-06-16T09:11:25Z</time>
      </trkpt>
      <trkpt lat="46.63152" lon="5.92073">
        <ele>888.4</ele>
        <time>2019-06-16T09:11:47Z</time>
      </trkpt>
      <trkpt lat="46.63152" lon="5.92073">
        <ele>889.36</ele>
        <time>2019-06-16T09:12:06Z</time>
      </trkpt>
      <trkpt lat="46.63152" lon="5.92072">
        <ele>888.88</ele>
        <time>2019-06-16T09:12:31Z</time>
      </trkpt>
      <trkpt lat="46.63153" lon="5.9207">
        <ele>888.88</ele>
        <time>2019-06-16T09:12:55Z</time>
      </trkpt>
      <trkpt lat="46.63151" lon="5.92069">
        <ele>888.4</ele>
        <time>2019-06-16T09:13:11Z</time>
      </trkpt>
      <trkpt lat="46.6315" lon="5.92066">
        <ele>888.4</ele>
        <time>2019-06-16T09:13:33Z</time>
      </trkpt>
      <trkpt lat="46.63149" lon="5.92066">
        <ele>887.91</ele>
        <time>2019-06-16T09:13:34Z</time>
      </trkpt>
      <trkpt lat="46.63142" lon="5.92068">
        <ele>888.88</ele>
        <time>2019-06-16T09:13:48Z</time>
      </trkpt>
      <trkpt lat="46.63137" lon="5.92065">
        <ele>885.99</ele>
        <time>2019-06-16T09:14:01Z</time>
      </trkpt>
      <trkpt lat="46.63131" lon="5.92058">
        <ele>887.43</ele>
        <time>2019-06-16T09:14:15Z</time>
      </trkpt>
      <trkpt lat="46.6313" lon="5.92054">
        <ele>887.43</ele>
        <time>2019-06-16T09:14:33Z</time>
      </trkpt>
      <trkpt lat="46.63126" lon="5.92053">
        <ele>886.95</ele>
        <time>2019-06-16T09:14:53Z</time>
      </trkpt>
      <trkpt lat="46.63125" lon="5.92049">
        <ele>887.91</ele>
        <time>2019-06-16T09:15:20Z</time>
      </trkpt>
      <trkpt lat="46.6312" lon="5.92042">
        <ele>888.4</ele>
        <time>2019-06-16T09:15:30Z</time>
      </trkpt>
      <trkpt lat="46.63114" lon="5.92031">
        <ele>888.4</ele>
        <time>2019-06-16T09:15:41Z</time>
      </trkpt>
      <trkpt lat="46.6311" lon="5.92024">
        <ele>890.32</ele>
        <time>2019-06-16T09:15:53Z</time>
      </trkpt>
      <trkpt lat="46.63109" lon="5.9202">
        <ele>890.8</ele>
        <time>2019-06-16T09:16:00Z</time>
      </trkpt>
      <trkpt lat="46.63106" lon="5.92011">
        <ele>891.28</ele>
        <time>2019-06-16T09:16:11Z</time>
      </trkpt>
      <trkpt lat="46.63102" lon="5.92007">
        <ele>892.72</ele>
        <time>2019-06-16T09:16:22Z</time>
      </trkpt>
      <trkpt lat="46.63097" lon="5.91995">
        <ele>895.12</ele>
        <time>2019-06-16T09:16:34Z</time>
      </trkpt>
      <trkpt lat="46.63091" lon="5.9199">
        <ele>895.12</ele>
        <time>2019-06-16T09:16:47Z</time>
      </trkpt>
      <trkpt lat="46.63081" lon="5.91985">
        <ele>894.16</ele>
        <time>2019-06-16T09:17:00Z</time>
      </trkpt>
      <trkpt lat="46.63076" lon="5.9198">
        <ele>894.16</ele>
        <time>2019-06-16T09:17:11Z</time>
      </trkpt>
      <trkpt lat="46.63072" lon="5.91974">
        <ele>893.2</ele>
        <time>2019-06-16T09:17:24Z</time>
      </trkpt>
      <trkpt lat="46.63064" lon="5.91966">
        <ele>895.12</ele>
        <time>2019-06-16T09:17:36Z</time>
      </trkpt>
      <trkpt lat="46.6306" lon="5.91961">
        <ele>895.12</ele>
        <time>2019-06-16T09:17:47Z</time>
      </trkpt>
      <trkpt lat="46.63052" lon="5.9195">
        <ele>897.53</ele>
        <time>2019-06-16T09:18:02Z</time>
      </trkpt>
      <trkpt lat="46.63047" lon="5.91951">
        <ele>899.45</ele>
        <time>2019-06-16T09:18:16Z</time>
      </trkpt>
      <trkpt lat="46.63042" lon="5.9195">
        <ele>901.37</ele>
        <time>2019-06-16T09:18:26Z</time>
      </trkpt>
      <trkpt lat="46.63034" lon="5.91946">
        <ele>901.85</ele>
        <time>2019-06-16T09:18:40Z</time>
      </trkpt>
      <trkpt lat="46.63028" lon="5.9194">
        <ele>900.89</ele>
        <time>2019-06-16T09:18:50Z</time>
      </trkpt>
      <trkpt lat="46.63023" lon="5.91933">
        <ele>901.37</ele>
        <time>2019-06-16T09:19:00Z</time>
      </trkpt>
      <trkpt lat="46.63019" lon="5.91927">
        <ele>902.82</ele>
        <time>2019-06-16T09:19:12Z</time>
      </trkpt>
      <trkpt lat="46.63021" lon="5.91921">
        <ele>904.74</ele>
        <time>2019-06-16T09:19:24Z</time>
      </trkpt>
      <trkpt lat="46.63022" lon="5.91917">
        <ele>905.7</ele>
        <time>2019-06-16T09:19:37Z</time>
      </trkpt>
      <trkpt lat="46.63018" lon="5.91913">
        <ele>907.62</ele>
        <time>2019-06-16T09:19:46Z</time>
      </trkpt>
      <trkpt lat="46.63013" lon="5.91904">
        <ele>910.51</ele>
        <time>2019-06-16T09:20:01Z</time>
      </trkpt>
      <trkpt lat="46.63016" lon="5.91896">
        <ele>910.03</ele>
        <time>2019-06-16T09:20:14Z</time>
      </trkpt>
      <trkpt lat="46.63014" lon="5.91888">
        <ele>909.54</ele>
        <time>2019-06-16T09:20:25Z</time>
      </trkpt>
      <trkpt lat="46.63014" lon="5.91881">
        <ele>908.1</ele>
        <time>2019-06-16T09:20:37Z</time>
      </trkpt>
      <trkpt lat="46.63015" lon="5.91874">
        <ele>908.1</ele>
        <time>2019-06-16T09:20:45Z</time>
      </trkpt>
      <trkpt lat="46.63007" lon="5.91864">
        <ele>909.54</ele>
        <time>2019-06-16T09:20:57Z</time>
      </trkpt>
      <trkpt lat="46.63" lon="5.91848">
        <ele>910.51</ele>
        <time>2019-06-16T09:21:08Z</time>
      </trkpt>
      <trkpt lat="46.62992" lon="5.91831">
        <ele>910.51</ele>
        <time>2019-06-16T09:21:20Z</time>
      </trkpt>
      <trkpt lat="46.6298" lon="5.91807">
        <ele>909.06</ele>
        <time>2019-06-16T09:21:33Z</time>
      </trkpt>
      <trkpt lat="46.62973" lon="5.91795">
        <ele>908.1</ele>
        <time>2019-06-16T09:21:45Z</time>
      </trkpt>
      <trkpt lat="46.62968" lon="5.91781">
        <ele>909.54</ele>
        <time>2019-06-16T09:21:54Z</time>
      </trkpt>
      <trkpt lat="46.62956" lon="5.91767">
        <ele>909.54</ele>
        <time>2019-06-16T09:22:07Z</time>
      </trkpt>
      <trkpt lat="46.62952" lon="5.91759">
        <ele>909.54</ele>
        <time>2019-06-16T09:22:17Z</time>
      </trkpt>
      <trkpt lat="46.62948" lon="5.91747">
        <ele>910.03</ele>
        <time>2019-06-16T09:22:26Z</time>
      </trkpt>
      <trkpt lat="46.6294" lon="5.91735">
        <ele>910.99</ele>
        <time>2019-06-16T09:22:39Z</time>
      </trkpt>
      <trkpt lat="46.62932" lon="5.91724">
        <ele>910.51</ele>
        <time>2019-06-16T09:22:52Z</time>
      </trkpt>
      <trkpt lat="46.62927" lon="5.9172">
        <ele>910.99</ele>
        <time>2019-06-16T09:22:56Z</time>
      </trkpt>
      <trkpt lat="46.62912" lon="5.91703">
        <ele>910.51</ele>
        <time>2019-06-16T09:23:09Z</time>
      </trkpt>
      <trkpt lat="46.62903" lon="5.91694">
        <ele>910.51</ele>
        <time>2019-06-16T09:23:21Z</time>
      </trkpt>
      <trkpt lat="46.62896" lon="5.91691">
        <ele>912.43</ele>
        <time>2019-06-16T09:23:32Z</time>
      </trkpt>
      <trkpt lat="46.6289" lon="5.91685">
        <ele>914.83</ele>
        <time>2019-06-16T09:23:45Z</time>
      </trkpt>
      <trkpt lat="46.62882" lon="5.91676">
        <ele>915.79</ele>
        <time>2019-06-16T09:23:57Z</time>
      </trkpt>
      <trkpt lat="46.62877" lon="5.91671">
        <ele>915.79</ele>
        <time>2019-06-16T09:24:08Z</time>
      </trkpt>
      <trkpt lat="46.62869" lon="5.91661">
        <ele>915.31</ele>
        <time>2019-06-16T09:24:20Z</time>
      </trkpt>
      <trkpt lat="46.62854" lon="5.91648">
        <ele>914.35</ele>
        <time>2019-06-16T09:24:31Z</time>
      </trkpt>
      <trkpt lat="46.62844" lon="5.91636">
        <ele>915.31</ele>
        <time>2019-06-16T09:24:43Z</time>
      </trkpt>
      <trkpt lat="46.62838" lon="5.91624">
        <ele>913.39</ele>
        <time>2019-06-16T09:24:54Z</time>
      </trkpt>
      <trkpt lat="46.62838" lon="5.91623">
        <ele>912.91</ele>
        <time>2019-06-16T09:24:56Z</time>
      </trkpt>
      <trkpt lat="46.62836" lon="5.91618">
        <ele>910.51</ele>
        <time>2019-06-16T09:25:05Z</time>
      </trkpt>
      <trkpt lat="46.62831" lon="5.91612">
        <ele>910.03</ele>
        <time>2019-06-16T09:25:15Z</time>
      </trkpt>
      <trkpt lat="46.62825" lon="5.91602">
        <ele>910.03</ele>
        <time>2019-06-16T09:25:24Z</time>
      </trkpt>
      <trkpt lat="46.6281" lon="5.91574">
        <ele>910.51</ele>
        <time>2019-06-16T09:25:38Z</time>
      </trkpt>
      <trkpt lat="46.62802" lon="5.91557">
        <ele>910.99</ele>
        <time>2019-06-16T09:25:50Z</time>
      </trkpt>
      <trkpt lat="46.62796" lon="5.91551">
        <ele>910.03</ele>
        <time>2019-06-16T09:26:02Z</time>
      </trkpt>
      <trkpt lat="46.62791" lon="5.91549">
        <ele>908.58</ele>
        <time>2019-06-16T09:26:10Z</time>
      </trkpt>
      <trkpt lat="46.62782" lon="5.91539">
        <ele>909.54</ele>
        <time>2019-06-16T09:26:24Z</time>
      </trkpt>
      <trkpt lat="46.62779" lon="5.9153">
        <ele>911.47</ele>
        <time>2019-06-16T09:26:35Z</time>
      </trkpt>
      <trkpt lat="46.62777" lon="5.91523">
        <ele>913.39</ele>
        <time>2019-06-16T09:26:45Z</time>
      </trkpt>
      <trkpt lat="46.6277" lon="5.91511">
        <ele>914.35</ele>
        <time>2019-06-16T09:26:51Z</time>
      </trkpt>
      <trkpt lat="46.62763" lon="5.91505">
        <ele>916.75</ele>
        <time>2019-06-16T09:27:01Z</time>
      </trkpt>
      <trkpt lat="46.62761" lon="5.91503">
        <ele>918.68</ele>
        <time>2019-06-16T09:27:11Z</time>
      </trkpt>
      <trkpt lat="46.62752" lon="5.91508">
        <ele>919.64</ele>
        <time>2019-06-16T09:27:24Z</time>
      </trkpt>
      <trkpt lat="46.62753" lon="5.91503">
        <ele>919.64</ele>
        <time>2019-06-16T09:27:41Z</time>
      </trkpt>
      <trkpt lat="46.62754" lon="5.91499">
        <ele>919.64</ele>
        <time>2019-06-16T09:28:02Z</time>
      </trkpt>
      <trkpt lat="46.62756" lon="5.915">
        <ele>919.16</ele>
        <time>2019-06-16T09:28:21Z</time>
      </trkpt>
      <trkpt lat="46.62755" lon="5.91501">
        <ele>919.64</ele>
        <time>2019-06-16T09:28:36Z</time>
      </trkpt>
      <trkpt lat="46.62749" lon="5.91507">
        <ele>920.6</ele>
        <time>2019-06-16T09:28:49Z</time>
      </trkpt>
      <trkpt lat="46.62746" lon="5.91508">
        <ele>921.56</ele>
        <time>2019-06-16T09:29:00Z</time>
      </trkpt>
      <trkpt lat="46.62739" lon="5.91511">
        <ele>922.52</ele>
        <time>2019-06-16T09:29:11Z</time>
      </trkpt>
      <trkpt lat="46.62732" lon="5.91513">
        <ele>924.93</ele>
        <time>2019-06-16T09:29:21Z</time>
      </trkpt>
      <trkpt lat="46.62727" lon="5.91511">
        <ele>926.37</ele>
        <time>2019-06-16T09:29:32Z</time>
      </trkpt>
      <trkpt lat="46.6272" lon="5.91511">
        <ele>928.77</ele>
        <time>2019-06-16T09:29:46Z</time>
      </trkpt>
      <trkpt lat="46.62714" lon="5.9151">
        <ele>930.21</ele>
        <time>2019-06-16T09:29:56Z</time>
      </trkpt>
      <trkpt lat="46.62705" lon="5.91511">
        <ele>931.65</ele>
        <time>2019-06-16T09:30:08Z</time>
      </trkpt>
      <trkpt lat="46.62697" lon="5.91502">
        <ele>932.14</ele>
        <time>2019-06-16T09:30:20Z</time>
      </trkpt>
      <trkpt lat="46.62697" lon="5.915">
        <ele>930.69</ele>
        <time>2019-06-16T09:30:23Z</time>
      </trkpt>
      <trkpt lat="46.62692" lon="5.91494">
        <ele>933.1</ele>
        <time>2019-06-16T09:30:33Z</time>
      </trkpt>
      <trkpt lat="46.62685" lon="5.91487">
        <ele>932.62</ele>
        <time>2019-06-16T09:30:44Z</time>
      </trkpt>
      <trkpt lat="46.62679" lon="5.91484">
        <ele>931.17</ele>
        <time>2019-06-16T09:30:53Z</time>
      </trkpt>
      <trkpt lat="46.62674" lon="5.91481">
        <ele>930.21</ele>
        <time>2019-06-16T09:30:58Z</time>
      </trkpt>
      <trkpt lat="46.62667" lon="5.91474">
        <ele>927.81</ele>
        <time>2019-06-16T09:31:10Z</time>
      </trkpt>
      <trkpt lat="46.62653" lon="5.91467">
        <ele>926.37</ele>
        <time>2019-06-16T09:31:20Z</time>
      </trkpt>
      <trkpt lat="46.62644" lon="5.91467">
        <ele>923.96</ele>
        <time>2019-06-16T09:31:29Z</time>
      </trkpt>
      <trkpt lat="46.6263" lon="5.91456">
        <ele>922.52</ele>
        <time>2019-06-16T09:31:40Z</time>
      </trkpt>
      <trkpt lat="46.6263" lon="5.91456">
        <ele>922.04</ele>
        <time>2019-06-16T09:31:41Z</time>
      </trkpt>
      <trkpt lat="46.62618" lon="5.91463">
        <ele>919.64</ele>
        <time>2019-06-16T09:31:53Z</time>
      </trkpt>
      <trkpt lat="46.62615" lon="5.91467">
        <ele>917.72</ele>
        <time>2019-06-16T09:32:00Z</time>
      </trkpt>
      <trkpt lat="46.62606" lon="5.9146">
        <ele>917.24</ele>
        <time>2019-06-16T09:32:23Z</time>
      </trkpt>
      <trkpt lat="46.62602" lon="5.91438">
        <ele>916.75</ele>
        <time>2019-06-16T09:32:41Z</time>
      </trkpt>
      <trkpt lat="46.62597" lon="5.91433">
        <ele>916.27</ele>
        <time>2019-06-16T09:33:00Z</time>
      </trkpt>
      <trkpt lat="46.62601" lon="5.9143">
        <ele>916.27</ele>
        <time>2019-06-16T09:33:08Z</time>
      </trkpt>
      <trkpt lat="46.6261" lon="5.91418">
        <ele>914.35</ele>
        <time>2019-06-16T09:33:20Z</time>
      </trkpt>
      <trkpt lat="46.62612" lon="5.91404">
        <ele>912.91</ele>
        <time>2019-06-16T09:33:30Z</time>
      </trkpt>
      <trkpt lat="46.62617" lon="5.91391">
        <ele>914.35</ele>
        <time>2019-06-16T09:33:42Z</time>
      </trkpt>
      <trkpt lat="46.62614" lon="5.91375">
        <ele>915.31</ele>
        <time>2019-06-16T09:33:52Z</time>
      </trkpt>
      <trkpt lat="46.62614" lon="5.91366">
        <ele>916.27</ele>
        <time>2019-06-16T09:34:02Z</time>
      </trkpt>
      <trkpt lat="46.62613" lon="5.91363">
        <ele>916.27</ele>
        <time>2019-06-16T09:34:05Z</time>
      </trkpt>
      <trkpt lat="46.62611" lon="5.9135">
        <ele>915.31</ele>
        <time>2019-06-16T09:34:15Z</time>
      </trkpt>
      <trkpt lat="46.62613" lon="5.91331">
        <ele>912.91</ele>
        <time>2019-06-16T09:34:27Z</time>
      </trkpt>
      <trkpt lat="46.62612" lon="5.91329">
        <ele>911.95</ele>
        <time>2019-06-16T09:34:31Z</time>
      </trkpt>
      <trkpt lat="46.6261" lon="5.91327">
        <ele>911.47</ele>
        <time>2019-06-16T09:34:35Z</time>
      </trkpt>
      <trkpt lat="46.62615" lon="5.91317">
        <ele>908.1</ele>
        <time>2019-06-16T09:34:47Z</time>
      </trkpt>
      <trkpt lat="46.62619" lon="5.91313">
        <ele>906.18</ele>
        <time>2019-06-16T09:35:02Z</time>
      </trkpt>
      <trkpt lat="46.6262" lon="5.91311">
        <ele>907.14</ele>
        <time>2019-06-16T09:35:29Z</time>
      </trkpt>
      <trkpt lat="46.62621" lon="5.9131">
        <ele>907.14</ele>
        <time>2019-06-16T09:35:47Z</time>
      </trkpt>
      <trkpt lat="46.62622" lon="5.91309">
        <ele>907.14</ele>
        <time>2019-06-16T09:36:06Z</time>
      </trkpt>
      <trkpt lat="46.62623" lon="5.91307">
        <ele>907.14</ele>
        <time>2019-06-16T09:36:24Z</time>
      </trkpt>
      <trkpt lat="46.62624" lon="5.91308">
        <ele>907.14</ele>
        <time>2019-06-16T09:36:39Z</time>
      </trkpt>
      <trkpt lat="46.62624" lon="5.91308">
        <ele>907.14</ele>
        <time>2019-06-16T09:37:01Z</time>
      </trkpt>
      <trkpt lat="46.62623" lon="5.91308">
        <ele>907.14</ele>
        <time>2019-06-16T09:37:18Z</time>
      </trkpt>
      <trkpt lat="46.62623" lon="5.91308">
        <ele>907.62</ele>
        <time>2019-06-16T09:37:27Z</time>
      </trkpt>
      <trkpt lat="46.62614" lon="5.91307">
        <ele>905.22</ele>
        <time>2019-06-16T09:37:39Z</time>
      </trkpt>
      <trkpt lat="46.62608" lon="5.91305">
        <ele>903.78</ele>
        <time>2019-06-16T09:37:52Z</time>
      </trkpt>
      <trkpt lat="46.62605" lon="5.91301">
        <ele>900.89</ele>
        <time>2019-06-16T09:38:06Z</time>
      </trkpt>
      <trkpt lat="46.62601" lon="5.91296">
        <ele>901.37</ele>
        <time>2019-06-16T09:38:16Z</time>
      </trkpt>
      <trkpt lat="46.62597" lon="5.91291">
        <ele>900.41</ele>
        <time>2019-06-16T09:38:26Z</time>
      </trkpt>
      <trkpt lat="46.62594" lon="5.91286">
        <ele>900.41</ele>
        <time>2019-06-16T09:38:33Z</time>
      </trkpt>
      <trkpt lat="46.62592" lon="5.91285">
        <ele>900.41</ele>
        <time>2019-06-16T09:38:38Z</time>
      </trkpt>
      <trkpt lat="46.62586" lon="5.91278">
        <ele>898.97</ele>
        <time>2019-06-16T09:38:48Z</time>
      </trkpt>
      <trkpt lat="46.62581" lon="5.91272">
        <ele>900.89</ele>
        <time>2019-06-16T09:38:59Z</time>
      </trkpt>
      <trkpt lat="46.62572" lon="5.91265">
        <ele>902.33</ele>
        <time>2019-06-16T09:39:10Z</time>
      </trkpt>
      <trkpt lat="46.62564" lon="5.91261">
        <ele>902.82</ele>
        <time>2019-06-16T09:39:19Z</time>
      </trkpt>
      <trkpt lat="46.6256" lon="5.91255">
        <ele>904.74</ele>
        <time>2019-06-16T09:39:29Z</time>
      </trkpt>
      <trkpt lat="46.62555" lon="5.91246">
        <ele>907.14</ele>
        <time>2019-06-16T09:39:43Z</time>
      </trkpt>
      <trkpt lat="46.62549" lon="5.91238">
        <ele>909.06</ele>
        <time>2019-06-16T09:39:54Z</time>
      </trkpt>
      <trkpt lat="46.62543" lon="5.91227">
        <ele>911.47</ele>
        <time>2019-06-16T09:40:06Z</time>
      </trkpt>
      <trkpt lat="46.62541" lon="5.91221">
        <ele>913.39</ele>
        <time>2019-06-16T09:40:16Z</time>
      </trkpt>
      <trkpt lat="46.62533" lon="5.91207">
        <ele>913.39</ele>
        <time>2019-06-16T09:40:28Z</time>
      </trkpt>
      <trkpt lat="46.6253" lon="5.91204">
        <ele>913.87</ele>
        <time>2019-06-16T09:40:31Z</time>
      </trkpt>
      <trkpt lat="46.62525" lon="5.91194">
        <ele>912.91</ele>
        <time>2019-06-16T09:40:42Z</time>
      </trkpt>
      <trkpt lat="46.62523" lon="5.91189">
        <ele>912.91</ele>
        <time>2019-06-16T09:40:52Z</time>
      </trkpt>
      <trkpt lat="46.6252" lon="5.91185">
        <ele>911.95</ele>
        <time>2019-06-16T09:40:59Z</time>
      </trkpt>
      <trkpt lat="46.62514" lon="5.91178">
        <ele>911.47</ele>
        <time>2019-06-16T09:41:09Z</time>
      </trkpt>
      <trkpt lat="46.62504" lon="5.91168">
        <ele>913.39</ele>
        <time>2019-06-16T09:41:23Z</time>
      </trkpt>
      <trkpt lat="46.62501" lon="5.91162">
        <ele>914.83</ele>
        <time>2019-06-16T09:41:34Z</time>
      </trkpt>
      <trkpt lat="46.62498" lon="5.9116">
        <ele>914.35</ele>
        <time>2019-06-16T09:41:38Z</time>
      </trkpt>
      <trkpt lat="46.62493" lon="5.91151">
        <ele>915.31</ele>
        <time>2019-06-16T09:41:50Z</time>
      </trkpt>
      <trkpt lat="46.6249" lon="5.91144">
        <ele>916.75</ele>
        <time>2019-06-16T09:42:01Z</time>
      </trkpt>
      <trkpt lat="46.62486" lon="5.91137">
        <ele>917.72</ele>
        <time>2019-06-16T09:42:14Z</time>
      </trkpt>
      <trkpt lat="46.62482" lon="5.91129">
        <ele>919.16</ele>
        <time>2019-06-16T09:42:24Z</time>
      </trkpt>
      <trkpt lat="46.62471" lon="5.91118">
        <ele>920.12</ele>
        <time>2019-06-16T09:42:34Z</time>
      </trkpt>
      <trkpt lat="46.62464" lon="5.91106">
        <ele>919.64</ele>
        <time>2019-06-16T09:42:51Z</time>
      </trkpt>
      <trkpt lat="46.62461" lon="5.91099">
        <ele>921.08</ele>
        <time>2019-06-16T09:43:06Z</time>
      </trkpt>
      <trkpt lat="46.62458" lon="5.91098">
        <ele>922.04</ele>
        <time>2019-06-16T09:43:15Z</time>
      </trkpt>
      <trkpt lat="46.62447" lon="5.91091">
        <ele>921.56</ele>
        <time>2019-06-16T09:43:26Z</time>
      </trkpt>
      <trkpt lat="46.62435" lon="5.91077">
        <ele>921.08</ele>
        <time>2019-06-16T09:43:36Z</time>
      </trkpt>
      <trkpt lat="46.62426" lon="5.91063">
        <ele>919.64</ele>
        <time>2019-06-16T09:43:48Z</time>
      </trkpt>
      <trkpt lat="46.6242" lon="5.91061">
        <ele>919.16</ele>
        <time>2019-06-16T09:43:55Z</time>
      </trkpt>
      <trkpt lat="46.62403" lon="5.91052">
        <ele>918.68</ele>
        <time>2019-06-16T09:44:08Z</time>
      </trkpt>
      <trkpt lat="46.62398" lon="5.91049">
        <ele>918.2</ele>
        <time>2019-06-16T09:44:12Z</time>
      </trkpt>
      <trkpt lat="46.62394" lon="5.91036">
        <ele>918.68</ele>
        <time>2019-06-16T09:44:23Z</time>
      </trkpt>
      <trkpt lat="46.62386" lon="5.91026">
        <ele>919.16</ele>
        <time>2019-06-16T09:44:31Z</time>
      </trkpt>
      <trkpt lat="46.62378" lon="5.91014">
        <ele>920.12</ele>
        <time>2019-06-16T09:44:42Z</time>
      </trkpt>
      <trkpt lat="46.62377" lon="5.91009">
        <ele>921.08</ele>
        <time>2019-06-16T09:44:53Z</time>
      </trkpt>
      <trkpt lat="46.62372" lon="5.90999">
        <ele>922.04</ele>
        <time>2019-06-16T09:45:04Z</time>
      </trkpt>
      <trkpt lat="46.62364" lon="5.90988">
        <ele>921.56</ele>
        <time>2019-06-16T09:45:17Z</time>
      </trkpt>
      <trkpt lat="46.62363" lon="5.90985">
        <ele>921.56</ele>
        <time>2019-06-16T09:45:35Z</time>
      </trkpt>
      <trkpt lat="46.62363" lon="5.90983">
        <ele>921.56</ele>
        <time>2019-06-16T09:45:57Z</time>
      </trkpt>
      <trkpt lat="46.62362" lon="5.90983">
        <ele>922.04</ele>
        <time>2019-06-16T09:46:23Z</time>
      </trkpt>
      <trkpt lat="46.62361" lon="5.90981">
        <ele>922.52</ele>
        <time>2019-06-16T09:46:43Z</time>
      </trkpt>
      <trkpt lat="46.62361" lon="5.90988">
        <ele>922.04</ele>
        <time>2019-06-16T09:46:55Z</time>
      </trkpt>
      <trkpt lat="46.62361" lon="5.90993">
        <ele>922.52</ele>
        <time>2019-06-16T09:47:11Z</time>
      </trkpt>
      <trkpt lat="46.6236" lon="5.90994">
        <ele>923.48</ele>
        <time>2019-06-16T09:47:22Z</time>
      </trkpt>
      <trkpt lat="46.6235" lon="5.90993">
        <ele>924.45</ele>
        <time>2019-06-16T09:47:35Z</time>
      </trkpt>
      <trkpt lat="46.62344" lon="5.90993">
        <ele>923.96</ele>
        <time>2019-06-16T09:47:41Z</time>
      </trkpt>
      <trkpt lat="46.62329" lon="5.90992">
        <ele>921.56</ele>
        <time>2019-06-16T09:47:58Z</time>
      </trkpt>
      <trkpt lat="46.62323" lon="5.90991">
        <ele>920.6</ele>
        <time>2019-06-16T09:48:13Z</time>
      </trkpt>
      <trkpt lat="46.62323" lon="5.9099">
        <ele>919.64</ele>
        <time>2019-06-16T09:48:16Z</time>
      </trkpt>
      <trkpt lat="46.62321" lon="5.90988">
        <ele>919.16</ele>
        <time>2019-06-16T09:48:19Z</time>
      </trkpt>
      <trkpt lat="46.6231" lon="5.90986">
        <ele>918.68</ele>
        <time>2019-06-16T09:48:29Z</time>
      </trkpt>
      <trkpt lat="46.62297" lon="5.90977">
        <ele>920.12</ele>
        <time>2019-06-16T09:48:41Z</time>
      </trkpt>
      <trkpt lat="46.62282" lon="5.90972">
        <ele>921.08</ele>
        <time>2019-06-16T09:48:51Z</time>
      </trkpt>
      <trkpt lat="46.62272" lon="5.90965">
        <ele>921.08</ele>
        <time>2019-06-16T09:49:02Z</time>
      </trkpt>
      <trkpt lat="46.62269" lon="5.90963">
        <ele>921.08</ele>
        <time>2019-06-16T09:49:05Z</time>
      </trkpt>
      <trkpt lat="46.62264" lon="5.90963">
        <ele>919.64</ele>
        <time>2019-06-16T09:49:13Z</time>
      </trkpt>
      <trkpt lat="46.62255" lon="5.90968">
        <ele>918.2</ele>
        <time>2019-06-16T09:49:24Z</time>
      </trkpt>
      <trkpt lat="46.62246" lon="5.9097">
        <ele>914.83</ele>
        <time>2019-06-16T09:49:34Z</time>
      </trkpt>
      <trkpt lat="46.62243" lon="5.9097">
        <ele>914.83</ele>
        <time>2019-06-16T09:49:36Z</time>
      </trkpt>
      <trkpt lat="46.62233" lon="5.90946">
        <ele>912.91</ele>
        <time>2019-06-16T09:49:47Z</time>
      </trkpt>
      <trkpt lat="46.62232" lon="5.90922">
        <ele>912.91</ele>
        <time>2019-06-16T09:49:58Z</time>
      </trkpt>
      <trkpt lat="46.62229" lon="5.90912">
        <ele>912.91</ele>
        <time>2019-06-16T09:50:04Z</time>
      </trkpt>
      <trkpt lat="46.62219" lon="5.909">
        <ele>913.87</ele>
        <time>2019-06-16T09:50:15Z</time>
      </trkpt>
      <trkpt lat="46.62216" lon="5.90897">
        <ele>913.87</ele>
        <time>2019-06-16T09:50:18Z</time>
      </trkpt>
      <trkpt lat="46.62206" lon="5.90892">
        <ele>912.91</ele>
        <time>2019-06-16T09:50:30Z</time>
      </trkpt>
      <trkpt lat="46.62203" lon="5.90892">
        <ele>912.43</ele>
        <time>2019-06-16T09:50:41Z</time>
      </trkpt>
      <trkpt lat="46.62197" lon="5.90893">
        <ele>911.95</ele>
        <time>2019-06-16T09:50:49Z</time>
      </trkpt>
      <trkpt lat="46.6219" lon="5.90895">
        <ele>910.51</ele>
        <time>2019-06-16T09:50:58Z</time>
      </trkpt>
      <trkpt lat="46.62185" lon="5.90895">
        <ele>910.99</ele>
        <time>2019-06-16T09:51:02Z</time>
      </trkpt>
      <trkpt lat="46.62172" lon="5.90894">
        <ele>912.91</ele>
        <time>2019-06-16T09:51:15Z</time>
      </trkpt>
      <trkpt lat="46.62166" lon="5.90894">
        <ele>914.83</ele>
        <time>2019-06-16T09:51:29Z</time>
      </trkpt>
      <trkpt lat="46.62153" lon="5.90897">
        <ele>916.27</ele>
        <time>2019-06-16T09:51:37Z</time>
      </trkpt>
      <trkpt lat="46.62124" lon="5.90903">
        <ele>918.2</ele>
        <time>2019-06-16T09:51:49Z</time>
      </trkpt>
      <trkpt lat="46.62111" lon="5.90906">
        <ele>918.68</ele>
        <time>2019-06-16T09:51:56Z</time>
      </trkpt>
      <trkpt lat="46.62093" lon="5.90909">
        <ele>920.12</ele>
        <time>2019-06-16T09:52:07Z</time>
      </trkpt>
      <trkpt lat="46.6208" lon="5.90918">
        <ele>921.08</ele>
        <time>2019-06-16T09:52:19Z</time>
      </trkpt>
      <trkpt lat="46.62069" lon="5.90933">
        <ele>923.48</ele>
        <time>2019-06-16T09:52:33Z</time>
      </trkpt>
      <trkpt lat="46.62067" lon="5.90936">
        <ele>923.48</ele>
        <time>2019-06-16T09:52:37Z</time>
      </trkpt>
      <trkpt lat="46.62061" lon="5.90949">
        <ele>923.96</ele>
        <time>2019-06-16T09:52:48Z</time>
      </trkpt>
      <trkpt lat="46.62055" lon="5.90961">
        <ele>925.41</ele>
        <time>2019-06-16T09:53:00Z</time>
      </trkpt>
      <trkpt lat="46.62054" lon="5.90965">
        <ele>926.85</ele>
        <time>2019-06-16T09:53:13Z</time>
      </trkpt>
      <trkpt lat="46.6205" lon="5.90972">
        <ele>926.37</ele>
        <time>2019-06-16T09:53:23Z</time>
      </trkpt>
      <trkpt lat="46.62044" lon="5.9098">
        <ele>924.93</ele>
        <time>2019-06-16T09:53:34Z</time>
      </trkpt>
      <trkpt lat="46.62018" lon="5.90982">
        <ele>925.41</ele>
        <time>2019-06-16T09:53:47Z</time>
      </trkpt>
      <trkpt lat="46.62019" lon="5.90982">
        <ele>926.37</ele>
        <time>2019-06-16T09:53:54Z</time>
      </trkpt>
      <trkpt lat="46.62019" lon="5.90979">
        <ele>926.37</ele>
        <time>2019-06-16T09:53:58Z</time>
      </trkpt>
      <trkpt lat="46.62013" lon="5.90967">
        <ele>928.29</ele>
        <time>2019-06-16T09:54:10Z</time>
      </trkpt>
      <trkpt lat="46.62002" lon="5.9096">
        <ele>929.25</ele>
        <time>2019-06-16T09:54:19Z</time>
      </trkpt>
      <trkpt lat="46.62" lon="5.90951">
        <ele>930.69</ele>
        <time>2019-06-16T09:54:29Z</time>
      </trkpt>
      <trkpt lat="46.62001" lon="5.90951">
        <ele>930.69</ele>
        <time>2019-06-16T09:54:30Z</time>
      </trkpt>
      <trkpt lat="46.62002" lon="5.90939">
        <ele>933.1</ele>
        <time>2019-06-16T09:54:37Z</time>
      </trkpt>
      <trkpt lat="46.61992" lon="5.90925">
        <ele>934.54</ele>
        <time>2019-06-16T09:54:48Z</time>
      </trkpt>
      <trkpt lat="46.61992" lon="5.90917">
        <ele>935.02</ele>
        <time>2019-06-16T09:54:59Z</time>
      </trkpt>
      <trkpt lat="46.61992" lon="5.90916">
        <ele>935.5</ele>
        <time>2019-06-16T09:55:00Z</time>
      </trkpt>
      <trkpt lat="46.61994" lon="5.90913">
        <ele>935.98</ele>
        <time>2019-06-16T09:55:06Z</time>
      </trkpt>
      <trkpt lat="46.61995" lon="5.90899">
        <ele>937.42</ele>
        <time>2019-06-16T09:55:18Z</time>
      </trkpt>
      <trkpt lat="46.62" lon="5.90888">
        <ele>938.86</ele>
        <time>2019-06-16T09:55:31Z</time>
      </trkpt>
      <trkpt lat="46.62009" lon="5.90875">
        <ele>938.86</ele>
        <time>2019-06-16T09:55:42Z</time>
      </trkpt>
      <trkpt lat="46.62018" lon="5.90861">
        <ele>938.38</ele>
        <time>2019-06-16T09:55:54Z</time>
      </trkpt>
      <trkpt lat="46.62027" lon="5.90841">
        <ele>938.86</ele>
        <time>2019-06-16T09:56:03Z</time>
      </trkpt>
      <trkpt lat="46.62028" lon="5.90823">
        <ele>940.79</ele>
        <time>2019-06-16T09:56:16Z</time>
      </trkpt>
      <trkpt lat="46.62026" lon="5.9081">
        <ele>943.19</ele>
        <time>2019-06-16T09:56:25Z</time>
      </trkpt>
      <trkpt lat="46.62029" lon="5.90804">
        <ele>944.15</ele>
        <time>2019-06-16T09:56:31Z</time>
      </trkpt>
      <trkpt lat="46.62042" lon="5.9079">
        <ele>946.56</ele>
        <time>2019-06-16T09:56:41Z</time>
      </trkpt>
      <trkpt lat="46.62063" lon="5.90774">
        <ele>948</ele>
        <time>2019-06-16T09:56:52Z</time>
      </trkpt>
      <trkpt lat="46.62061" lon="5.90761">
        <ele>947.52</ele>
        <time>2019-06-16T09:57:03Z</time>
      </trkpt>
      <trkpt lat="46.62059" lon="5.9075">
        <ele>948</ele>
        <time>2019-06-16T09:57:13Z</time>
      </trkpt>
      <trkpt lat="46.62059" lon="5.90747">
        <ele>948</ele>
        <time>2019-06-16T09:57:17Z</time>
      </trkpt>
      <trkpt lat="46.62053" lon="5.9074">
        <ele>948.96</ele>
        <time>2019-06-16T09:57:29Z</time>
      </trkpt>
      <trkpt lat="46.62052" lon="5.90734">
        <ele>949.44</ele>
        <time>2019-06-16T09:57:42Z</time>
      </trkpt>
      <trkpt lat="46.62053" lon="5.90727">
        <ele>948.96</ele>
        <time>2019-06-16T09:58:00Z</time>
      </trkpt>
      <trkpt lat="46.62053" lon="5.90726">
        <ele>948.96</ele>
        <time>2019-06-16T09:58:21Z</time>
      </trkpt>
      <trkpt lat="46.62053" lon="5.90725">
        <ele>949.44</ele>
        <time>2019-06-16T09:58:44Z</time>
      </trkpt>
      <trkpt lat="46.6205" lon="5.90714">
        <ele>949.44</ele>
        <time>2019-06-16T09:59:00Z</time>
      </trkpt>
      <trkpt lat="46.62045" lon="5.90704">
        <ele>950.4</ele>
        <time>2019-06-16T09:59:10Z</time>
      </trkpt>
      <trkpt lat="46.62043" lon="5.90698">
        <ele>950.88</ele>
        <time>2019-06-16T09:59:18Z</time>
      </trkpt>
      <trkpt lat="46.62036" lon="5.90694">
        <ele>949.92</ele>
        <time>2019-06-16T09:59:24Z</time>
      </trkpt>
      <trkpt lat="46.62033" lon="5.90696">
        <ele>949.92</ele>
        <time>2019-06-16T09:59:27Z</time>
      </trkpt>
      <trkpt lat="46.6203" lon="5.90694">
        <ele>949.44</ele>
        <time>2019-06-16T09:59:29Z</time>
      </trkpt>
      <trkpt lat="46.62022" lon="5.90685">
        <ele>948</ele>
        <time>2019-06-16T09:59:40Z</time>
      </trkpt>
      <trkpt lat="46.62012" lon="5.90674">
        <ele>947.52</ele>
        <time>2019-06-16T09:59:53Z</time>
      </trkpt>
      <trkpt lat="46.62007" lon="5.90668">
        <ele>947.52</ele>
        <time>2019-06-16T10:00:07Z</time>
      </trkpt>
      <trkpt lat="46.61997" lon="5.9066">
        <ele>948.48</ele>
        <time>2019-06-16T10:00:18Z</time>
      </trkpt>
      <trkpt lat="46.61983" lon="5.90652">
        <ele>950.4</ele>
        <time>2019-06-16T10:00:32Z</time>
      </trkpt>
      <trkpt lat="46.61971" lon="5.90642">
        <ele>952.32</ele>
        <time>2019-06-16T10:00:44Z</time>
      </trkpt>
      <trkpt lat="46.61968" lon="5.9064">
        <ele>952.8</ele>
        <time>2019-06-16T10:00:48Z</time>
      </trkpt>
      <trkpt lat="46.61961" lon="5.90635">
        <ele>953.28</ele>
        <time>2019-06-16T10:00:55Z</time>
      </trkpt>
      <trkpt lat="46.61956" lon="5.90628">
        <ele>954.25</ele>
        <time>2019-06-16T10:01:01Z</time>
      </trkpt>
      <trkpt lat="46.61952" lon="5.90625">
        <ele>954.25</ele>
        <time>2019-06-16T10:01:05Z</time>
      </trkpt>
      <trkpt lat="46.61943" lon="5.90605">
        <ele>954.25</ele>
        <time>2019-06-16T10:01:18Z</time>
      </trkpt>
      <trkpt lat="46.6193" lon="5.90589">
        <ele>952.8</ele>
        <time>2019-06-16T10:01:32Z</time>
      </trkpt>
      <trkpt lat="46.61922" lon="5.9057">
        <ele>952.32</ele>
        <time>2019-06-16T10:01:46Z</time>
      </trkpt>
      <trkpt lat="46.6191" lon="5.9056">
        <ele>951.36</ele>
        <time>2019-06-16T10:02:00Z</time>
      </trkpt>
      <trkpt lat="46.61902" lon="5.90546">
        <ele>951.84</ele>
        <time>2019-06-16T10:02:12Z</time>
      </trkpt>
      <trkpt lat="46.61892" lon="5.90534">
        <ele>951.84</ele>
        <time>2019-06-16T10:02:21Z</time>
      </trkpt>
      <trkpt lat="46.61878" lon="5.90526">
        <ele>954.25</ele>
        <time>2019-06-16T10:02:34Z</time>
      </trkpt>
      <trkpt lat="46.61874" lon="5.90524">
        <ele>954.73</ele>
        <time>2019-06-16T10:02:36Z</time>
      </trkpt>
      <trkpt lat="46.6187" lon="5.90518">
        <ele>955.21</ele>
        <time>2019-06-16T10:02:39Z</time>
      </trkpt>
      <trkpt lat="46.61856" lon="5.90503">
        <ele>958.09</ele>
        <time>2019-06-16T10:02:52Z</time>
      </trkpt>
      <trkpt lat="46.61854" lon="5.9049">
        <ele>960.98</ele>
        <time>2019-06-16T10:03:04Z</time>
      </trkpt>
      <trkpt lat="46.61854" lon="5.90481">
        <ele>963.86</ele>
        <time>2019-06-16T10:03:17Z</time>
      </trkpt>
      <trkpt lat="46.61849" lon="5.90469">
        <ele>965.78</ele>
        <time>2019-06-16T10:03:29Z</time>
      </trkpt>
      <trkpt lat="46.61841" lon="5.90454">
        <ele>966.74</ele>
        <time>2019-06-16T10:03:40Z</time>
      </trkpt>
      <trkpt lat="46.6183" lon="5.9044">
        <ele>966.74</ele>
        <time>2019-06-16T10:03:53Z</time>
      </trkpt>
      <trkpt lat="46.6182" lon="5.90431">
        <ele>966.74</ele>
        <time>2019-06-16T10:04:05Z</time>
      </trkpt>
      <trkpt lat="46.61805" lon="5.90421">
        <ele>966.26</ele>
        <time>2019-06-16T10:04:18Z</time>
      </trkpt>
      <trkpt lat="46.61804" lon="5.90421">
        <ele>965.78</ele>
        <time>2019-06-16T10:04:19Z</time>
      </trkpt>
      <trkpt lat="46.61778" lon="5.90412">
        <ele>965.78</ele>
        <time>2019-06-16T10:04:33Z</time>
      </trkpt>
      <trkpt lat="46.61767" lon="5.90405">
        <ele>964.34</ele>
        <time>2019-06-16T10:04:42Z</time>
      </trkpt>
      <trkpt lat="46.61762" lon="5.90403">
        <ele>963.86</ele>
        <time>2019-06-16T10:04:46Z</time>
      </trkpt>
      <trkpt lat="46.61746" lon="5.90402">
        <ele>961.94</ele>
        <time>2019-06-16T10:04:59Z</time>
      </trkpt>
      <trkpt lat="46.61733" lon="5.9041">
        <ele>963.38</ele>
        <time>2019-06-16T10:05:12Z</time>
      </trkpt>
      <trkpt lat="46.61727" lon="5.90416">
        <ele>965.3</ele>
        <time>2019-06-16T10:05:24Z</time>
      </trkpt>
      <trkpt lat="46.61719" lon="5.90422">
        <ele>967.22</ele>
        <time>2019-06-16T10:05:37Z</time>
      </trkpt>
      <trkpt lat="46.61713" lon="5.90437">
        <ele>969.63</ele>
        <time>2019-06-16T10:05:50Z</time>
      </trkpt>
      <trkpt lat="46.61707" lon="5.90449">
        <ele>972.03</ele>
        <time>2019-06-16T10:06:03Z</time>
      </trkpt>
      <trkpt lat="46.61694" lon="5.90447">
        <ele>972.51</ele>
        <time>2019-06-16T10:06:17Z</time>
      </trkpt>
      <trkpt lat="46.61684" lon="5.90438">
        <ele>971.55</ele>
        <time>2019-06-16T10:06:30Z</time>
      </trkpt>
      <trkpt lat="46.61679" lon="5.90438">
        <ele>971.55</ele>
        <time>2019-06-16T10:06:32Z</time>
      </trkpt>
      <trkpt lat="46.61668" lon="5.90431">
        <ele>971.55</ele>
        <time>2019-06-16T10:06:43Z</time>
      </trkpt>
      <trkpt lat="46.61651" lon="5.90423">
        <ele>972.51</ele>
        <time>2019-06-16T10:06:55Z</time>
      </trkpt>
      <trkpt lat="46.61633" lon="5.90407">
        <ele>974.91</ele>
        <time>2019-06-16T10:07:10Z</time>
      </trkpt>
      <trkpt lat="46.61632" lon="5.90405">
        <ele>974.43</ele>
        <time>2019-06-16T10:07:11Z</time>
      </trkpt>
      <trkpt lat="46.6162" lon="5.90396">
        <ele>977.32</ele>
        <time>2019-06-16T10:07:24Z</time>
      </trkpt>
      <trkpt lat="46.61606" lon="5.90382">
        <ele>977.8</ele>
        <time>2019-06-16T10:07:36Z</time>
      </trkpt>
      <trkpt lat="46.61596" lon="5.90365">
        <ele>978.76</ele>
        <time>2019-06-16T10:07:50Z</time>
      </trkpt>
      <trkpt lat="46.61588" lon="5.90354">
        <ele>978.76</ele>
        <time>2019-06-16T10:08:00Z</time>
      </trkpt>
      <trkpt lat="46.61579" lon="5.90344">
        <ele>980.2</ele>
        <time>2019-06-16T10:08:12Z</time>
      </trkpt>
      <trkpt lat="46.61572" lon="5.90335">
        <ele>982.6</ele>
        <time>2019-06-16T10:08:24Z</time>
      </trkpt>
      <trkpt lat="46.61556" lon="5.90316">
        <ele>985.49</ele>
        <time>2019-06-16T10:08:39Z</time>
      </trkpt>
      <trkpt lat="46.61546" lon="5.90306">
        <ele>985.97</ele>
        <time>2019-06-16T10:08:51Z</time>
      </trkpt>
      <trkpt lat="46.61537" lon="5.90289">
        <ele>983.09</ele>
        <time>2019-06-16T10:09:04Z</time>
      </trkpt>
      <trkpt lat="46.61535" lon="5.90288">
        <ele>982.6</ele>
        <time>2019-06-16T10:09:05Z</time>
      </trkpt>
      <trkpt lat="46.61532" lon="5.90285">
        <ele>981.64</ele>
        <time>2019-06-16T10:09:07Z</time>
      </trkpt>
      <trkpt lat="46.6152" lon="5.90277">
        <ele>980.68</ele>
        <time>2019-06-16T10:09:19Z</time>
      </trkpt>
      <trkpt lat="46.61517" lon="5.90268">
        <ele>984.05</ele>
        <time>2019-06-16T10:09:33Z</time>
      </trkpt>
      <trkpt lat="46.61507" lon="5.90259">
        <ele>984.53</ele>
        <time>2019-06-16T10:09:44Z</time>
      </trkpt>
      <trkpt lat="46.61496" lon="5.9025">
        <ele>982.12</ele>
        <time>2019-06-16T10:09:56Z</time>
      </trkpt>
      <trkpt lat="46.61484" lon="5.90239">
        <ele>981.16</ele>
        <time>2019-06-16T10:10:09Z</time>
      </trkpt>
      <trkpt lat="46.61478" lon="5.90234">
        <ele>982.12</ele>
        <time>2019-06-16T10:10:20Z</time>
      </trkpt>
      <trkpt lat="46.61475" lon="5.90234">
        <ele>982.6</ele>
        <time>2019-06-16T10:10:34Z</time>
      </trkpt>
      <trkpt lat="46.61475" lon="5.90234">
        <ele>982.6</ele>
        <time>2019-06-16T10:10:54Z</time>
      </trkpt>
      <trkpt lat="46.61475" lon="5.90233">
        <ele>982.6</ele>
        <time>2019-06-16T10:11:09Z</time>
      </trkpt>
      <trkpt lat="46.61474" lon="5.90233">
        <ele>982.6</ele>
        <time>2019-06-16T10:11:26Z</time>
      </trkpt>
      <trkpt lat="46.61474" lon="5.90233">
        <ele>983.09</ele>
        <time>2019-06-16T10:11:49Z</time>
      </trkpt>
      <trkpt lat="46.61475" lon="5.90234">
        <ele>983.09</ele>
        <time>2019-06-16T10:12:07Z</time>
      </trkpt>
      <trkpt lat="46.61475" lon="5.90235">
        <ele>983.57</ele>
        <time>2019-06-16T10:12:28Z</time>
      </trkpt>
      <trkpt lat="46.61476" lon="5.90238">
        <ele>983.09</ele>
        <time>2019-06-16T10:12:44Z</time>
      </trkpt>
      <trkpt lat="46.61476" lon="5.90238">
        <ele>983.09</ele>
        <time>2019-06-16T10:13:03Z</time>
      </trkpt>
      <trkpt lat="46.61475" lon="5.90238">
        <ele>982.6</ele>
        <time>2019-06-16T10:13:27Z</time>
      </trkpt>
      <trkpt lat="46.61475" lon="5.90238">
        <ele>983.57</ele>
        <time>2019-06-16T10:13:50Z</time>
      </trkpt>
      <trkpt lat="46.61478" lon="5.90241">
        <ele>983.09</ele>
        <time>2019-06-16T10:14:07Z</time>
      </trkpt>
      <trkpt lat="46.61481" lon="5.90245">
        <ele>983.57</ele>
        <time>2019-06-16T10:14:19Z</time>
      </trkpt>
      <trkpt lat="46.61484" lon="5.90254">
        <ele>983.57</ele>
        <time>2019-06-16T10:14:29Z</time>
      </trkpt>
      <trkpt lat="46.61494" lon="5.90263">
        <ele>983.09</ele>
        <time>2019-06-16T10:14:40Z</time>
      </trkpt>
      <trkpt lat="46.61495" lon="5.90269">
        <ele>983.09</ele>
        <time>2019-06-16T10:14:52Z</time>
      </trkpt>
      <trkpt lat="46.61496" lon="5.90271">
        <ele>982.6</ele>
        <time>2019-06-16T10:15:12Z</time>
      </trkpt>
      <trkpt lat="46.61498" lon="5.90273">
        <ele>982.12</ele>
        <time>2019-06-16T10:15:27Z</time>
      </trkpt>
      <trkpt lat="46.61499" lon="5.90275">
        <ele>982.12</ele>
        <time>2019-06-16T10:15:49Z</time>
      </trkpt>
      <trkpt lat="46.615" lon="5.90276">
        <ele>982.6</ele>
        <time>2019-06-16T10:16:08Z</time>
      </trkpt>
      <trkpt lat="46.61499" lon="5.90276">
        <ele>982.12</ele>
        <time>2019-06-16T10:16:34Z</time>
      </trkpt>
      <trkpt lat="46.615" lon="5.90276">
        <ele>982.6</ele>
        <time>2019-06-16T10:17:01Z</time>
      </trkpt>
      <trkpt lat="46.61499" lon="5.90277">
        <ele>982.12</ele>
        <time>2019-06-16T10:17:22Z</time>
      </trkpt>
      <trkpt lat="46.61499" lon="5.90278">
        <ele>974.43</ele>
        <time>2019-06-16T10:17:39Z</time>
      </trkpt>
      <trkpt lat="46.61499" lon="5.90278">
        <ele>984.05</ele>
        <time>2019-06-16T10:17:40Z</time>
      </trkpt>
      <trkpt lat="46.61499" lon="5.90277">
        <ele>982.12</ele>
        <time>2019-06-16T10:18:08Z</time>
      </trkpt>
      <trkpt lat="46.61499" lon="5.90278">
        <ele>983.57</ele>
        <time>2019-06-16T10:18:27Z</time>
      </trkpt>
      <trkpt lat="46.61499" lon="5.9028">
        <ele>983.09</ele>
        <time>2019-06-16T10:19:00Z</time>
      </trkpt>
      <trkpt lat="46.615" lon="5.9028">
        <ele>983.09</ele>
        <time>2019-06-16T10:19:21Z</time>
      </trkpt>
      <trkpt lat="46.615" lon="5.90279">
        <ele>983.57</ele>
        <time>2019-06-16T10:19:48Z</time>
      </trkpt>
      <trkpt lat="46.61501" lon="5.9028">
        <ele>983.57</ele>
        <time>2019-06-16T10:20:11Z</time>
      </trkpt>
      <trkpt lat="46.61501" lon="5.9028">
        <ele>983.57</ele>
        <time>2019-06-16T10:20:32Z</time>
      </trkpt>
      <trkpt lat="46.61501" lon="5.90279">
        <ele>983.57</ele>
        <time>2019-06-16T10:20:55Z</time>
      </trkpt>
      <trkpt lat="46.61501" lon="5.9028">
        <ele>983.57</ele>
        <time>2019-06-16T10:21:19Z</time>
      </trkpt>
      <trkpt lat="46.615" lon="5.9028">
        <ele>983.57</ele>
        <time>2019-06-16T10:21:49Z</time>
      </trkpt>
      <trkpt lat="46.615" lon="5.90279">
        <ele>984.05</ele>
        <time>2019-06-16T10:22:21Z</time>
      </trkpt>
      <trkpt lat="46.615" lon="5.90279">
        <ele>983.57</ele>
        <time>2019-06-16T10:22:50Z</time>
      </trkpt>
      <trkpt lat="46.615" lon="5.9028">
        <ele>984.53</ele>
        <time>2019-06-16T10:23:24Z</time>
      </trkpt>
      <trkpt lat="46.61501" lon="5.9028">
        <ele>984.05</ele>
        <time>2019-06-16T10:23:50Z</time>
      </trkpt>
      <trkpt lat="46.615" lon="5.9028">
        <ele>984.53</ele>
        <time>2019-06-16T10:24:14Z</time>
      </trkpt>
      <trkpt lat="46.61501" lon="5.9028">
        <ele>984.05</ele>
        <time>2019-06-16T10:24:36Z</time>
      </trkpt>
      <trkpt lat="46.61501" lon="5.9028">
        <ele>984.53</ele>
        <time>2019-06-16T10:25:01Z</time>
      </trkpt>
      <trkpt lat="46.61501" lon="5.90279">
        <ele>985.01</ele>
        <time>2019-06-16T10:25:35Z</time>
      </trkpt>
      <trkpt lat="46.61502" lon="5.9028">
        <ele>984.53</ele>
        <time>2019-06-16T10:26:10Z</time>
      </trkpt>
      <trkpt lat="46.61502" lon="5.9028">
        <ele>985.97</ele>
        <time>2019-06-16T10:26:46Z</time>
      </trkpt>
      <trkpt lat="46.61502" lon="5.9028">
        <ele>985.97</ele>
        <time>2019-06-16T10:27:18Z</time>
      </trkpt>
      <trkpt lat="46.61502" lon="5.9028">
        <ele>985.49</ele>
        <time>2019-06-16T10:27:51Z</time>
      </trkpt>
      <trkpt lat="46.61502" lon="5.90281">
        <ele>985.49</ele>
        <time>2019-06-16T10:28:27Z</time>
      </trkpt>
      <trkpt lat="46.61502" lon="5.90281">
        <ele>985.97</ele>
        <time>2019-06-16T10:28:58Z</time>
      </trkpt>
      <trkpt lat="46.61501" lon="5.90281">
        <ele>985.49</ele>
        <time>2019-06-16T10:29:26Z</time>
      </trkpt>
      <trkpt lat="46.61501" lon="5.90281">
        <ele>985.97</ele>
        <time>2019-06-16T10:29:54Z</time>
      </trkpt>
      <trkpt lat="46.61501" lon="5.9028">
        <ele>985.49</ele>
        <time>2019-06-16T10:30:23Z</time>
      </trkpt>
      <trkpt lat="46.61501" lon="5.9028">
        <ele>986.45</ele>
        <time>2019-06-16T10:30:51Z</time>
      </trkpt>
      <trkpt lat="46.61501" lon="5.90279">
        <ele>986.45</ele>
        <time>2019-06-16T10:31:23Z</time>
      </trkpt>
      <trkpt lat="46.61501" lon="5.90279">
        <ele>985.97</ele>
        <time>2019-06-16T10:31:49Z</time>
      </trkpt>
      <trkpt lat="46.61501" lon="5.9028">
        <ele>985.97</ele>
        <time>2019-06-16T10:32:03Z</time>
      </trkpt>
      <trkpt lat="46.61502" lon="5.90281">
        <ele>986.45</ele>
        <time>2019-06-16T10:32:33Z</time>
      </trkpt>
      <trkpt lat="46.61503" lon="5.90282">
        <ele>986.45</ele>
        <time>2019-06-16T10:33:04Z</time>
      </trkpt>
      <trkpt lat="46.61503" lon="5.90283">
        <ele>986.45</ele>
        <time>2019-06-16T10:33:32Z</time>
      </trkpt>
      <trkpt lat="46.61503" lon="5.90283">
        <ele>986.93</ele>
        <time>2019-06-16T10:34:09Z</time>
      </trkpt>
      <trkpt lat="46.61503" lon="5.90282">
        <ele>986.93</ele>
        <time>2019-06-16T10:34:34Z</time>
      </trkpt>
      <trkpt lat="46.61503" lon="5.9028">
        <ele>987.41</ele>
        <time>2019-06-16T10:34:48Z</time>
      </trkpt>
      <trkpt lat="46.61502" lon="5.90278">
        <ele>987.41</ele>
        <time>2019-06-16T10:35:04Z</time>
      </trkpt>
      <trkpt lat="46.61503" lon="5.90276">
        <ele>987.89</ele>
        <time>2019-06-16T10:35:23Z</time>
      </trkpt>
      <trkpt lat="46.61502" lon="5.90276">
        <ele>987.41</ele>
        <time>2019-06-16T10:35:39Z</time>
      </trkpt>
      <trkpt lat="46.615" lon="5.90276">
        <ele>987.41</ele>
        <time>2019-06-16T10:35:51Z</time>
      </trkpt>
      <trkpt lat="46.61499" lon="5.90279">
        <ele>987.41</ele>
        <time>2019-06-16T10:36:10Z</time>
      </trkpt>
      <trkpt lat="46.61499" lon="5.9028">
        <ele>986.93</ele>
        <time>2019-06-16T10:36:26Z</time>
      </trkpt>
      <trkpt lat="46.61497" lon="5.90281">
        <ele>986.93</ele>
        <time>2019-06-16T10:36:58Z</time>
      </trkpt>
      <trkpt lat="46.61498" lon="5.90282">
        <ele>986.93</ele>
        <time>2019-06-16T10:37:26Z</time>
      </trkpt>
      <trkpt lat="46.61497" lon="5.90282">
        <ele>986.45</ele>
        <time>2019-06-16T10:37:47Z</time>
      </trkpt>
      <trkpt lat="46.61498" lon="5.90282">
        <ele>987.41</ele>
        <time>2019-06-16T10:38:21Z</time>
      </trkpt>
      <trkpt lat="46.61498" lon="5.90283">
        <ele>986.93</ele>
        <time>2019-06-16T10:38:51Z</time>
      </trkpt>
      <trkpt lat="46.61498" lon="5.90284">
        <ele>987.41</ele>
        <time>2019-06-16T10:39:21Z</time>
      </trkpt>
      <trkpt lat="46.61498" lon="5.90284">
        <ele>987.41</ele>
        <time>2019-06-16T10:39:50Z</time>
      </trkpt>
      <trkpt lat="46.61498" lon="5.90283">
        <ele>987.41</ele>
        <time>2019-06-16T10:40:20Z</time>
      </trkpt>
      <trkpt lat="46.61497" lon="5.90283">
        <ele>987.41</ele>
        <time>2019-06-16T10:40:49Z</time>
      </trkpt>
      <trkpt lat="46.61497" lon="5.90283">
        <ele>987.41</ele>
        <time>2019-06-16T10:41:13Z</time>
      </trkpt>
      <trkpt lat="46.61498" lon="5.90283">
        <ele>987.41</ele>
        <time>2019-06-16T10:41:49Z</time>
      </trkpt>
      <trkpt lat="46.61498" lon="5.90283">
        <ele>987.41</ele>
        <time>2019-06-16T10:42:24Z</time>
      </trkpt>
      <trkpt lat="46.61498" lon="5.90283">
        <ele>987.41</ele>
        <time>2019-06-16T10:42:56Z</time>
      </trkpt>
      <trkpt lat="46.61497" lon="5.90284">
        <ele>987.41</ele>
        <time>2019-06-16T10:43:27Z</time>
      </trkpt>
      <trkpt lat="46.61498" lon="5.90283">
        <ele>987.41</ele>
        <time>2019-06-16T10:43:58Z</time>
      </trkpt>
      <trkpt lat="46.61498" lon="5.90284">
        <ele>988.37</ele>
        <time>2019-06-16T10:44:26Z</time>
      </trkpt>
      <trkpt lat="46.61498" lon="5.90281">
        <ele>988.37</ele>
        <time>2019-06-16T10:44:46Z</time>
      </trkpt>
      <trkpt lat="46.61499" lon="5.90279">
        <ele>988.85</ele>
        <time>2019-06-16T10:45:01Z</time>
      </trkpt>
      <trkpt lat="46.61498" lon="5.90278">
        <ele>988.37</ele>
        <time>2019-06-16T10:45:22Z</time>
      </trkpt>
      <trkpt lat="46.61499" lon="5.90277">
        <ele>988.37</ele>
        <time>2019-06-16T10:45:39Z</time>
      </trkpt>
      <trkpt lat="46.61499" lon="5.90277">
        <ele>988.37</ele>
        <time>2019-06-16T10:45:52Z</time>
      </trkpt>
      <trkpt lat="46.61499" lon="5.90276">
        <ele>989.33</ele>
        <time>2019-06-16T10:46:05Z</time>
      </trkpt>
      <trkpt lat="46.61499" lon="5.90276">
        <ele>981.16</ele>
        <time>2019-06-16T10:46:08Z</time>
      </trkpt>
      <trkpt lat="46.61499" lon="5.90276">
        <ele>990.78</ele>
        <time>2019-06-16T10:46:09Z</time>
      </trkpt>
      <trkpt lat="46.61501" lon="5.90276">
        <ele>988.37</ele>
        <time>2019-06-16T10:46:21Z</time>
      </trkpt>
      <trkpt lat="46.61503" lon="5.90272">
        <ele>988.85</ele>
        <time>2019-06-16T10:47:46Z</time>
      </trkpt>
      <trkpt lat="46.61501" lon="5.90278">
        <ele>989.81</ele>
        <time>2019-06-16T10:48:04Z</time>
      </trkpt>
      <trkpt lat="46.61502" lon="5.9028">
        <ele>988.85</ele>
        <time>2019-06-16T10:48:19Z</time>
      </trkpt>
      <trkpt lat="46.615" lon="5.90275">
        <ele>989.33</ele>
        <time>2019-06-16T10:48:42Z</time>
      </trkpt>
      <trkpt lat="46.61497" lon="5.90279">
        <ele>988.85</ele>
        <time>2019-06-16T10:49:01Z</time>
      </trkpt>
      <trkpt lat="46.61491" lon="5.90288">
        <ele>988.85</ele>
        <time>2019-06-16T10:49:24Z</time>
      </trkpt>
      <trkpt lat="46.61492" lon="5.90286">
        <ele>988.85</ele>
        <time>2019-06-16T10:49:50Z</time>
      </trkpt>
      <trkpt lat="46.61494" lon="5.90284">
        <ele>988.85</ele>
        <time>2019-06-16T10:50:13Z</time>
      </trkpt>
      <trkpt lat="46.61494" lon="5.90282">
        <ele>988.85</ele>
        <time>2019-06-16T10:50:37Z</time>
      </trkpt>
      <trkpt lat="46.61495" lon="5.90281">
        <ele>988.85</ele>
        <time>2019-06-16T10:50:57Z</time>
      </trkpt>
      <trkpt lat="46.61494" lon="5.90279">
        <ele>988.37</ele>
        <time>2019-06-16T10:51:14Z</time>
      </trkpt>
      <trkpt lat="46.61493" lon="5.90278">
        <ele>988.85</ele>
        <time>2019-06-16T10:51:17Z</time>
      </trkpt>
      <trkpt lat="46.61489" lon="5.90264">
        <ele>989.33</ele>
        <time>2019-06-16T10:51:30Z</time>
      </trkpt>
      <trkpt lat="46.61487" lon="5.90246">
        <ele>988.37</ele>
        <time>2019-06-16T10:51:43Z</time>
      </trkpt>
      <trkpt lat="46.61484" lon="5.90237">
        <ele>987.41</ele>
        <time>2019-06-16T10:51:51Z</time>
      </trkpt>
      <trkpt lat="46.61483" lon="5.90223">
        <ele>985.97</ele>
        <time>2019-06-16T10:52:04Z</time>
      </trkpt>
      <trkpt lat="46.61481" lon="5.90221">
        <ele>985.49</ele>
        <time>2019-06-16T10:52:09Z</time>
      </trkpt>
      <trkpt lat="46.61475" lon="5.90215">
        <ele>983.57</ele>
        <time>2019-06-16T10:52:18Z</time>
      </trkpt>
      <trkpt lat="46.61468" lon="5.90208">
        <ele>981.16</ele>
        <time>2019-06-16T10:52:32Z</time>
      </trkpt>
      <trkpt lat="46.61466" lon="5.90211">
        <ele>979.72</ele>
        <time>2019-06-16T10:52:47Z</time>
      </trkpt>
      <trkpt lat="46.61463" lon="5.90216">
        <ele>976.84</ele>
        <time>2019-06-16T10:53:00Z</time>
      </trkpt>
      <trkpt lat="46.61461" lon="5.90218">
        <ele>974.91</ele>
        <time>2019-06-16T10:53:09Z</time>
      </trkpt>
      <trkpt lat="46.61457" lon="5.90222">
        <ele>972.03</ele>
        <time>2019-06-16T10:53:21Z</time>
      </trkpt>
      <trkpt lat="46.61454" lon="5.90226">
        <ele>970.11</ele>
        <time>2019-06-16T10:53:28Z</time>
      </trkpt>
      <trkpt lat="46.61447" lon="5.90234">
        <ele>967.22</ele>
        <time>2019-06-16T10:53:40Z</time>
      </trkpt>
      <trkpt lat="46.61439" lon="5.90245">
        <ele>964.82</ele>
        <time>2019-06-16T10:53:53Z</time>
      </trkpt>
      <trkpt lat="46.61436" lon="5.90252">
        <ele>962.42</ele>
        <time>2019-06-16T10:54:03Z</time>
      </trkpt>
      <trkpt lat="46.61435" lon="5.90261">
        <ele>959.53</ele>
        <time>2019-06-16T10:54:14Z</time>
      </trkpt>
      <trkpt lat="46.61437" lon="5.90272">
        <ele>957.13</ele>
        <time>2019-06-16T10:54:26Z</time>
      </trkpt>
      <trkpt lat="46.61436" lon="5.90275">
        <ele>954.25</ele>
        <time>2019-06-16T10:54:33Z</time>
      </trkpt>
      <trkpt lat="46.61431" lon="5.90278">
        <ele>951.36</ele>
        <time>2019-06-16T10:54:44Z</time>
      </trkpt>
      <trkpt lat="46.61426" lon="5.90277">
        <ele>948.48</ele>
        <time>2019-06-16T10:54:56Z</time>
      </trkpt>
      <trkpt lat="46.6142" lon="5.90279">
        <ele>945.59</ele>
        <time>2019-06-16T10:55:09Z</time>
      </trkpt>
      <trkpt lat="46.6142" lon="5.90279">
        <ele>945.59</ele>
        <time>2019-06-16T10:55:10Z</time>
      </trkpt>
      <trkpt lat="46.61413" lon="5.90283">
        <ele>942.71</ele>
        <time>2019-06-16T10:55:19Z</time>
      </trkpt>
      <trkpt lat="46.61399" lon="5.90284">
        <ele>939.35</ele>
        <time>2019-06-16T10:55:30Z</time>
      </trkpt>
      <trkpt lat="46.61386" lon="5.90288">
        <ele>937.42</ele>
        <time>2019-06-16T10:55:43Z</time>
      </trkpt>
      <trkpt lat="46.61387" lon="5.90289">
        <ele>937.42</ele>
        <time>2019-06-16T10:55:57Z</time>
      </trkpt>
      <trkpt lat="46.61381" lon="5.90281">
        <ele>935.98</ele>
        <time>2019-06-16T10:56:11Z</time>
      </trkpt>
      <trkpt lat="46.61371" lon="5.90279">
        <ele>935.02</ele>
        <time>2019-06-16T10:56:21Z</time>
      </trkpt>
      <trkpt lat="46.61361" lon="5.90273">
        <ele>934.06</ele>
        <time>2019-06-16T10:56:33Z</time>
      </trkpt>
      <trkpt lat="46.6135" lon="5.90258">
        <ele>933.58</ele>
        <time>2019-06-16T10:56:46Z</time>
      </trkpt>
      <trkpt lat="46.61338" lon="5.90243">
        <ele>931.17</ele>
        <time>2019-06-16T10:56:58Z</time>
      </trkpt>
      <trkpt lat="46.61332" lon="5.90232">
        <ele>929.73</ele>
        <time>2019-06-16T10:57:09Z</time>
      </trkpt>
      <trkpt lat="46.6133" lon="5.90225">
        <ele>928.29</ele>
        <time>2019-06-16T10:57:21Z</time>
      </trkpt>
      <trkpt lat="46.61318" lon="5.90215">
        <ele>926.37</ele>
        <time>2019-06-16T10:57:35Z</time>
      </trkpt>
      <trkpt lat="46.61314" lon="5.9021">
        <ele>924.45</ele>
        <time>2019-06-16T10:57:49Z</time>
      </trkpt>
      <trkpt lat="46.61311" lon="5.90208">
        <ele>923.48</ele>
        <time>2019-06-16T10:57:53Z</time>
      </trkpt>
      <trkpt lat="46.613" lon="5.90207">
        <ele>921.08</ele>
        <time>2019-06-16T10:58:05Z</time>
      </trkpt>
      <trkpt lat="46.61296" lon="5.90205">
        <ele>918.68</ele>
        <time>2019-06-16T10:58:18Z</time>
      </trkpt>
      <trkpt lat="46.61289" lon="5.90193">
        <ele>916.27</ele>
        <time>2019-06-16T10:58:31Z</time>
      </trkpt>
      <trkpt lat="46.61287" lon="5.90187">
        <ele>915.31</ele>
        <time>2019-06-16T10:58:47Z</time>
      </trkpt>
      <trkpt lat="46.61285" lon="5.90179">
        <ele>913.39</ele>
        <time>2019-06-16T10:58:59Z</time>
      </trkpt>
      <trkpt lat="46.61279" lon="5.9017">
        <ele>910.03</ele>
        <time>2019-06-16T10:59:12Z</time>
      </trkpt>
      <trkpt lat="46.61268" lon="5.90163">
        <ele>908.58</ele>
        <time>2019-06-16T10:59:25Z</time>
      </trkpt>
      <trkpt lat="46.61261" lon="5.90165">
        <ele>906.66</ele>
        <time>2019-06-16T10:59:37Z</time>
      </trkpt>
      <trkpt lat="46.61251" lon="5.90171">
        <ele>904.74</ele>
        <time>2019-06-16T10:59:48Z</time>
      </trkpt>
      <trkpt lat="46.61245" lon="5.90175">
        <ele>903.3</ele>
        <time>2019-06-16T11:00:00Z</time>
      </trkpt>
      <trkpt lat="46.61242" lon="5.90173">
        <ele>901.37</ele>
        <time>2019-06-16T11:00:10Z</time>
      </trkpt>
      <trkpt lat="46.61241" lon="5.90169">
        <ele>898.97</ele>
        <time>2019-06-16T11:00:25Z</time>
      </trkpt>
      <trkpt lat="46.61241" lon="5.90163">
        <ele>897.53</ele>
        <time>2019-06-16T11:00:39Z</time>
      </trkpt>
      <trkpt lat="46.61233" lon="5.90144">
        <ele>896.09</ele>
        <time>2019-06-16T11:00:54Z</time>
      </trkpt>
      <trkpt lat="46.61229" lon="5.90146">
        <ele>894.64</ele>
        <time>2019-06-16T11:01:07Z</time>
      </trkpt>
      <trkpt lat="46.61222" lon="5.90151">
        <ele>893.2</ele>
        <time>2019-06-16T11:01:20Z</time>
      </trkpt>
      <trkpt lat="46.61221" lon="5.90147">
        <ele>889.84</ele>
        <time>2019-06-16T11:01:36Z</time>
      </trkpt>
      <trkpt lat="46.6122" lon="5.90142">
        <ele>887.91</ele>
        <time>2019-06-16T11:01:49Z</time>
      </trkpt>
      <trkpt lat="46.61214" lon="5.90127">
        <ele>885.51</ele>
        <time>2019-06-16T11:02:00Z</time>
      </trkpt>
      <trkpt lat="46.61212" lon="5.90129">
        <ele>883.59</ele>
        <time>2019-06-16T11:02:12Z</time>
      </trkpt>
      <trkpt lat="46.61201" lon="5.90128">
        <ele>881.67</ele>
        <time>2019-06-16T11:02:25Z</time>
      </trkpt>
      <trkpt lat="46.61186" lon="5.9013">
        <ele>879.74</ele>
        <time>2019-06-16T11:02:39Z</time>
      </trkpt>
      <trkpt lat="46.61176" lon="5.90128">
        <ele>877.82</ele>
        <time>2019-06-16T11:02:52Z</time>
      </trkpt>
      <trkpt lat="46.61165" lon="5.90137">
        <ele>875.42</ele>
        <time>2019-06-16T11:03:05Z</time>
      </trkpt>
      <trkpt lat="46.61158" lon="5.90142">
        <ele>874.46</ele>
        <time>2019-06-16T11:03:18Z</time>
      </trkpt>
      <trkpt lat="46.61153" lon="5.90142">
        <ele>872.05</ele>
        <time>2019-06-16T11:03:32Z</time>
      </trkpt>
      <trkpt lat="46.6115" lon="5.9014">
        <ele>871.57</ele>
        <time>2019-06-16T11:03:46Z</time>
      </trkpt>
      <trkpt lat="46.61144" lon="5.90142">
        <ele>870.13</ele>
        <time>2019-06-16T11:04:04Z</time>
      </trkpt>
      <trkpt lat="46.6113" lon="5.90148">
        <ele>871.09</ele>
        <time>2019-06-16T11:04:17Z</time>
      </trkpt>
      <trkpt lat="46.61123" lon="5.90149">
        <ele>870.61</ele>
        <time>2019-06-16T11:04:30Z</time>
      </trkpt>
      <trkpt lat="46.61114" lon="5.90153">
        <ele>869.65</ele>
        <time>2019-06-16T11:04:44Z</time>
      </trkpt>
      <trkpt lat="46.61104" lon="5.90157">
        <ele>868.21</ele>
        <time>2019-06-16T11:04:56Z</time>
      </trkpt>
      <trkpt lat="46.61098" lon="5.90157">
        <ele>867.25</ele>
        <time>2019-06-16T11:05:08Z</time>
      </trkpt>
      <trkpt lat="46.61097" lon="5.90159">
        <ele>867.73</ele>
        <time>2019-06-16T11:05:24Z</time>
      </trkpt>
      <trkpt lat="46.611" lon="5.90155">
        <ele>866.77</ele>
        <time>2019-06-16T11:05:45Z</time>
      </trkpt>
      <trkpt lat="46.61111" lon="5.90141">
        <ele>865.32</ele>
        <time>2019-06-16T11:05:58Z</time>
      </trkpt>
      <trkpt lat="46.61119" lon="5.9013">
        <ele>863.4</ele>
        <time>2019-06-16T11:06:09Z</time>
      </trkpt>
      <trkpt lat="46.61129" lon="5.90115">
        <ele>861</ele>
        <time>2019-06-16T11:06:21Z</time>
      </trkpt>
      <trkpt lat="46.61136" lon="5.90096">
        <ele>859.56</ele>
        <time>2019-06-16T11:06:34Z</time>
      </trkpt>
      <trkpt lat="46.61135" lon="5.90079">
        <ele>858.11</ele>
        <time>2019-06-16T11:06:45Z</time>
      </trkpt>
      <trkpt lat="46.61134" lon="5.90056">
        <ele>855.23</ele>
        <time>2019-06-16T11:07:00Z</time>
      </trkpt>
      <trkpt lat="46.61136" lon="5.90037">
        <ele>853.31</ele>
        <time>2019-06-16T11:07:11Z</time>
      </trkpt>
      <trkpt lat="46.61139" lon="5.90014">
        <ele>850.42</ele>
        <time>2019-06-16T11:07:24Z</time>
      </trkpt>
      <trkpt lat="46.61141" lon="5.89995">
        <ele>848.02</ele>
        <time>2019-06-16T11:07:36Z</time>
      </trkpt>
      <trkpt lat="46.61146" lon="5.89982">
        <ele>846.58</ele>
        <time>2019-06-16T11:07:47Z</time>
      </trkpt>
      <trkpt lat="46.61148" lon="5.89968">
        <ele>845.14</ele>
        <time>2019-06-16T11:07:52Z</time>
      </trkpt>
      <trkpt lat="46.61155" lon="5.8994">
        <ele>843.21</ele>
        <time>2019-06-16T11:08:05Z</time>
      </trkpt>
      <trkpt lat="46.61154" lon="5.89922">
        <ele>841.77</ele>
        <time>2019-06-16T11:08:18Z</time>
      </trkpt>
      <trkpt lat="46.61153" lon="5.89938">
        <ele>841.29</ele>
        <time>2019-06-16T11:08:34Z</time>
      </trkpt>
      <trkpt lat="46.61143" lon="5.89955">
        <ele>841.29</ele>
        <time>2019-06-16T11:08:46Z</time>
      </trkpt>
      <trkpt lat="46.61141" lon="5.89965">
        <ele>841.77</ele>
        <time>2019-06-16T11:08:53Z</time>
      </trkpt>
      <trkpt lat="46.61136" lon="5.89976">
        <ele>841.77</ele>
        <time>2019-06-16T11:09:04Z</time>
      </trkpt>
      <trkpt lat="46.61137" lon="5.89976">
        <ele>841.77</ele>
        <time>2019-06-16T11:09:34Z</time>
      </trkpt>
      <trkpt lat="46.6114" lon="5.89966">
        <ele>840.81</ele>
        <time>2019-06-16T11:09:53Z</time>
      </trkpt>
      <trkpt lat="46.61146" lon="5.89952">
        <ele>840.81</ele>
        <time>2019-06-16T11:10:07Z</time>
      </trkpt>
      <trkpt lat="46.61149" lon="5.89949">
        <ele>840.33</ele>
        <time>2019-06-16T11:10:10Z</time>
      </trkpt>
      <trkpt lat="46.61157" lon="5.89944">
        <ele>840.81</ele>
        <time>2019-06-16T11:10:17Z</time>
      </trkpt>
      <trkpt lat="46.6116" lon="5.89917">
        <ele>839.85</ele>
        <time>2019-06-16T11:10:30Z</time>
      </trkpt>
      <trkpt lat="46.61161" lon="5.89908">
        <ele>837.93</ele>
        <time>2019-06-16T11:10:43Z</time>
      </trkpt>
      <trkpt lat="46.61169" lon="5.89896">
        <ele>836</ele>
        <time>2019-06-16T11:10:54Z</time>
      </trkpt>
      <trkpt lat="46.61174" lon="5.89888">
        <ele>834.08</ele>
        <time>2019-06-16T11:11:06Z</time>
      </trkpt>
      <trkpt lat="46.61184" lon="5.89869">
        <ele>832.16</ele>
        <time>2019-06-16T11:11:20Z</time>
      </trkpt>
      <trkpt lat="46.612" lon="5.89852">
        <ele>829.76</ele>
        <time>2019-06-16T11:11:34Z</time>
      </trkpt>
      <trkpt lat="46.61218" lon="5.89831">
        <ele>827.35</ele>
        <time>2019-06-16T11:11:48Z</time>
      </trkpt>
      <trkpt lat="46.61229" lon="5.89817">
        <ele>825.91</ele>
        <time>2019-06-16T11:12:04Z</time>
      </trkpt>
      <trkpt lat="46.6124" lon="5.89804">
        <ele>823.99</ele>
        <time>2019-06-16T11:12:17Z</time>
      </trkpt>
      <trkpt lat="46.6125" lon="5.89795">
        <ele>822.55</ele>
        <time>2019-06-16T11:12:28Z</time>
      </trkpt>
      <trkpt lat="46.61264" lon="5.89783">
        <ele>821.1</ele>
        <time>2019-06-16T11:12:40Z</time>
      </trkpt>
      <trkpt lat="46.61277" lon="5.89776">
        <ele>819.18</ele>
        <time>2019-06-16T11:12:54Z</time>
      </trkpt>
      <trkpt lat="46.61296" lon="5.89762">
        <ele>816.78</ele>
        <time>2019-06-16T11:13:08Z</time>
      </trkpt>
      <trkpt lat="46.61304" lon="5.89756">
        <ele>815.82</ele>
        <time>2019-06-16T11:13:18Z</time>
      </trkpt>
      <trkpt lat="46.61316" lon="5.89735">
        <ele>814.37</ele>
        <time>2019-06-16T11:13:31Z</time>
      </trkpt>
      <trkpt lat="46.61327" lon="5.89719">
        <ele>813.41</ele>
        <time>2019-06-16T11:13:42Z</time>
      </trkpt>
      <trkpt lat="46.61337" lon="5.89701">
        <ele>812.45</ele>
        <time>2019-06-16T11:13:55Z</time>
      </trkpt>
      <trkpt lat="46.6134" lon="5.89693">
        <ele>812.93</ele>
        <time>2019-06-16T11:14:06Z</time>
      </trkpt>
      <trkpt lat="46.61341" lon="5.89679">
        <ele>812.93</ele>
        <time>2019-06-16T11:14:20Z</time>
      </trkpt>
      <trkpt lat="46.6134" lon="5.89672">
        <ele>812.93</ele>
        <time>2019-06-16T11:14:28Z</time>
      </trkpt>
      <trkpt lat="46.61338" lon="5.89656">
        <ele>813.89</ele>
        <time>2019-06-16T11:14:36Z</time>
      </trkpt>
      <trkpt lat="46.61336" lon="5.89649">
        <ele>813.89</ele>
        <time>2019-06-16T11:14:41Z</time>
      </trkpt>
      <trkpt lat="46.61324" lon="5.89619">
        <ele>814.37</ele>
        <time>2019-06-16T11:14:50Z</time>
      </trkpt>
      <trkpt lat="46.61315" lon="5.89579">
        <ele>814.85</ele>
        <time>2019-06-16T11:15:04Z</time>
      </trkpt>
      <trkpt lat="46.61305" lon="5.89559">
        <ele>816.3</ele>
        <time>2019-06-16T11:15:17Z</time>
      </trkpt>
      <trkpt lat="46.61302" lon="5.89545">
        <ele>816.78</ele>
        <time>2019-06-16T11:15:27Z</time>
      </trkpt>
      <trkpt lat="46.61295" lon="5.89535">
        <ele>816.78</ele>
        <time>2019-06-16T11:15:34Z</time>
      </trkpt>
      <trkpt lat="46.61291" lon="5.89527">
        <ele>815.82</ele>
        <time>2019-06-16T11:15:39Z</time>
      </trkpt>
      <trkpt lat="46.61291" lon="5.89523">
        <ele>815.82</ele>
        <time>2019-06-16T11:15:42Z</time>
      </trkpt>
      <trkpt lat="46.61291" lon="5.89519">
        <ele>815.82</ele>
        <time>2019-06-16T11:15:44Z</time>
      </trkpt>
      <trkpt lat="46.61288" lon="5.89497">
        <ele>814.85</ele>
        <time>2019-06-16T11:15:56Z</time>
      </trkpt>
      <trkpt lat="46.61283" lon="5.89475">
        <ele>813.89</ele>
        <time>2019-06-16T11:16:09Z</time>
      </trkpt>
      <trkpt lat="46.61282" lon="5.89471">
        <ele>813.41</ele>
        <time>2019-06-16T11:16:33Z</time>
      </trkpt>
      <trkpt lat="46.61282" lon="5.89472">
        <ele>813.41</ele>
        <time>2019-06-16T11:16:56Z</time>
      </trkpt>
      <trkpt lat="46.61287" lon="5.89467">
        <ele>811.01</ele>
        <time>2019-06-16T11:17:16Z</time>
      </trkpt>
      <trkpt lat="46.6129" lon="5.89466">
        <ele>808.61</ele>
        <time>2019-06-16T11:17:31Z</time>
      </trkpt>
      <trkpt lat="46.61294" lon="5.89466">
        <ele>806.2</ele>
        <time>2019-06-16T11:17:45Z</time>
      </trkpt>
      <trkpt lat="46.61295" lon="5.89464">
        <ele>805.24</ele>
        <time>2019-06-16T11:17:47Z</time>
      </trkpt>
      <trkpt lat="46.61311" lon="5.89462">
        <ele>804.76</ele>
        <time>2019-06-16T11:17:52Z</time>
      </trkpt>
      <trkpt lat="46.61336" lon="5.89444">
        <ele>803.32</ele>
        <time>2019-06-16T11:18:04Z</time>
      </trkpt>
      <trkpt lat="46.61342" lon="5.89429">
        <ele>801.88</ele>
        <time>2019-06-16T11:18:15Z</time>
      </trkpt>
      <trkpt lat="46.61339" lon="5.89413">
        <ele>800.92</ele>
        <time>2019-06-16T11:18:29Z</time>
      </trkpt>
      <trkpt lat="46.61333" lon="5.89375">
        <ele>800.92</ele>
        <time>2019-06-16T11:18:42Z</time>
      </trkpt>
      <trkpt lat="46.61327" lon="5.89359">
        <ele>800.92</ele>
        <time>2019-06-16T11:18:52Z</time>
      </trkpt>
      <trkpt lat="46.61314" lon="5.89348">
        <ele>801.4</ele>
        <time>2019-06-16T11:19:03Z</time>
      </trkpt>
      <trkpt lat="46.61307" lon="5.89332">
        <ele>801.88</ele>
        <time>2019-06-16T11:19:16Z</time>
      </trkpt>
      <trkpt lat="46.61306" lon="5.89324">
        <ele>802.36</ele>
        <time>2019-06-16T11:19:31Z</time>
      </trkpt>
      <trkpt lat="46.61307" lon="5.89323">
        <ele>801.88</ele>
        <time>2019-06-16T11:19:32Z</time>
      </trkpt>
      <trkpt lat="46.61312" lon="5.89302">
        <ele>799.95</ele>
        <time>2019-06-16T11:19:45Z</time>
      </trkpt>
      <trkpt lat="46.61315" lon="5.89293">
        <ele>799.47</ele>
        <time>2019-06-16T11:19:50Z</time>
      </trkpt>
      <trkpt lat="46.61318" lon="5.89286">
        <ele>798.51</ele>
        <time>2019-06-16T11:19:54Z</time>
      </trkpt>
      <trkpt lat="46.61323" lon="5.89274">
        <ele>797.55</ele>
        <time>2019-06-16T11:20:00Z</time>
      </trkpt>
      <trkpt lat="46.61331" lon="5.89256">
        <ele>796.59</ele>
        <time>2019-06-16T11:20:11Z</time>
      </trkpt>
      <trkpt lat="46.61333" lon="5.89247">
        <ele>796.11</ele>
        <time>2019-06-16T11:20:15Z</time>
      </trkpt>
      <trkpt lat="46.61341" lon="5.89237">
        <ele>794.67</ele>
        <time>2019-06-16T11:20:24Z</time>
      </trkpt>
      <trkpt lat="46.61352" lon="5.89221">
        <ele>793.22</ele>
        <time>2019-06-16T11:20:37Z</time>
      </trkpt>
      <trkpt lat="46.61354" lon="5.89219">
        <ele>792.74</ele>
        <time>2019-06-16T11:20:39Z</time>
      </trkpt>
      <trkpt lat="46.6137" lon="5.89207">
        <ele>791.78</ele>
        <time>2019-06-16T11:20:54Z</time>
      </trkpt>
      <trkpt lat="46.61381" lon="5.89195">
        <ele>790.82</ele>
        <time>2019-06-16T11:21:08Z</time>
      </trkpt>
      <trkpt lat="46.6139" lon="5.89184">
        <ele>788.9</ele>
        <time>2019-06-16T11:21:20Z</time>
      </trkpt>
      <trkpt lat="46.61398" lon="5.89175">
        <ele>787.46</ele>
        <time>2019-06-16T11:21:31Z</time>
      </trkpt>
      <trkpt lat="46.61407" lon="5.8917">
        <ele>786.02</ele>
        <time>2019-06-16T11:21:43Z</time>
      </trkpt>
      <trkpt lat="46.61413" lon="5.89164">
        <ele>784.09</ele>
        <time>2019-06-16T11:21:52Z</time>
      </trkpt>
      <trkpt lat="46.61417" lon="5.89165">
        <ele>784.09</ele>
        <time>2019-06-16T11:22:17Z</time>
      </trkpt>
      <trkpt lat="46.61425" lon="5.89156">
        <ele>783.13</ele>
        <time>2019-06-16T11:22:33Z</time>
      </trkpt>
      <trkpt lat="46.61429" lon="5.89148">
        <ele>782.65</ele>
        <time>2019-06-16T11:22:45Z</time>
      </trkpt>
      <trkpt lat="46.61433" lon="5.89145">
        <ele>781.69</ele>
        <time>2019-06-16T11:23:01Z</time>
      </trkpt>
      <trkpt lat="46.61445" lon="5.89141">
        <ele>781.21</ele>
        <time>2019-06-16T11:23:20Z</time>
      </trkpt>
      <trkpt lat="46.61468" lon="5.89137">
        <ele>780.25</ele>
        <time>2019-06-16T11:23:34Z</time>
      </trkpt>
      <trkpt lat="46.6149" lon="5.89134">
        <ele>778.81</ele>
        <time>2019-06-16T11:23:49Z</time>
      </trkpt>
      <trkpt lat="46.61504" lon="5.89131">
        <ele>778.32</ele>
        <time>2019-06-16T11:24:01Z</time>
      </trkpt>
      <trkpt lat="46.61515" lon="5.89125">
        <ele>777.36</ele>
        <time>2019-06-16T11:24:11Z</time>
      </trkpt>
      <trkpt lat="46.61511" lon="5.89103">
        <ele>776.88</ele>
        <time>2019-06-16T11:24:25Z</time>
      </trkpt>
      <trkpt lat="46.615" lon="5.89086">
        <ele>775.92</ele>
        <time>2019-06-16T11:24:39Z</time>
      </trkpt>
      <trkpt lat="46.61495" lon="5.89079">
        <ele>775.44</ele>
        <time>2019-06-16T11:24:50Z</time>
      </trkpt>
      <trkpt lat="46.61483" lon="5.89066">
        <ele>774.96</ele>
        <time>2019-06-16T11:25:03Z</time>
      </trkpt>
      <trkpt lat="46.61473" lon="5.89056">
        <ele>774.48</ele>
        <time>2019-06-16T11:25:15Z</time>
      </trkpt>
      <trkpt lat="46.61468" lon="5.89051">
        <ele>774.48</ele>
        <time>2019-06-16T11:25:19Z</time>
      </trkpt>
      <trkpt lat="46.6146" lon="5.89042">
        <ele>774.48</ele>
        <time>2019-06-16T11:25:29Z</time>
      </trkpt>
      <trkpt lat="46.61448" lon="5.89023">
        <ele>774.48</ele>
        <time>2019-06-16T11:25:40Z</time>
      </trkpt>
      <trkpt lat="46.61447" lon="5.8902">
        <ele>774</ele>
        <time>2019-06-16T11:25:44Z</time>
      </trkpt>
      <trkpt lat="46.61445" lon="5.89016">
        <ele>774</ele>
        <time>2019-06-16T11:25:47Z</time>
      </trkpt>
      <trkpt lat="46.61442" lon="5.89011">
        <ele>774</ele>
        <time>2019-06-16T11:25:51Z</time>
      </trkpt>
      <trkpt lat="46.61437" lon="5.88998">
        <ele>773.52</ele>
        <time>2019-06-16T11:25:57Z</time>
      </trkpt>
      <trkpt lat="46.61429" lon="5.8898">
        <ele>773.04</ele>
        <time>2019-06-16T11:26:10Z</time>
      </trkpt>
      <trkpt lat="46.61426" lon="5.88964">
        <ele>772.08</ele>
        <time>2019-06-16T11:26:22Z</time>
      </trkpt>
      <trkpt lat="46.61426" lon="5.88943">
        <ele>770.63</ele>
        <time>2019-06-16T11:26:37Z</time>
      </trkpt>
      <trkpt lat="46.61428" lon="5.88926">
        <ele>769.67</ele>
        <time>2019-06-16T11:26:48Z</time>
      </trkpt>
      <trkpt lat="46.61428" lon="5.88902">
        <ele>769.19</ele>
        <time>2019-06-16T11:27:02Z</time>
      </trkpt>
      <trkpt lat="46.61428" lon="5.88879">
        <ele>768.23</ele>
        <time>2019-06-16T11:27:16Z</time>
      </trkpt>
      <trkpt lat="46.6143" lon="5.88858">
        <ele>767.27</ele>
        <time>2019-06-16T11:27:27Z</time>
      </trkpt>
      <trkpt lat="46.61433" lon="5.88835">
        <ele>766.79</ele>
        <time>2019-06-16T11:27:38Z</time>
      </trkpt>
      <trkpt lat="46.61434" lon="5.8883">
        <ele>766.31</ele>
        <time>2019-06-16T11:27:41Z</time>
      </trkpt>
      <trkpt lat="46.61437" lon="5.88803">
        <ele>766.31</ele>
        <time>2019-06-16T11:27:54Z</time>
      </trkpt>
      <trkpt lat="46.6144" lon="5.88784">
        <ele>766.31</ele>
        <time>2019-06-16T11:28:05Z</time>
      </trkpt>
      <trkpt lat="46.61443" lon="5.88763">
        <ele>766.31</ele>
        <time>2019-06-16T11:28:15Z</time>
      </trkpt>
      <trkpt lat="46.61443" lon="5.88759">
        <ele>766.79</ele>
        <time>2019-06-16T11:28:16Z</time>
      </trkpt>
      <trkpt lat="46.61449" lon="5.88733">
        <ele>766.79</ele>
        <time>2019-06-16T11:28:31Z</time>
      </trkpt>
      <trkpt lat="46.6145" lon="5.88715">
        <ele>766.79</ele>
        <time>2019-06-16T11:28:40Z</time>
      </trkpt>
      <trkpt lat="46.61455" lon="5.88694">
        <ele>767.27</ele>
        <time>2019-06-16T11:28:54Z</time>
      </trkpt>
      <trkpt lat="46.61458" lon="5.88679">
        <ele>767.27</ele>
        <time>2019-06-16T11:29:04Z</time>
      </trkpt>
      <trkpt lat="46.61457" lon="5.88676">
        <ele>767.27</ele>
        <time>2019-06-16T11:29:06Z</time>
      </trkpt>
      <trkpt lat="46.61462" lon="5.88655">
        <ele>768.23</ele>
        <time>2019-06-16T11:29:19Z</time>
      </trkpt>
      <trkpt lat="46.61465" lon="5.8864">
        <ele>768.23</ele>
        <time>2019-06-16T11:29:28Z</time>
      </trkpt>
      <trkpt lat="46.61472" lon="5.88616">
        <ele>768.71</ele>
        <time>2019-06-16T11:29:42Z</time>
      </trkpt>
      <trkpt lat="46.61475" lon="5.88608">
        <ele>768.23</ele>
        <time>2019-06-16T11:29:49Z</time>
      </trkpt>
      <trkpt lat="46.61478" lon="5.88591">
        <ele>768.23</ele>
        <time>2019-06-16T11:29:59Z</time>
      </trkpt>
      <trkpt lat="46.61487" lon="5.8857">
        <ele>768.23</ele>
        <time>2019-06-16T11:30:15Z</time>
      </trkpt>
      <trkpt lat="46.61484" lon="5.88558">
        <ele>768.23</ele>
        <time>2019-06-16T11:30:30Z</time>
      </trkpt>
      <trkpt lat="46.61483" lon="5.88556">
        <ele>768.23</ele>
        <time>2019-06-16T11:30:49Z</time>
      </trkpt>
      <trkpt lat="46.61482" lon="5.88554">
        <ele>768.23</ele>
        <time>2019-06-16T11:31:11Z</time>
      </trkpt>
      <trkpt lat="46.61481" lon="5.88552">
        <ele>768.23</ele>
        <time>2019-06-16T11:31:35Z</time>
      </trkpt>
      <trkpt lat="46.61472" lon="5.8855">
        <ele>766.79</ele>
        <time>2019-06-16T11:31:50Z</time>
      </trkpt>
      <trkpt lat="46.61462" lon="5.88544">
        <ele>763.9</ele>
        <time>2019-06-16T11:32:04Z</time>
      </trkpt>
      <trkpt lat="46.61449" lon="5.88534">
        <ele>761.5</ele>
        <time>2019-06-16T11:32:19Z</time>
      </trkpt>
      <trkpt lat="46.61439" lon="5.88533">
        <ele>760.06</ele>
        <time>2019-06-16T11:32:31Z</time>
      </trkpt>
      <trkpt lat="46.61424" lon="5.88531">
        <ele>758.14</ele>
        <time>2019-06-16T11:32:45Z</time>
      </trkpt>
      <trkpt lat="46.61404" lon="5.8852">
        <ele>756.21</ele>
        <time>2019-06-16T11:32:56Z</time>
      </trkpt>
      <trkpt lat="46.61392" lon="5.88509">
        <ele>754.29</ele>
        <time>2019-06-16T11:33:10Z</time>
      </trkpt>
      <trkpt lat="46.61383" lon="5.88498">
        <ele>752.37</ele>
        <time>2019-06-16T11:33:20Z</time>
      </trkpt>
      <trkpt lat="46.61376" lon="5.88494">
        <ele>751.89</ele>
        <time>2019-06-16T11:33:26Z</time>
      </trkpt>
      <trkpt lat="46.6137" lon="5.88492">
        <ele>750.93</ele>
        <time>2019-06-16T11:33:38Z</time>
      </trkpt>
      <trkpt lat="46.61362" lon="5.88487">
        <ele>750.45</ele>
        <time>2019-06-16T11:33:49Z</time>
      </trkpt>
      <trkpt lat="46.61351" lon="5.88484">
        <ele>748.52</ele>
        <time>2019-06-16T11:33:59Z</time>
      </trkpt>
      <trkpt lat="46.61329" lon="5.88483">
        <ele>746.6</ele>
        <time>2019-06-16T11:34:12Z</time>
      </trkpt>
      <trkpt lat="46.61311" lon="5.88465">
        <ele>745.16</ele>
        <time>2019-06-16T11:34:24Z</time>
      </trkpt>
      <trkpt lat="46.613" lon="5.88455">
        <ele>743.24</ele>
        <time>2019-06-16T11:34:36Z</time>
      </trkpt>
      <trkpt lat="46.61284" lon="5.8844">
        <ele>740.83</ele>
        <time>2019-06-16T11:34:50Z</time>
      </trkpt>
      <trkpt lat="46.61277" lon="5.8843">
        <ele>739.39</ele>
        <time>2019-06-16T11:34:59Z</time>
      </trkpt>
      <trkpt lat="46.61272" lon="5.88429">
        <ele>738.43</ele>
        <time>2019-06-16T11:35:06Z</time>
      </trkpt>
      <trkpt lat="46.61261" lon="5.88424">
        <ele>736.51</ele>
        <time>2019-06-16T11:35:18Z</time>
      </trkpt>
      <trkpt lat="46.61256" lon="5.88422">
        <ele>736.03</ele>
        <time>2019-06-16T11:35:21Z</time>
      </trkpt>
      <trkpt lat="46.61238" lon="5.88403">
        <ele>734.58</ele>
        <time>2019-06-16T11:35:35Z</time>
      </trkpt>
      <trkpt lat="46.6123" lon="5.88388">
        <ele>732.66</ele>
        <time>2019-06-16T11:35:48Z</time>
      </trkpt>
      <trkpt lat="46.6123" lon="5.88385">
        <ele>732.66</ele>
        <time>2019-06-16T11:36:05Z</time>
      </trkpt>
      <trkpt lat="46.61231" lon="5.88385">
        <ele>732.18</ele>
        <time>2019-06-16T11:36:24Z</time>
      </trkpt>
      <trkpt lat="46.61231" lon="5.88383">
        <ele>732.18</ele>
        <time>2019-06-16T11:36:51Z</time>
      </trkpt>
      <trkpt lat="46.61226" lon="5.88375">
        <ele>731.7</ele>
        <time>2019-06-16T11:37:07Z</time>
      </trkpt>
      <trkpt lat="46.61222" lon="5.88377">
        <ele>731.7</ele>
        <time>2019-06-16T11:37:20Z</time>
      </trkpt>
      <trkpt lat="46.61213" lon="5.88384">
        <ele>732.18</ele>
        <time>2019-06-16T11:37:34Z</time>
      </trkpt>
      <trkpt lat="46.61201" lon="5.88383">
        <ele>732.18</ele>
        <time>2019-06-16T11:37:48Z</time>
      </trkpt>
      <trkpt lat="46.61196" lon="5.88382">
        <ele>731.7</ele>
        <time>2019-06-16T11:38:11Z</time>
      </trkpt>
      <trkpt lat="46.61193" lon="5.8838">
        <ele>731.7</ele>
        <time>2019-06-16T11:38:35Z</time>
      </trkpt>
      <trkpt lat="46.61191" lon="5.88383">
        <ele>732.18</ele>
        <time>2019-06-16T11:38:51Z</time>
      </trkpt>
      <trkpt lat="46.61187" lon="5.88386">
        <ele>732.18</ele>
        <time>2019-06-16T11:39:07Z</time>
      </trkpt>
      <trkpt lat="46.61193" lon="5.88365">
        <ele>730.74</ele>
        <time>2019-06-16T11:39:20Z</time>
      </trkpt>
      <trkpt lat="46.61189" lon="5.88352">
        <ele>729.78</ele>
        <time>2019-06-16T11:39:33Z</time>
      </trkpt>
      <trkpt lat="46.61184" lon="5.88349">
        <ele>729.78</ele>
        <time>2019-06-16T11:39:40Z</time>
      </trkpt>
      <trkpt lat="46.61179" lon="5.88344">
        <ele>729.78</ele>
        <time>2019-06-16T11:39:46Z</time>
      </trkpt>
      <trkpt lat="46.61174" lon="5.88339">
        <ele>730.74</ele>
        <time>2019-06-16T11:39:52Z</time>
      </trkpt>
      <trkpt lat="46.61168" lon="5.88336">
        <ele>730.26</ele>
        <time>2019-06-16T11:39:58Z</time>
      </trkpt>
      <trkpt lat="46.61165" lon="5.88333">
        <ele>729.78</ele>
        <time>2019-06-16T11:40:01Z</time>
      </trkpt>
      <trkpt lat="46.61159" lon="5.88326">
        <ele>730.74</ele>
        <time>2019-06-16T11:40:12Z</time>
      </trkpt>
      <trkpt lat="46.61158" lon="5.88322">
        <ele>730.26</ele>
        <time>2019-06-16T11:40:28Z</time>
      </trkpt>
      <trkpt lat="46.61158" lon="5.88322">
        <ele>729.3</ele>
        <time>2019-06-16T11:40:40Z</time>
      </trkpt>
      <trkpt lat="46.61165" lon="5.88308">
        <ele>728.34</ele>
        <time>2019-06-16T11:40:52Z</time>
      </trkpt>
      <trkpt lat="46.61164" lon="5.88283">
        <ele>728.82</ele>
        <time>2019-06-16T11:41:04Z</time>
      </trkpt>
      <trkpt lat="46.61159" lon="5.88261">
        <ele>728.82</ele>
        <time>2019-06-16T11:41:16Z</time>
      </trkpt>
      <trkpt lat="46.61156" lon="5.88236">
        <ele>728.82</ele>
        <time>2019-06-16T11:41:28Z</time>
      </trkpt>
      <trkpt lat="46.61159" lon="5.88242">
        <ele>728.34</ele>
        <time>2019-06-16T11:41:41Z</time>
      </trkpt>
      <trkpt lat="46.61161" lon="5.88243">
        <ele>728.82</ele>
        <time>2019-06-16T11:42:00Z</time>
      </trkpt>
      <trkpt lat="46.61154" lon="5.88235">
        <ele>729.78</ele>
        <time>2019-06-16T11:42:11Z</time>
      </trkpt>
      <trkpt lat="46.61142" lon="5.88217">
        <ele>730.26</ele>
        <time>2019-06-16T11:42:23Z</time>
      </trkpt>
      <trkpt lat="46.61134" lon="5.88205">
        <ele>729.78</ele>
        <time>2019-06-16T11:42:34Z</time>
      </trkpt>
      <trkpt lat="46.61132" lon="5.88203">
        <ele>730.26</ele>
        <time>2019-06-16T11:42:36Z</time>
      </trkpt>
      <trkpt lat="46.61118" lon="5.88188">
        <ele>731.22</ele>
        <time>2019-06-16T11:42:49Z</time>
      </trkpt>
      <trkpt lat="46.61101" lon="5.88174">
        <ele>730.74</ele>
        <time>2019-06-16T11:43:02Z</time>
      </trkpt>
      <trkpt lat="46.61096" lon="5.8817">
        <ele>730.74</ele>
        <time>2019-06-16T11:43:20Z</time>
      </trkpt>
      <trkpt lat="46.61092" lon="5.8816">
        <ele>729.3</ele>
        <time>2019-06-16T11:43:38Z</time>
      </trkpt>
      <trkpt lat="46.61085" lon="5.88146">
        <ele>727.37</ele>
        <time>2019-06-16T11:43:47Z</time>
      </trkpt>
      <trkpt lat="46.61081" lon="5.88133">
        <ele>725.45</ele>
        <time>2019-06-16T11:43:59Z</time>
      </trkpt>
      <trkpt lat="46.6108" lon="5.88115">
        <ele>724.49</ele>
        <time>2019-06-16T11:44:10Z</time>
      </trkpt>
      <trkpt lat="46.61082" lon="5.88103">
        <ele>724.01</ele>
        <time>2019-06-16T11:44:21Z</time>
      </trkpt>
      <trkpt lat="46.61088" lon="5.88082">
        <ele>723.05</ele>
        <time>2019-06-16T11:44:33Z</time>
      </trkpt>
      <trkpt lat="46.61093" lon="5.88053">
        <ele>722.57</ele>
        <time>2019-06-16T11:44:47Z</time>
      </trkpt>
      <trkpt lat="46.61099" lon="5.8804">
        <ele>722.57</ele>
        <time>2019-06-16T11:44:57Z</time>
      </trkpt>
      <trkpt lat="46.61111" lon="5.88025">
        <ele>722.09</ele>
        <time>2019-06-16T11:45:11Z</time>
      </trkpt>
      <trkpt lat="46.61118" lon="5.88012">
        <ele>721.61</ele>
        <time>2019-06-16T11:45:22Z</time>
      </trkpt>
      <trkpt lat="46.61123" lon="5.88001">
        <ele>721.61</ele>
        <time>2019-06-16T11:45:29Z</time>
      </trkpt>
      <trkpt lat="46.61134" lon="5.8798">
        <ele>722.09</ele>
        <time>2019-06-16T11:45:40Z</time>
      </trkpt>
      <trkpt lat="46.61137" lon="5.87975">
        <ele>722.57</ele>
        <time>2019-06-16T11:45:43Z</time>
      </trkpt>
      <trkpt lat="46.61141" lon="5.87963">
        <ele>723.05</ele>
        <time>2019-06-16T11:45:51Z</time>
      </trkpt>
      <trkpt lat="46.61144" lon="5.8795">
        <ele>722.09</ele>
        <time>2019-06-16T11:45:59Z</time>
      </trkpt>
      <trkpt lat="46.61149" lon="5.87934">
        <ele>723.05</ele>
        <time>2019-06-16T11:46:11Z</time>
      </trkpt>
      <trkpt lat="46.61152" lon="5.87915">
        <ele>722.57</ele>
        <time>2019-06-16T11:46:22Z</time>
      </trkpt>
      <trkpt lat="46.61159" lon="5.87909">
        <ele>720.65</ele>
        <time>2019-06-16T11:46:33Z</time>
      </trkpt>
      <trkpt lat="46.61162" lon="5.87907">
        <ele>719.2</ele>
        <time>2019-06-16T11:46:46Z</time>
      </trkpt>
      <trkpt lat="46.61164" lon="5.87903">
        <ele>717.76</ele>
        <time>2019-06-16T11:46:56Z</time>
      </trkpt>
      <trkpt lat="46.61175" lon="5.87896">
        <ele>718.24</ele>
        <time>2019-06-16T11:47:07Z</time>
      </trkpt>
      <trkpt lat="46.61186" lon="5.87882">
        <ele>719.2</ele>
        <time>2019-06-16T11:47:18Z</time>
      </trkpt>
      <trkpt lat="46.61198" lon="5.8786">
        <ele>718.24</ele>
        <time>2019-06-16T11:47:30Z</time>
      </trkpt>
      <trkpt lat="46.61211" lon="5.87841">
        <ele>716.32</ele>
        <time>2019-06-16T11:47:43Z</time>
      </trkpt>
      <trkpt lat="46.61215" lon="5.87821">
        <ele>715.84</ele>
        <time>2019-06-16T11:47:55Z</time>
      </trkpt>
      <trkpt lat="46.61219" lon="5.87803">
        <ele>716.32</ele>
        <time>2019-06-16T11:48:07Z</time>
      </trkpt>
      <trkpt lat="46.61227" lon="5.87779">
        <ele>716.8</ele>
        <time>2019-06-16T11:48:20Z</time>
      </trkpt>
      <trkpt lat="46.6123" lon="5.87775">
        <ele>716.8</ele>
        <time>2019-06-16T11:48:23Z</time>
      </trkpt>
      <trkpt lat="46.61229" lon="5.87773">
        <ele>716.8</ele>
        <time>2019-06-16T11:48:27Z</time>
      </trkpt>
      <trkpt lat="46.61238" lon="5.87758">
        <ele>716.8</ele>
        <time>2019-06-16T11:48:38Z</time>
      </trkpt>
      <trkpt lat="46.61246" lon="5.87743">
        <ele>716.32</ele>
        <time>2019-06-16T11:48:48Z</time>
      </trkpt>
      <trkpt lat="46.61253" lon="5.87731">
        <ele>714.88</ele>
        <time>2019-06-16T11:49:00Z</time>
      </trkpt>
      <trkpt lat="46.61255" lon="5.8772">
        <ele>715.36</ele>
        <time>2019-06-16T11:49:10Z</time>
      </trkpt>
      <trkpt lat="46.61258" lon="5.87706">
        <ele>714.88</ele>
        <time>2019-06-16T11:49:21Z</time>
      </trkpt>
      <trkpt lat="46.61264" lon="5.877">
        <ele>714.88</ele>
        <time>2019-06-16T11:49:35Z</time>
      </trkpt>
      <trkpt lat="46.61269" lon="5.87683">
        <ele>714.88</ele>
        <time>2019-06-16T11:49:48Z</time>
      </trkpt>
      <trkpt lat="46.61269" lon="5.87667">
        <ele>715.36</ele>
        <time>2019-06-16T11:50:00Z</time>
      </trkpt>
      <trkpt lat="46.61273" lon="5.87648">
        <ele>714.88</ele>
        <time>2019-06-16T11:50:13Z</time>
      </trkpt>
      <trkpt lat="46.61275" lon="5.87632">
        <ele>714.88</ele>
        <time>2019-06-16T11:50:23Z</time>
      </trkpt>
      <trkpt lat="46.61277" lon="5.87624">
        <ele>714.88</ele>
        <time>2019-06-16T11:50:27Z</time>
      </trkpt>
      <trkpt lat="46.61288" lon="5.87615">
        <ele>714.4</ele>
        <time>2019-06-16T11:50:38Z</time>
      </trkpt>
      <trkpt lat="46.61299" lon="5.87601">
        <ele>714.4</ele>
        <time>2019-06-16T11:50:49Z</time>
      </trkpt>
      <trkpt lat="46.613" lon="5.87591">
        <ele>714.4</ele>
        <time>2019-06-16T11:50:59Z</time>
      </trkpt>
      <trkpt lat="46.613" lon="5.87585">
        <ele>713.92</ele>
        <time>2019-06-16T11:51:02Z</time>
      </trkpt>
      <trkpt lat="46.61301" lon="5.87582">
        <ele>713.92</ele>
        <time>2019-06-16T11:51:05Z</time>
      </trkpt>
      <trkpt lat="46.61312" lon="5.87558">
        <ele>713.92</ele>
        <time>2019-06-16T11:51:18Z</time>
      </trkpt>
      <trkpt lat="46.61315" lon="5.87554">
        <ele>713.92</ele>
        <time>2019-06-16T11:51:22Z</time>
      </trkpt>
      <trkpt lat="46.61317" lon="5.87551">
        <ele>713.92</ele>
        <time>2019-06-16T11:51:24Z</time>
      </trkpt>
      <trkpt lat="46.6131" lon="5.87515">
        <ele>713.44</ele>
        <time>2019-06-16T11:51:30Z</time>
      </trkpt>
      <trkpt lat="46.61314" lon="5.87502">
        <ele>713.92</ele>
        <time>2019-06-16T11:51:42Z</time>
      </trkpt>
      <trkpt lat="46.61316" lon="5.87496">
        <ele>713.44</ele>
        <time>2019-06-16T11:51:53Z</time>
      </trkpt>
      <trkpt lat="46.61322" lon="5.8749">
        <ele>713.44</ele>
        <time>2019-06-16T11:52:07Z</time>
      </trkpt>
      <trkpt lat="46.61326" lon="5.87478">
        <ele>713.44</ele>
        <time>2019-06-16T11:52:20Z</time>
      </trkpt>
      <trkpt lat="46.61337" lon="5.87471">
        <ele>713.44</ele>
        <time>2019-06-16T11:52:27Z</time>
      </trkpt>
      <trkpt lat="46.61338" lon="5.87468">
        <ele>712.95</ele>
        <time>2019-06-16T11:52:46Z</time>
      </trkpt>
      <trkpt lat="46.61339" lon="5.87466">
        <ele>712.95</ele>
        <time>2019-06-16T11:53:04Z</time>
      </trkpt>
      <trkpt lat="46.61344" lon="5.87462">
        <ele>712.95</ele>
        <time>2019-06-16T11:53:20Z</time>
      </trkpt>
      <trkpt lat="46.61347" lon="5.87453">
        <ele>711.51</ele>
        <time>2019-06-16T11:53:32Z</time>
      </trkpt>
      <trkpt lat="46.61352" lon="5.87439">
        <ele>710.55</ele>
        <time>2019-06-16T11:53:43Z</time>
      </trkpt>
      <trkpt lat="46.61361" lon="5.87425">
        <ele>710.07</ele>
        <time>2019-06-16T11:53:58Z</time>
      </trkpt>
      <trkpt lat="46.61371" lon="5.87411">
        <ele>709.59</ele>
        <time>2019-06-16T11:54:10Z</time>
      </trkpt>
      <trkpt lat="46.61376" lon="5.874">
        <ele>708.63</ele>
        <time>2019-06-16T11:54:21Z</time>
      </trkpt>
      <trkpt lat="46.61375" lon="5.874">
        <ele>708.63</ele>
        <time>2019-06-16T11:54:33Z</time>
      </trkpt>
      <trkpt lat="46.61366" lon="5.87395">
        <ele>708.15</ele>
        <time>2019-06-16T11:54:46Z</time>
      </trkpt>
      <trkpt lat="46.61361" lon="5.87385">
        <ele>708.15</ele>
        <time>2019-06-16T11:54:57Z</time>
      </trkpt>
      <trkpt lat="46.61357" lon="5.87375">
        <ele>708.15</ele>
        <time>2019-06-16T11:55:10Z</time>
      </trkpt>
      <trkpt lat="46.61354" lon="5.87349">
        <ele>708.15</ele>
        <time>2019-06-16T11:55:22Z</time>
      </trkpt>
      <trkpt lat="46.61351" lon="5.87338">
        <ele>708.63</ele>
        <time>2019-06-16T11:55:26Z</time>
      </trkpt>
      <trkpt lat="46.61346" lon="5.87312">
        <ele>708.63</ele>
        <time>2019-06-16T11:55:38Z</time>
      </trkpt>
      <trkpt lat="46.61341" lon="5.87282">
        <ele>708.63</ele>
        <time>2019-06-16T11:55:50Z</time>
      </trkpt>
      <trkpt lat="46.61335" lon="5.87243">
        <ele>709.11</ele>
        <time>2019-06-16T11:56:02Z</time>
      </trkpt>
      <trkpt lat="46.61335" lon="5.87222">
        <ele>708.15</ele>
        <time>2019-06-16T11:56:14Z</time>
      </trkpt>
      <trkpt lat="46.61338" lon="5.87209">
        <ele>707.67</ele>
        <time>2019-06-16T11:56:28Z</time>
      </trkpt>
      <trkpt lat="46.6134" lon="5.87182">
        <ele>707.67</ele>
        <time>2019-06-16T11:56:40Z</time>
      </trkpt>
      <trkpt lat="46.61343" lon="5.87158">
        <ele>707.19</ele>
        <time>2019-06-16T11:56:51Z</time>
      </trkpt>
      <trkpt lat="46.61347" lon="5.87124">
        <ele>708.15</ele>
        <time>2019-06-16T11:57:06Z</time>
      </trkpt>
      <trkpt lat="46.61347" lon="5.87104">
        <ele>706.71</ele>
        <time>2019-06-16T11:57:20Z</time>
      </trkpt>
      <trkpt lat="46.61347" lon="5.87075">
        <ele>705.26</ele>
        <time>2019-06-16T11:57:33Z</time>
      </trkpt>
      <trkpt lat="46.61345" lon="5.8706">
        <ele>705.26</ele>
        <time>2019-06-16T11:57:41Z</time>
      </trkpt>
      <trkpt lat="46.61346" lon="5.87049">
        <ele>704.78</ele>
        <time>2019-06-16T11:57:47Z</time>
      </trkpt>
      <trkpt lat="46.61347" lon="5.87041">
        <ele>705.26</ele>
        <time>2019-06-16T11:57:52Z</time>
      </trkpt>
      <trkpt lat="46.61348" lon="5.87025">
        <ele>704.3</ele>
        <time>2019-06-16T11:58:07Z</time>
      </trkpt>
      <trkpt lat="46.61352" lon="5.8701">
        <ele>704.78</ele>
        <time>2019-06-16T11:58:20Z</time>
      </trkpt>
      <trkpt lat="46.61354" lon="5.87003">
        <ele>704.3</ele>
        <time>2019-06-16T11:58:25Z</time>
      </trkpt>
      <trkpt lat="46.61354" lon="5.86996">
        <ele>704.3</ele>
        <time>2019-06-16T11:58:29Z</time>
      </trkpt>
      <trkpt lat="46.61356" lon="5.86988">
        <ele>703.82</ele>
        <time>2019-06-16T11:58:38Z</time>
      </trkpt>
      <trkpt lat="46.61362" lon="5.86966">
        <ele>703.82</ele>
        <time>2019-06-16T11:58:50Z</time>
      </trkpt>
      <trkpt lat="46.61369" lon="5.86946">
        <ele>703.82</ele>
        <time>2019-06-16T11:59:01Z</time>
      </trkpt>
      <trkpt lat="46.61385" lon="5.86926">
        <ele>704.3</ele>
        <time>2019-06-16T11:59:12Z</time>
      </trkpt>
      <trkpt lat="46.6139" lon="5.86919">
        <ele>704.78</ele>
        <time>2019-06-16T11:59:16Z</time>
      </trkpt>
      <trkpt lat="46.61396" lon="5.86905">
        <ele>704.78</ele>
        <time>2019-06-16T11:59:21Z</time>
      </trkpt>
      <trkpt lat="46.61394" lon="5.86875">
        <ele>705.26</ele>
        <time>2019-06-16T11:59:35Z</time>
      </trkpt>
      <trkpt lat="46.61395" lon="5.86876">
        <ele>705.26</ele>
        <time>2019-06-16T11:59:56Z</time>
      </trkpt>
      <trkpt lat="46.61396" lon="5.86873">
        <ele>705.75</ele>
        <time>2019-06-16T12:00:23Z</time>
      </trkpt>
      <trkpt lat="46.61397" lon="5.86872">
        <ele>705.26</ele>
        <time>2019-06-16T12:00:39Z</time>
      </trkpt>
      <trkpt lat="46.61401" lon="5.86867">
        <ele>705.75</ele>
        <time>2019-06-16T12:00:57Z</time>
      </trkpt>
      <trkpt lat="46.61403" lon="5.86859">
        <ele>704.3</ele>
        <time>2019-06-16T12:01:09Z</time>
      </trkpt>
      <trkpt lat="46.61407" lon="5.86849">
        <ele>701.42</ele>
        <time>2019-06-16T12:01:25Z</time>
      </trkpt>
      <trkpt lat="46.61412" lon="5.86838">
        <ele>699.98</ele>
        <time>2019-06-16T12:01:40Z</time>
      </trkpt>
      <trkpt lat="46.61417" lon="5.86832">
        <ele>699.02</ele>
        <time>2019-06-16T12:01:50Z</time>
      </trkpt>
      <trkpt lat="46.61416" lon="5.86815">
        <ele>697.09</ele>
        <time>2019-06-16T12:02:01Z</time>
      </trkpt>
      <trkpt lat="46.61422" lon="5.86811">
        <ele>696.61</ele>
        <time>2019-06-16T12:02:08Z</time>
      </trkpt>
      <trkpt lat="46.61425" lon="5.86806">
        <ele>696.61</ele>
        <time>2019-06-16T12:02:11Z</time>
      </trkpt>
      <trkpt lat="46.61432" lon="5.8679">
        <ele>694.69</ele>
        <time>2019-06-16T12:02:23Z</time>
      </trkpt>
      <trkpt lat="46.61428" lon="5.86763">
        <ele>692.77</ele>
        <time>2019-06-16T12:02:34Z</time>
      </trkpt>
      <trkpt lat="46.6143" lon="5.8676">
        <ele>692.77</ele>
        <time>2019-06-16T12:02:37Z</time>
      </trkpt>
      <trkpt lat="46.61438" lon="5.86755">
        <ele>693.73</ele>
        <time>2019-06-16T12:02:44Z</time>
      </trkpt>
      <trkpt lat="46.6144" lon="5.86744">
        <ele>693.25</ele>
        <time>2019-06-16T12:02:49Z</time>
      </trkpt>
      <trkpt lat="46.61443" lon="5.86724">
        <ele>693.25</ele>
        <time>2019-06-16T12:03:00Z</time>
      </trkpt>
      <trkpt lat="46.61449" lon="5.8671">
        <ele>692.77</ele>
        <time>2019-06-16T12:03:09Z</time>
      </trkpt>
      <trkpt lat="46.61451" lon="5.86706">
        <ele>692.77</ele>
        <time>2019-06-16T12:03:13Z</time>
      </trkpt>
      <trkpt lat="46.61462" lon="5.86701">
        <ele>693.73</ele>
        <time>2019-06-16T12:03:24Z</time>
      </trkpt>
      <trkpt lat="46.61463" lon="5.86701">
        <ele>693.25</ele>
        <time>2019-06-16T12:03:25Z</time>
      </trkpt>
      <trkpt lat="46.61472" lon="5.8668">
        <ele>692.77</ele>
        <time>2019-06-16T12:03:38Z</time>
      </trkpt>
      <trkpt lat="46.61475" lon="5.86665">
        <ele>693.25</ele>
        <time>2019-06-16T12:03:49Z</time>
      </trkpt>
      <trkpt lat="46.61484" lon="5.86667">
        <ele>693.25</ele>
        <time>2019-06-16T12:04:01Z</time>
      </trkpt>
      <trkpt lat="46.61494" lon="5.86667">
        <ele>693.25</ele>
        <time>2019-06-16T12:04:28Z</time>
      </trkpt>
      <trkpt lat="46.61492" lon="5.86666">
        <ele>693.25</ele>
        <time>2019-06-16T12:04:47Z</time>
      </trkpt>
      <trkpt lat="46.61492" lon="5.86665">
        <ele>693.73</ele>
        <time>2019-06-16T12:05:15Z</time>
      </trkpt>
      <trkpt lat="46.61492" lon="5.86664">
        <ele>693.73</ele>
        <time>2019-06-16T12:05:43Z</time>
      </trkpt>
      <trkpt lat="46.61492" lon="5.86664">
        <ele>694.21</ele>
        <time>2019-06-16T12:06:05Z</time>
      </trkpt>
      <trkpt lat="46.61492" lon="5.86663">
        <ele>694.69</ele>
        <time>2019-06-16T12:06:29Z</time>
      </trkpt>
      <trkpt lat="46.61493" lon="5.86663">
        <ele>694.69</ele>
        <time>2019-06-16T12:06:56Z</time>
      </trkpt>
      <trkpt lat="46.61494" lon="5.86663">
        <ele>694.69</ele>
        <time>2019-06-16T12:07:22Z</time>
      </trkpt>
      <trkpt lat="46.61494" lon="5.86663">
        <ele>695.17</ele>
        <time>2019-06-16T12:07:51Z</time>
      </trkpt>
      <trkpt lat="46.61493" lon="5.86662">
        <ele>695.17</ele>
        <time>2019-06-16T12:08:12Z</time>
      </trkpt>
      <trkpt lat="46.61494" lon="5.86662">
        <ele>696.13</ele>
        <time>2019-06-16T12:08:34Z</time>
      </trkpt>
      <trkpt lat="46.61494" lon="5.8666">
        <ele>696.13</ele>
        <time>2019-06-16T12:08:56Z</time>
      </trkpt>
      <trkpt lat="46.61494" lon="5.8666">
        <ele>696.13</ele>
        <time>2019-06-16T12:09:24Z</time>
      </trkpt>
      <trkpt lat="46.61495" lon="5.86661">
        <ele>695.65</ele>
        <time>2019-06-16T12:09:44Z</time>
      </trkpt>
      <trkpt lat="46.61497" lon="5.86667">
        <ele>696.13</ele>
        <time>2019-06-16T12:09:57Z</time>
      </trkpt>
      <trkpt lat="46.61499" lon="5.86667">
        <ele>696.61</ele>
        <time>2019-06-16T12:09:59Z</time>
      </trkpt>
      <trkpt lat="46.61514" lon="5.86671">
        <ele>697.09</ele>
        <time>2019-06-16T12:10:12Z</time>
      </trkpt>
      <trkpt lat="46.61533" lon="5.86689">
        <ele>697.09</ele>
        <time>2019-06-16T12:10:24Z</time>
      </trkpt>
      <trkpt lat="46.61543" lon="5.86696">
        <ele>696.13</ele>
        <time>2019-06-16T12:10:36Z</time>
      </trkpt>
      <trkpt lat="46.61551" lon="5.86701">
        <ele>697.57</ele>
        <time>2019-06-16T12:10:47Z</time>
      </trkpt>
      <trkpt lat="46.61559" lon="5.8671">
        <ele>699.98</ele>
        <time>2019-06-16T12:11:03Z</time>
      </trkpt>
      <trkpt lat="46.61576" lon="5.86716">
        <ele>702.38</ele>
        <time>2019-06-16T12:11:16Z</time>
      </trkpt>
      <trkpt lat="46.61582" lon="5.86713">
        <ele>702.86</ele>
        <time>2019-06-16T12:11:25Z</time>
      </trkpt>
      <trkpt lat="46.61587" lon="5.86706">
        <ele>703.34</ele>
        <time>2019-06-16T12:11:33Z</time>
      </trkpt>
      <trkpt lat="46.61599" lon="5.86703">
        <ele>704.78</ele>
        <time>2019-06-16T12:11:46Z</time>
      </trkpt>
      <trkpt lat="46.61604" lon="5.86701">
        <ele>705.75</ele>
        <time>2019-06-16T12:11:52Z</time>
      </trkpt>
      <trkpt lat="46.61609" lon="5.86699">
        <ele>706.71</ele>
        <time>2019-06-16T12:11:58Z</time>
      </trkpt>
      <trkpt lat="46.61621" lon="5.86692">
        <ele>707.67</ele>
        <time>2019-06-16T12:12:10Z</time>
      </trkpt>
      <trkpt lat="46.61627" lon="5.86689">
        <ele>709.59</ele>
        <time>2019-06-16T12:12:21Z</time>
      </trkpt>
      <trkpt lat="46.61634" lon="5.86666">
        <ele>711.03</ele>
        <time>2019-06-16T12:12:35Z</time>
      </trkpt>
      <trkpt lat="46.61636" lon="5.86656">
        <ele>712.47</ele>
        <time>2019-06-16T12:12:44Z</time>
      </trkpt>
      <trkpt lat="46.61641" lon="5.86636">
        <ele>713.44</ele>
        <time>2019-06-16T12:12:56Z</time>
      </trkpt>
      <trkpt lat="46.61646" lon="5.86621">
        <ele>715.36</ele>
        <time>2019-06-16T12:13:07Z</time>
      </trkpt>
      <trkpt lat="46.61651" lon="5.8661">
        <ele>716.32</ele>
        <time>2019-06-16T12:13:18Z</time>
      </trkpt>
      <trkpt lat="46.61651" lon="5.86608">
        <ele>716.32</ele>
        <time>2019-06-16T12:13:19Z</time>
      </trkpt>
      <trkpt lat="46.61658" lon="5.86588">
        <ele>718.24</ele>
        <time>2019-06-16T12:13:32Z</time>
      </trkpt>
      <trkpt lat="46.61659" lon="5.86583">
        <ele>718.72</ele>
        <time>2019-06-16T12:13:35Z</time>
      </trkpt>
      <trkpt lat="46.61667" lon="5.86573">
        <ele>720.65</ele>
        <time>2019-06-16T12:13:48Z</time>
      </trkpt>
      <trkpt lat="46.61679" lon="5.86564">
        <ele>722.09</ele>
        <time>2019-06-16T12:14:01Z</time>
      </trkpt>
      <trkpt lat="46.6168" lon="5.86563">
        <ele>722.09</ele>
        <time>2019-06-16T12:14:02Z</time>
      </trkpt>
      <trkpt lat="46.6169" lon="5.86542">
        <ele>723.53</ele>
        <time>2019-06-16T12:14:14Z</time>
      </trkpt>
      <trkpt lat="46.61692" lon="5.86526">
        <ele>724.97</ele>
        <time>2019-06-16T12:14:26Z</time>
      </trkpt>
      <trkpt lat="46.61691" lon="5.86508">
        <ele>726.89</ele>
        <time>2019-06-16T12:14:38Z</time>
      </trkpt>
      <trkpt lat="46.61692" lon="5.86501">
        <ele>727.37</ele>
        <time>2019-06-16T12:14:41Z</time>
      </trkpt>
      <trkpt lat="46.61693" lon="5.86477">
        <ele>729.3</ele>
        <time>2019-06-16T12:14:54Z</time>
      </trkpt>
      <trkpt lat="46.61693" lon="5.86476">
        <ele>728.82</ele>
        <time>2019-06-16T12:14:56Z</time>
      </trkpt>
      <trkpt lat="46.61697" lon="5.86459">
        <ele>730.74</ele>
        <time>2019-06-16T12:15:07Z</time>
      </trkpt>
      <trkpt lat="46.61698" lon="5.86443">
        <ele>732.66</ele>
        <time>2019-06-16T12:15:19Z</time>
      </trkpt>
      <trkpt lat="46.61698" lon="5.86431">
        <ele>733.14</ele>
        <time>2019-06-16T12:15:24Z</time>
      </trkpt>
      <trkpt lat="46.61699" lon="5.86422">
        <ele>734.1</ele>
        <time>2019-06-16T12:15:28Z</time>
      </trkpt>
      <trkpt lat="46.61705" lon="5.86408">
        <ele>735.07</ele>
        <time>2019-06-16T12:15:41Z</time>
      </trkpt>
      <trkpt lat="46.61711" lon="5.86398">
        <ele>736.51</ele>
        <time>2019-06-16T12:15:50Z</time>
      </trkpt>
      <trkpt lat="46.61716" lon="5.86383">
        <ele>737.47</ele>
        <time>2019-06-16T12:16:01Z</time>
      </trkpt>
      <trkpt lat="46.61718" lon="5.86377">
        <ele>738.43</ele>
        <time>2019-06-16T12:16:09Z</time>
      </trkpt>
      <trkpt lat="46.61721" lon="5.86363">
        <ele>740.35</ele>
        <time>2019-06-16T12:16:19Z</time>
      </trkpt>
      <trkpt lat="46.61721" lon="5.86337">
        <ele>741.79</ele>
        <time>2019-06-16T12:16:32Z</time>
      </trkpt>
      <trkpt lat="46.61722" lon="5.86311">
        <ele>742.76</ele>
        <time>2019-06-16T12:16:45Z</time>
      </trkpt>
      <trkpt lat="46.61721" lon="5.86289">
        <ele>744.68</ele>
        <time>2019-06-16T12:17:01Z</time>
      </trkpt>
      <trkpt lat="46.61721" lon="5.86274">
        <ele>745.64</ele>
        <time>2019-06-16T12:17:08Z</time>
      </trkpt>
      <trkpt lat="46.61721" lon="5.86247">
        <ele>746.6</ele>
        <time>2019-06-16T12:17:20Z</time>
      </trkpt>
      <trkpt lat="46.61723" lon="5.86234">
        <ele>748.04</ele>
        <time>2019-06-16T12:17:32Z</time>
      </trkpt>
      <trkpt lat="46.61727" lon="5.86212">
        <ele>749.97</ele>
        <time>2019-06-16T12:17:45Z</time>
      </trkpt>
      <trkpt lat="46.61728" lon="5.86204">
        <ele>750.93</ele>
        <time>2019-06-16T12:17:52Z</time>
      </trkpt>
      <trkpt lat="46.61733" lon="5.86179">
        <ele>752.37</ele>
        <time>2019-06-16T12:18:04Z</time>
      </trkpt>
      <trkpt lat="46.61736" lon="5.86163">
        <ele>753.81</ele>
        <time>2019-06-16T12:18:15Z</time>
      </trkpt>
      <trkpt lat="46.61737" lon="5.86162">
        <ele>754.29</ele>
        <time>2019-06-16T12:18:17Z</time>
      </trkpt>
      <trkpt lat="46.61739" lon="5.86146">
        <ele>755.73</ele>
        <time>2019-06-16T12:18:26Z</time>
      </trkpt>
      <trkpt lat="46.61736" lon="5.86122">
        <ele>756.21</ele>
        <time>2019-06-16T12:18:38Z</time>
      </trkpt>
      <trkpt lat="46.61735" lon="5.8612">
        <ele>756.69</ele>
        <time>2019-06-16T12:18:58Z</time>
      </trkpt>
      <trkpt lat="46.61738" lon="5.86128">
        <ele>755.73</ele>
        <time>2019-06-16T12:19:12Z</time>
      </trkpt>
      <trkpt lat="46.61737" lon="5.86143">
        <ele>752.85</ele>
        <time>2019-06-16T12:19:27Z</time>
      </trkpt>
      <trkpt lat="46.61725" lon="5.86145">
        <ele>753.33</ele>
        <time>2019-06-16T12:19:42Z</time>
      </trkpt>
      <trkpt lat="46.61718" lon="5.86131">
        <ele>752.85</ele>
        <time>2019-06-16T12:19:54Z</time>
      </trkpt>
      <trkpt lat="46.61708" lon="5.86122">
        <ele>752.37</ele>
        <time>2019-06-16T12:20:08Z</time>
      </trkpt>
      <trkpt lat="46.61697" lon="5.86116">
        <ele>749.97</ele>
        <time>2019-06-16T12:20:24Z</time>
      </trkpt>
      <trkpt lat="46.61688" lon="5.86111">
        <ele>747.56</ele>
        <time>2019-06-16T12:20:39Z</time>
      </trkpt>
      <trkpt lat="46.6168" lon="5.86108">
        <ele>746.12</ele>
        <time>2019-06-16T12:20:53Z</time>
      </trkpt>
      <trkpt lat="46.61675" lon="5.8611">
        <ele>742.76</ele>
        <time>2019-06-16T12:21:08Z</time>
      </trkpt>
      <trkpt lat="46.61676" lon="5.86113">
        <ele>739.87</ele>
        <time>2019-06-16T12:21:25Z</time>
      </trkpt>
      <trkpt lat="46.61675" lon="5.86114">
        <ele>736.99</ele>
        <time>2019-06-16T12:21:38Z</time>
      </trkpt>
      <trkpt lat="46.61673" lon="5.8612">
        <ele>734.1</ele>
        <time>2019-06-16T12:21:54Z</time>
      </trkpt>
      <trkpt lat="46.61663" lon="5.86133">
        <ele>730.74</ele>
        <time>2019-06-16T12:22:05Z</time>
      </trkpt>
      <trkpt lat="46.61649" lon="5.86157">
        <ele>728.34</ele>
        <time>2019-06-16T12:22:18Z</time>
      </trkpt>
      <trkpt lat="46.61638" lon="5.86173">
        <ele>724.97</ele>
        <time>2019-06-16T12:22:31Z</time>
      </trkpt>
      <trkpt lat="46.61632" lon="5.86178">
        <ele>724.01</ele>
        <time>2019-06-16T12:22:38Z</time>
      </trkpt>
      <trkpt lat="46.61629" lon="5.86177">
        <ele>724.97</ele>
        <time>2019-06-16T12:22:40Z</time>
      </trkpt>
      <trkpt lat="46.61616" lon="5.8617">
        <ele>725.45</ele>
        <time>2019-06-16T12:22:51Z</time>
      </trkpt>
      <trkpt lat="46.61609" lon="5.86173">
        <ele>727.37</ele>
        <time>2019-06-16T12:23:03Z</time>
      </trkpt>
      <trkpt lat="46.61608" lon="5.86167">
        <ele>728.34</ele>
        <time>2019-06-16T12:23:16Z</time>
      </trkpt>
      <trkpt lat="46.6161" lon="5.86145">
        <ele>729.78</ele>
        <time>2019-06-16T12:23:31Z</time>
      </trkpt>
      <trkpt lat="46.61612" lon="5.86128">
        <ele>731.7</ele>
        <time>2019-06-16T12:23:44Z</time>
      </trkpt>
      <trkpt lat="46.61613" lon="5.86117">
        <ele>731.7</ele>
        <time>2019-06-16T12:23:49Z</time>
      </trkpt>
      <trkpt lat="46.61614" lon="5.86101">
        <ele>733.14</ele>
        <time>2019-06-16T12:23:56Z</time>
      </trkpt>
      <trkpt lat="46.61615" lon="5.86087">
        <ele>733.62</ele>
        <time>2019-06-16T12:24:04Z</time>
      </trkpt>
      <trkpt lat="46.61614" lon="5.86059">
        <ele>735.55</ele>
        <time>2019-06-16T12:24:19Z</time>
      </trkpt>
      <trkpt lat="46.61614" lon="5.86029">
        <ele>737.47</ele>
        <time>2019-06-16T12:24:32Z</time>
      </trkpt>
      <trkpt lat="46.61613" lon="5.86012">
        <ele>738.91</ele>
        <time>2019-06-16T12:24:43Z</time>
      </trkpt>
      <trkpt lat="46.61614" lon="5.8599">
        <ele>740.83</ele>
        <time>2019-06-16T12:24:55Z</time>
      </trkpt>
      <trkpt lat="46.61617" lon="5.85972">
        <ele>741.79</ele>
        <time>2019-06-16T12:25:07Z</time>
      </trkpt>
      <trkpt lat="46.61622" lon="5.8595">
        <ele>744.68</ele>
        <time>2019-06-16T12:25:21Z</time>
      </trkpt>
      <trkpt lat="46.61627" lon="5.85932">
        <ele>746.12</ele>
        <time>2019-06-16T12:25:33Z</time>
      </trkpt>
      <trkpt lat="46.61628" lon="5.8593">
        <ele>746.12</ele>
        <time>2019-06-16T12:25:34Z</time>
      </trkpt>
      <trkpt lat="46.61633" lon="5.85918">
        <ele>748.04</ele>
        <time>2019-06-16T12:25:46Z</time>
      </trkpt>
      <trkpt lat="46.61631" lon="5.85902">
        <ele>748.04</ele>
        <time>2019-06-16T12:25:58Z</time>
      </trkpt>
      <trkpt lat="46.61625" lon="5.85891">
        <ele>747.08</ele>
        <time>2019-06-16T12:26:11Z</time>
      </trkpt>
      <trkpt lat="46.61621" lon="5.85883">
        <ele>743.72</ele>
        <time>2019-06-16T12:26:23Z</time>
      </trkpt>
      <trkpt lat="46.61616" lon="5.85863">
        <ele>741.79</ele>
        <time>2019-06-16T12:26:33Z</time>
      </trkpt>
      <trkpt lat="46.61615" lon="5.8585">
        <ele>740.35</ele>
        <time>2019-06-16T12:26:41Z</time>
      </trkpt>
      <trkpt lat="46.61614" lon="5.85833">
        <ele>740.35</ele>
        <time>2019-06-16T12:26:45Z</time>
      </trkpt>
      <trkpt lat="46.61618" lon="5.85803">
        <ele>742.28</ele>
        <time>2019-06-16T12:26:57Z</time>
      </trkpt>
      <trkpt lat="46.61611" lon="5.85778">
        <ele>744.68</ele>
        <time>2019-06-16T12:27:12Z</time>
      </trkpt>
      <trkpt lat="46.6161" lon="5.85775">
        <ele>744.68</ele>
        <time>2019-06-16T12:27:15Z</time>
      </trkpt>
      <trkpt lat="46.61608" lon="5.85743">
        <ele>745.64</ele>
        <time>2019-06-16T12:27:27Z</time>
      </trkpt>
      <trkpt lat="46.61607" lon="5.85717">
        <ele>747.08</ele>
        <time>2019-06-16T12:27:39Z</time>
      </trkpt>
      <trkpt lat="46.61611" lon="5.857">
        <ele>749</ele>
        <time>2019-06-16T12:27:53Z</time>
      </trkpt>
      <trkpt lat="46.61613" lon="5.85696">
        <ele>749</ele>
        <time>2019-06-16T12:28:12Z</time>
      </trkpt>
      <trkpt lat="46.61611" lon="5.85691">
        <ele>749</ele>
        <time>2019-06-16T12:28:39Z</time>
      </trkpt>
      <trkpt lat="46.61606" lon="5.85675">
        <ele>748.52</ele>
        <time>2019-06-16T12:29:06Z</time>
      </trkpt>
      <trkpt lat="46.61604" lon="5.85667">
        <ele>748.52</ele>
        <time>2019-06-16T12:29:38Z</time>
      </trkpt>
      <trkpt lat="46.61603" lon="5.85665">
        <ele>749</ele>
        <time>2019-06-16T12:30:09Z</time>
      </trkpt>
      <trkpt lat="46.61601" lon="5.85665">
        <ele>749</ele>
        <time>2019-06-16T12:30:37Z</time>
      </trkpt>
      <trkpt lat="46.61601" lon="5.85664">
        <ele>749</ele>
        <time>2019-06-16T12:31:06Z</time>
      </trkpt>
      <trkpt lat="46.61601" lon="5.85661">
        <ele>749.49</ele>
        <time>2019-06-16T12:31:40Z</time>
      </trkpt>
      <trkpt lat="46.61601" lon="5.85661">
        <ele>749</ele>
        <time>2019-06-16T12:32:01Z</time>
      </trkpt>
      <trkpt lat="46.61599" lon="5.85658">
        <ele>749.97</ele>
        <time>2019-06-16T12:32:30Z</time>
      </trkpt>
      <trkpt lat="46.61599" lon="5.85658">
        <ele>749.49</ele>
        <time>2019-06-16T12:32:51Z</time>
      </trkpt>
      <trkpt lat="46.61601" lon="5.85658">
        <ele>750.93</ele>
        <time>2019-06-16T12:33:09Z</time>
      </trkpt>
      <trkpt lat="46.61615" lon="5.85656">
        <ele>751.89</ele>
        <time>2019-06-16T12:33:22Z</time>
      </trkpt>
      <trkpt lat="46.61636" lon="5.85674">
        <ele>751.89</ele>
        <time>2019-06-16T12:33:37Z</time>
      </trkpt>
      <trkpt lat="46.61646" lon="5.85689">
        <ele>751.89</ele>
        <time>2019-06-16T12:33:44Z</time>
      </trkpt>
      <trkpt lat="46.61649" lon="5.85714">
        <ele>752.85</ele>
        <time>2019-06-16T12:33:58Z</time>
      </trkpt>
      <trkpt lat="46.61648" lon="5.85717">
        <ele>752.85</ele>
        <time>2019-06-16T12:34:01Z</time>
      </trkpt>
      <trkpt lat="46.61643" lon="5.85726">
        <ele>745.64</ele>
        <time>2019-06-16T12:34:07Z</time>
      </trkpt>
      <trkpt lat="46.61643" lon="5.85727">
        <ele>753.81</ele>
        <time>2019-06-16T12:34:08Z</time>
      </trkpt>
      <trkpt lat="46.61641" lon="5.85729">
        <ele>748.52</ele>
        <time>2019-06-16T12:34:10Z</time>
      </trkpt>
      <trkpt lat="46.6164" lon="5.8573">
        <ele>754.29</ele>
        <time>2019-06-16T12:34:11Z</time>
      </trkpt>
      <trkpt lat="46.61634" lon="5.85751">
        <ele>752.37</ele>
        <time>2019-06-16T12:34:26Z</time>
      </trkpt>
      <trkpt lat="46.61628" lon="5.85778">
        <ele>752.85</ele>
        <time>2019-06-16T12:34:41Z</time>
      </trkpt>
      <trkpt lat="46.61628" lon="5.85779">
        <ele>753.33</ele>
        <time>2019-06-16T12:34:42Z</time>
      </trkpt>
      <trkpt lat="46.61633" lon="5.85807">
        <ele>752.85</ele>
        <time>2019-06-16T12:34:59Z</time>
      </trkpt>
      <trkpt lat="46.61637" lon="5.85831">
        <ele>752.85</ele>
        <time>2019-06-16T12:35:13Z</time>
      </trkpt>
      <trkpt lat="46.61639" lon="5.85836">
        <ele>753.33</ele>
        <time>2019-06-16T12:35:16Z</time>
      </trkpt>
      <trkpt lat="46.61642" lon="5.85861">
        <ele>753.81</ele>
        <time>2019-06-16T12:35:31Z</time>
      </trkpt>
      <trkpt lat="46.61647" lon="5.85887">
        <ele>753.81</ele>
        <time>2019-06-16T12:35:45Z</time>
      </trkpt>
      <trkpt lat="46.61647" lon="5.85888">
        <ele>753.81</ele>
        <time>2019-06-16T12:35:46Z</time>
      </trkpt>
      <trkpt lat="46.61659" lon="5.85913">
        <ele>753.33</ele>
        <time>2019-06-16T12:36:01Z</time>
      </trkpt>
      <trkpt lat="46.61666" lon="5.85938">
        <ele>754.29</ele>
        <time>2019-06-16T12:36:17Z</time>
      </trkpt>
      <trkpt lat="46.61669" lon="5.8595">
        <ele>754.29</ele>
        <time>2019-06-16T12:36:23Z</time>
      </trkpt>
      <trkpt lat="46.61671" lon="5.85957">
        <ele>754.77</ele>
        <time>2019-06-16T12:36:28Z</time>
      </trkpt>
      <trkpt lat="46.61678" lon="5.8598">
        <ele>754.29</ele>
        <time>2019-06-16T12:36:43Z</time>
      </trkpt>
      <trkpt lat="46.61683" lon="5.86002">
        <ele>754.77</ele>
        <time>2019-06-16T12:36:57Z</time>
      </trkpt>
      <trkpt lat="46.61689" lon="5.86025">
        <ele>754.77</ele>
        <time>2019-06-16T12:37:10Z</time>
      </trkpt>
      <trkpt lat="46.61696" lon="5.86043">
        <ele>755.25</ele>
        <time>2019-06-16T12:37:26Z</time>
      </trkpt>
      <trkpt lat="46.61707" lon="5.8606">
        <ele>755.25</ele>
        <time>2019-06-16T12:37:40Z</time>
      </trkpt>
      <trkpt lat="46.61715" lon="5.86072">
        <ele>755.25</ele>
        <time>2019-06-16T12:37:51Z</time>
      </trkpt>
      <trkpt lat="46.61728" lon="5.86098">
        <ele>755.25</ele>
        <time>2019-06-16T12:38:04Z</time>
      </trkpt>
      <trkpt lat="46.61737" lon="5.86118">
        <ele>755.73</ele>
        <time>2019-06-16T12:38:17Z</time>
      </trkpt>
      <trkpt lat="46.6174" lon="5.86125">
        <ele>755.73</ele>
        <time>2019-06-16T12:38:22Z</time>
      </trkpt>
      <trkpt lat="46.61743" lon="5.86133">
        <ele>755.25</ele>
        <time>2019-06-16T12:38:26Z</time>
      </trkpt>
      <trkpt lat="46.61748" lon="5.86159">
        <ele>755.73</ele>
        <time>2019-06-16T12:38:42Z</time>
      </trkpt>
      <trkpt lat="46.61746" lon="5.86181">
        <ele>755.73</ele>
        <time>2019-06-16T12:38:54Z</time>
      </trkpt>
      <trkpt lat="46.61747" lon="5.86198">
        <ele>755.73</ele>
        <time>2019-06-16T12:39:04Z</time>
      </trkpt>
      <trkpt lat="46.61748" lon="5.86223">
        <ele>755.73</ele>
        <time>2019-06-16T12:39:18Z</time>
      </trkpt>
      <trkpt lat="46.6175" lon="5.86249">
        <ele>755.73</ele>
        <time>2019-06-16T12:39:32Z</time>
      </trkpt>
      <trkpt lat="46.61756" lon="5.86272">
        <ele>755.73</ele>
        <time>2019-06-16T12:39:47Z</time>
      </trkpt>
      <trkpt lat="46.6176" lon="5.86292">
        <ele>755.25</ele>
        <time>2019-06-16T12:40:00Z</time>
      </trkpt>
      <trkpt lat="46.61768" lon="5.8631">
        <ele>755.25</ele>
        <time>2019-06-16T12:40:12Z</time>
      </trkpt>
      <trkpt lat="46.61778" lon="5.86333">
        <ele>755.25</ele>
        <time>2019-06-16T12:40:25Z</time>
      </trkpt>
      <trkpt lat="46.61785" lon="5.86365">
        <ele>755.73</ele>
        <time>2019-06-16T12:40:40Z</time>
      </trkpt>
      <trkpt lat="46.61783" lon="5.8639">
        <ele>755.73</ele>
        <time>2019-06-16T12:40:53Z</time>
      </trkpt>
      <trkpt lat="46.61783" lon="5.86405">
        <ele>756.21</ele>
        <time>2019-06-16T12:41:01Z</time>
      </trkpt>
      <trkpt lat="46.61782" lon="5.86412">
        <ele>756.21</ele>
        <time>2019-06-16T12:41:04Z</time>
      </trkpt>
      <trkpt lat="46.61782" lon="5.86436">
        <ele>756.21</ele>
        <time>2019-06-16T12:41:17Z</time>
      </trkpt>
      <trkpt lat="46.61787" lon="5.86464">
        <ele>756.21</ele>
        <time>2019-06-16T12:41:32Z</time>
      </trkpt>
      <trkpt lat="46.61789" lon="5.86477">
        <ele>756.21</ele>
        <time>2019-06-16T12:41:39Z</time>
      </trkpt>
      <trkpt lat="46.61792" lon="5.86501">
        <ele>756.21</ele>
        <time>2019-06-16T12:41:52Z</time>
      </trkpt>
      <trkpt lat="46.61793" lon="5.86525">
        <ele>756.21</ele>
        <time>2019-06-16T12:42:05Z</time>
      </trkpt>
      <trkpt lat="46.61796" lon="5.86535">
        <ele>756.21</ele>
        <time>2019-06-16T12:42:13Z</time>
      </trkpt>
      <trkpt lat="46.61805" lon="5.86556">
        <ele>756.21</ele>
        <time>2019-06-16T12:42:27Z</time>
      </trkpt>
      <trkpt lat="46.61809" lon="5.86567">
        <ele>756.21</ele>
        <time>2019-06-16T12:42:34Z</time>
      </trkpt>
      <trkpt lat="46.6181" lon="5.86572">
        <ele>755.73</ele>
        <time>2019-06-16T12:42:37Z</time>
      </trkpt>
      <trkpt lat="46.61816" lon="5.86594">
        <ele>755.73</ele>
        <time>2019-06-16T12:42:49Z</time>
      </trkpt>
      <trkpt lat="46.61814" lon="5.86623">
        <ele>756.21</ele>
        <time>2019-06-16T12:43:04Z</time>
      </trkpt>
      <trkpt lat="46.61814" lon="5.86647">
        <ele>756.21</ele>
        <time>2019-06-16T12:43:16Z</time>
      </trkpt>
      <trkpt lat="46.61819" lon="5.86666">
        <ele>756.21</ele>
        <time>2019-06-16T12:43:29Z</time>
      </trkpt>
      <trkpt lat="46.61831" lon="5.86692">
        <ele>756.21</ele>
        <time>2019-06-16T12:43:45Z</time>
      </trkpt>
      <trkpt lat="46.61838" lon="5.86705">
        <ele>756.21</ele>
        <time>2019-06-16T12:43:53Z</time>
      </trkpt>
      <trkpt lat="46.61844" lon="5.86734">
        <ele>756.21</ele>
        <time>2019-06-16T12:44:08Z</time>
      </trkpt>
      <trkpt lat="46.61839" lon="5.86748">
        <ele>756.21</ele>
        <time>2019-06-16T12:44:19Z</time>
      </trkpt>
      <trkpt lat="46.61829" lon="5.86781">
        <ele>757.18</ele>
        <time>2019-06-16T12:44:36Z</time>
      </trkpt>
      <trkpt lat="46.61819" lon="5.86801">
        <ele>757.18</ele>
        <time>2019-06-16T12:44:48Z</time>
      </trkpt>
      <trkpt lat="46.61811" lon="5.86823">
        <ele>757.66</ele>
        <time>2019-06-16T12:45:01Z</time>
      </trkpt>
      <trkpt lat="46.61807" lon="5.86834">
        <ele>758.14</ele>
        <time>2019-06-16T12:45:10Z</time>
      </trkpt>
      <trkpt lat="46.61803" lon="5.86859">
        <ele>758.14</ele>
        <time>2019-06-16T12:45:22Z</time>
      </trkpt>
      <trkpt lat="46.61803" lon="5.86862">
        <ele>758.14</ele>
        <time>2019-06-16T12:45:23Z</time>
      </trkpt>
      <trkpt lat="46.61797" lon="5.86888">
        <ele>758.62</ele>
        <time>2019-06-16T12:45:35Z</time>
      </trkpt>
      <trkpt lat="46.61793" lon="5.86895">
        <ele>759.1</ele>
        <time>2019-06-16T12:45:39Z</time>
      </trkpt>
      <trkpt lat="46.61787" lon="5.86905">
        <ele>758.62</ele>
        <time>2019-06-16T12:45:45Z</time>
      </trkpt>
      <trkpt lat="46.61784" lon="5.86913">
        <ele>759.1</ele>
        <time>2019-06-16T12:45:48Z</time>
      </trkpt>
      <trkpt lat="46.61768" lon="5.86934">
        <ele>759.58</ele>
        <time>2019-06-16T12:46:01Z</time>
      </trkpt>
      <trkpt lat="46.61764" lon="5.86938">
        <ele>760.06</ele>
        <time>2019-06-16T12:46:05Z</time>
      </trkpt>
      <trkpt lat="46.61761" lon="5.86941">
        <ele>760.06</ele>
        <time>2019-06-16T12:46:08Z</time>
      </trkpt>
      <trkpt lat="46.61751" lon="5.86956">
        <ele>760.54</ele>
        <time>2019-06-16T12:46:19Z</time>
      </trkpt>
      <trkpt lat="46.61739" lon="5.86972">
        <ele>760.54</ele>
        <time>2019-06-16T12:46:32Z</time>
      </trkpt>
      <trkpt lat="46.61724" lon="5.86982">
        <ele>761.02</ele>
        <time>2019-06-16T12:46:44Z</time>
      </trkpt>
      <trkpt lat="46.61719" lon="5.86985">
        <ele>760.54</ele>
        <time>2019-06-16T12:46:48Z</time>
      </trkpt>
      <trkpt lat="46.6171" lon="5.86988">
        <ele>761.02</ele>
        <time>2019-06-16T12:46:54Z</time>
      </trkpt>
      <trkpt lat="46.61707" lon="5.8699">
        <ele>761.02</ele>
        <time>2019-06-16T12:46:57Z</time>
      </trkpt>
      <trkpt lat="46.61694" lon="5.86996">
        <ele>761.02</ele>
        <time>2019-06-16T12:47:06Z</time>
      </trkpt>
      <trkpt lat="46.61675" lon="5.87006">
        <ele>761.5</ele>
        <time>2019-06-16T12:47:20Z</time>
      </trkpt>
      <trkpt lat="46.61669" lon="5.87011">
        <ele>761.5</ele>
        <time>2019-06-16T12:47:25Z</time>
      </trkpt>
      <trkpt lat="46.61664" lon="5.87014">
        <ele>761.5</ele>
        <time>2019-06-16T12:47:29Z</time>
      </trkpt>
      <trkpt lat="46.61648" lon="5.87026">
        <ele>761.5</ele>
        <time>2019-06-16T12:47:42Z</time>
      </trkpt>
      <trkpt lat="46.61636" lon="5.87046">
        <ele>761.98</ele>
        <time>2019-06-16T12:47:55Z</time>
      </trkpt>
      <trkpt lat="46.6163" lon="5.87069">
        <ele>762.46</ele>
        <time>2019-06-16T12:48:09Z</time>
      </trkpt>
      <trkpt lat="46.6163" lon="5.871">
        <ele>762.46</ele>
        <time>2019-06-16T12:48:25Z</time>
      </trkpt>
      <trkpt lat="46.6163" lon="5.87105">
        <ele>762.46</ele>
        <time>2019-06-16T12:48:28Z</time>
      </trkpt>
      <trkpt lat="46.61633" lon="5.87133">
        <ele>762.46</ele>
        <time>2019-06-16T12:48:43Z</time>
      </trkpt>
      <trkpt lat="46.61636" lon="5.87159">
        <ele>761.98</ele>
        <time>2019-06-16T12:48:57Z</time>
      </trkpt>
      <trkpt lat="46.61639" lon="5.87189">
        <ele>761.98</ele>
        <time>2019-06-16T12:49:13Z</time>
      </trkpt>
      <trkpt lat="46.61643" lon="5.87212">
        <ele>761.98</ele>
        <time>2019-06-16T12:49:26Z</time>
      </trkpt>
      <trkpt lat="46.61648" lon="5.87241">
        <ele>761.98</ele>
        <time>2019-06-16T12:49:41Z</time>
      </trkpt>
      <trkpt lat="46.6165" lon="5.87271">
        <ele>761.98</ele>
        <time>2019-06-16T12:49:55Z</time>
      </trkpt>
      <trkpt lat="46.61652" lon="5.87304">
        <ele>761.98</ele>
        <time>2019-06-16T12:50:11Z</time>
      </trkpt>
      <trkpt lat="46.61653" lon="5.87326">
        <ele>761.98</ele>
        <time>2019-06-16T12:50:23Z</time>
      </trkpt>
      <trkpt lat="46.61655" lon="5.87335">
        <ele>762.46</ele>
        <time>2019-06-16T12:50:28Z</time>
      </trkpt>
      <trkpt lat="46.61654" lon="5.8737">
        <ele>761.98</ele>
        <time>2019-06-16T12:50:45Z</time>
      </trkpt>
      <trkpt lat="46.61655" lon="5.87375">
        <ele>762.46</ele>
        <time>2019-06-16T12:50:48Z</time>
      </trkpt>
      <trkpt lat="46.61655" lon="5.87405">
        <ele>761.98</ele>
        <time>2019-06-16T12:51:02Z</time>
      </trkpt>
      <trkpt lat="46.61656" lon="5.87427">
        <ele>761.98</ele>
        <time>2019-06-16T12:51:12Z</time>
      </trkpt>
      <trkpt lat="46.61657" lon="5.87434">
        <ele>761.98</ele>
        <time>2019-06-16T12:51:16Z</time>
      </trkpt>
      <trkpt lat="46.61659" lon="5.8745">
        <ele>762.46</ele>
        <time>2019-06-16T12:51:24Z</time>
      </trkpt>
      <trkpt lat="46.61666" lon="5.8748">
        <ele>762.46</ele>
        <time>2019-06-16T12:51:39Z</time>
      </trkpt>
      <trkpt lat="46.61671" lon="5.87494">
        <ele>762.46</ele>
        <time>2019-06-16T12:51:47Z</time>
      </trkpt>
      <trkpt lat="46.61673" lon="5.87499">
        <ele>762.46</ele>
        <time>2019-06-16T12:51:50Z</time>
      </trkpt>
      <trkpt lat="46.61685" lon="5.87528">
        <ele>762.46</ele>
        <time>2019-06-16T12:52:08Z</time>
      </trkpt>
      <trkpt lat="46.61691" lon="5.87549">
        <ele>761.98</ele>
        <time>2019-06-16T12:52:19Z</time>
      </trkpt>
      <trkpt lat="46.61694" lon="5.87576">
        <ele>762.46</ele>
        <time>2019-06-16T12:52:32Z</time>
      </trkpt>
      <trkpt lat="46.61691" lon="5.87604">
        <ele>762.46</ele>
        <time>2019-06-16T12:52:48Z</time>
      </trkpt>
      <trkpt lat="46.61692" lon="5.87625">
        <ele>762.94</ele>
        <time>2019-06-16T12:53:00Z</time>
      </trkpt>
      <trkpt lat="46.61698" lon="5.87648">
        <ele>762.94</ele>
        <time>2019-06-16T12:53:14Z</time>
      </trkpt>
      <trkpt lat="46.61707" lon="5.87667">
        <ele>762.94</ele>
        <time>2019-06-16T12:53:26Z</time>
      </trkpt>
      <trkpt lat="46.61716" lon="5.87695">
        <ele>761.98</ele>
        <time>2019-06-16T12:53:39Z</time>
      </trkpt>
      <trkpt lat="46.61724" lon="5.87715">
        <ele>762.46</ele>
        <time>2019-06-16T12:53:52Z</time>
      </trkpt>
      <trkpt lat="46.61732" lon="5.87732">
        <ele>762.46</ele>
        <time>2019-06-16T12:54:04Z</time>
      </trkpt>
      <trkpt lat="46.61734" lon="5.87736">
        <ele>762.46</ele>
        <time>2019-06-16T12:54:07Z</time>
      </trkpt>
      <trkpt lat="46.61743" lon="5.87766">
        <ele>762.46</ele>
        <time>2019-06-16T12:54:21Z</time>
      </trkpt>
      <trkpt lat="46.61751" lon="5.87792">
        <ele>762.94</ele>
        <time>2019-06-16T12:54:36Z</time>
      </trkpt>
      <trkpt lat="46.61752" lon="5.87795">
        <ele>762.46</ele>
        <time>2019-06-16T12:54:38Z</time>
      </trkpt>
      <trkpt lat="46.61761" lon="5.87825">
        <ele>763.42</ele>
        <time>2019-06-16T12:54:56Z</time>
      </trkpt>
      <trkpt lat="46.61771" lon="5.87853">
        <ele>764.39</ele>
        <time>2019-06-16T12:55:12Z</time>
      </trkpt>
      <trkpt lat="46.61775" lon="5.87865">
        <ele>764.39</ele>
        <time>2019-06-16T12:55:18Z</time>
      </trkpt>
      <trkpt lat="46.61781" lon="5.87886">
        <ele>764.87</ele>
        <time>2019-06-16T12:55:32Z</time>
      </trkpt>
      <trkpt lat="46.61791" lon="5.87911">
        <ele>765.35</ele>
        <time>2019-06-16T12:55:46Z</time>
      </trkpt>
      <trkpt lat="46.61797" lon="5.87939">
        <ele>766.31</ele>
        <time>2019-06-16T12:55:59Z</time>
      </trkpt>
      <trkpt lat="46.61804" lon="5.87968">
        <ele>766.31</ele>
        <time>2019-06-16T12:56:13Z</time>
      </trkpt>
      <trkpt lat="46.61804" lon="5.87977">
        <ele>766.79</ele>
        <time>2019-06-16T12:56:17Z</time>
      </trkpt>
      <trkpt lat="46.61806" lon="5.88002">
        <ele>766.31</ele>
        <time>2019-06-16T12:56:30Z</time>
      </trkpt>
      <trkpt lat="46.61807" lon="5.88008">
        <ele>766.31</ele>
        <time>2019-06-16T12:56:33Z</time>
      </trkpt>
      <trkpt lat="46.61812" lon="5.88034">
        <ele>767.27</ele>
        <time>2019-06-16T12:56:48Z</time>
      </trkpt>
      <trkpt lat="46.61813" lon="5.88046">
        <ele>767.27</ele>
        <time>2019-06-16T12:56:54Z</time>
      </trkpt>
      <trkpt lat="46.61816" lon="5.88067">
        <ele>767.75</ele>
        <time>2019-06-16T12:57:06Z</time>
      </trkpt>
      <trkpt lat="46.61818" lon="5.88082">
        <ele>767.75</ele>
        <time>2019-06-16T12:57:17Z</time>
      </trkpt>
      <trkpt lat="46.61821" lon="5.88089">
        <ele>767.27</ele>
        <time>2019-06-16T12:57:22Z</time>
      </trkpt>
      <trkpt lat="46.61823" lon="5.88094">
        <ele>768.23</ele>
        <time>2019-06-16T12:57:27Z</time>
      </trkpt>
      <trkpt lat="46.61825" lon="5.88106">
        <ele>767.27</ele>
        <time>2019-06-16T12:57:41Z</time>
      </trkpt>
      <trkpt lat="46.61822" lon="5.88124">
        <ele>766.79</ele>
        <time>2019-06-16T12:57:55Z</time>
      </trkpt>
      <trkpt lat="46.61818" lon="5.88143">
        <ele>766.31</ele>
        <time>2019-06-16T12:58:02Z</time>
      </trkpt>
      <trkpt lat="46.61813" lon="5.88162">
        <ele>766.31</ele>
        <time>2019-06-16T12:58:14Z</time>
      </trkpt>
      <trkpt lat="46.61813" lon="5.88176">
        <ele>766.31</ele>
        <time>2019-06-16T12:58:26Z</time>
      </trkpt>
      <trkpt lat="46.61812" lon="5.88178">
        <ele>766.31</ele>
        <time>2019-06-16T12:58:28Z</time>
      </trkpt>
      <trkpt lat="46.61805" lon="5.88197">
        <ele>765.83</ele>
        <time>2019-06-16T12:58:40Z</time>
      </trkpt>
      <trkpt lat="46.61801" lon="5.882">
        <ele>765.35</ele>
        <time>2019-06-16T12:58:54Z</time>
      </trkpt>
      <trkpt lat="46.61801" lon="5.882">
        <ele>765.35</ele>
        <time>2019-06-16T12:59:20Z</time>
      </trkpt>
      <trkpt lat="46.61801" lon="5.882">
        <ele>756.21</ele>
        <time>2019-06-16T12:59:34Z</time>
      </trkpt>
      <trkpt lat="46.61801" lon="5.882">
        <ele>771.11</ele>
        <time>2019-06-16T12:59:35Z</time>
      </trkpt>
      <trkpt lat="46.61801" lon="5.882">
        <ele>766.79</ele>
        <time>2019-06-16T12:59:36Z</time>
      </trkpt>
      <trkpt lat="46.61801" lon="5.882">
        <ele>762.46</ele>
        <time>2019-06-16T12:59:39Z</time>
      </trkpt>
      <trkpt lat="46.61801" lon="5.882">
        <ele>766.79</ele>
        <time>2019-06-16T12:59:40Z</time>
      </trkpt>
      <trkpt lat="46.61802" lon="5.882">
        <ele>766.31</ele>
        <time>2019-06-16T12:59:55Z</time>
      </trkpt>
      <trkpt lat="46.61802" lon="5.882">
        <ele>758.62</ele>
        <time>2019-06-16T12:59:58Z</time>
      </trkpt>
      <trkpt lat="46.61802" lon="5.882">
        <ele>772.08</ele>
        <time>2019-06-16T12:59:59Z</time>
      </trkpt>
      <trkpt lat="46.61802" lon="5.882">
        <ele>766.79</ele>
        <time>2019-06-16T13:00:00Z</time>
      </trkpt>
      <trkpt lat="46.61803" lon="5.882">
        <ele>765.35</ele>
        <time>2019-06-16T13:00:21Z</time>
      </trkpt>
    </trkseg>
  </trk>
</gpx>